[[{"header":{"parameterUnit":"m.s-1","parameterCategory":1,"la1":31.0,"la2":29.5877,"lo1":-88.7671,"lo2":-86.6584,"dy":0.0162,"dx":0.0185,"nx":115,"ny":88,"refTime":"2023-04-07T12:00:00:Z","depth":0,"parameterNumber":2,"parameterNumberName":"U-component_of_WINDS"},"data":[0.0,0.0,0.0,0.0,0.0,0.0,0.0,0.0,0.0,0.0,0.0,0.0,0.0,0.0,0.0,0.0,0.0,0.0,0.0,0.0,0.0,0.0,0.0,0.0,0.0,0.0,0.0,0.0,0.0,0.0,0.0,0.0,0.0,0.0,0.0,0.0,0.0,0.0,0.0,0.0,0.0,0.0,0.0,0.0,0.0,0.0,0.0,0.0,0.0,0.0,0.0,0.0,0.0,0.0,0.0,0.0,0.0,0.0,0.0,0.0,0.0,0.0,0.0,0.0,0.0,0.0,0.0,0.0,0.0,0.0,0.0,0.0,0.0,0.0,0.0,0.0,0.0,0.0,0.0,0.0,0.0,0.0,0.0,0.0,0.0,0.0,0.0,0.0,0.0,0.0,0.0,0.0,0.0,0.0,0.0,0.0,0.0,0.0,0.0,0.0,0.0,0.0,0.0,0.0,0.0,0.0,0.0,0.0,0.0,0.0,0.0,0.0,0.0,0.0,0.0,0.0,0.0,0.0,0.0,0.0,0.0,0.0,0.0,0.0,0.0,0.0,0.0,0.0,0.0,0.0,0.0,0.0,0.0,0.0,0.0,0.0,0.0,0.0,0.0,0.0,0.0,0.0,0.0,0.0,0.0,0.0,0.0,0.0,0.0,0.0,0.0,0.0,0.0,0.0,0.0,0.0,0.0,0.0,0.0,0.0,0.0,0.0,0.0,0.0,0.0,0.0,0.0,0.0,0.0,0.0,0.0,0.0,0.0,0.0,0.0,0.0,0.0,0.0,0.0,0.0,0.0,0.0,0.0,0.0,0.0,0.0,0.0,0.0,0.0,0.0,0.0,0.0,0.0,0.0,0.0,0.0,0.0,0.0,0.0,0.0,0.0,0.0,0.0,0.0,0.0,0.0,0.0,0.0,0.0,0.0,0.0,0.0,0.0,0.0,0.0,0.0,0.0,0.0,0.0,0.0,0.0,0.0,0.0,0.0,0.0,0.0,0.0,0.0,0.0,0.0,0.0,0.0,0.0,0.0,0.0,0.0,0.0,0.0,0.0,0.0,0.0,0.0,0.0,0.0,0.0,0.0,0.0,0.0,0.0,0.0,0.0,0.0,0.0,0.0,0.0,0.0,0.0,0.0,0.0,0.0,0.0,0.0,0.0,0.0,0.0,0.0,0.0,0.0,0.0,0.0,0.0,0.0,0.0,0.0,0.0,0.0,0.0,0.0,0.0,0.0,0.0,0.0,0.0,0.0,0.0,0.0,0.0,0.0,0.0,0.0,0.0,0.0,0.0,0.0,0.0,0.0,0.0,0.0,0.0,0.0,0.0,0.0,0.0,0.0,0.0,0.0,0.0,0.0,0.0,0.0,0.0,0.0,0.0,0.0,0.0,0.0,0.0,0.0,0.0,0.0,0.0,0.0,0.0,0.0,0.0,0.0,0.0,0.0,0.0,0.0,0.0,0.0,0.0,0.0,0.0,0.0,0.0,0.0,0.0,0.0,0.0,0.0,0.0,0.0,0.0,0.0,0.0,0.0,0.0,0.0,0.0,0.0,0.0,0.0,0.0,0.0,0.0,0.0,0.0,0.0,0.0,0.0,0.0,0.0,0.0,0.0,0.0,0.0,0.0,0.0,0.0,0.0,0.0,0.0,0.0,0.0,0.0,0.0,0.0,0.0,0.0,0.0,0.0,0.0,0.0,0.0,0.0,0.0,0.0,0.0,0.0,0.0,0.0,0.0,0.0,0.0,0.0,0.0,0.0,0.0,0.0,0.0,0.0,0.0,0.0,0.0,0.0,0.0,0.0,0.0,0.0,0.0,0.0,0.0,0.0,0.0,0.0,0.0,0.0,0.0,0.0,0.0,0.0,0.0,0.0,0.0,0.0,0.0,0.0,0.0,0.0,0.0,0.0,0.0,0.0,0.0,0.0,0.0,0.0,0.0,0.0,0.0,0.0,0.0,0.0,0.0,0.0,0.0,0.0,0.0,0.0,0.0,0.0,0.0,0.0,0.0,0.0,0.0,0.0,0.0,0.0,0.0,0.0,0.0,0.0,0.0,0.0,0.0,0.0,0.0,0.0,0.0,0.0,0.0,0.0,0.0,0.0,0.0,0.0,0.0,0.0,0.0,0.0,0.0,0.0,0.0,0.0,0.0,0.0,0.0,0.0,0.0,0.0,0.0,0.0,0.0,0.0,0.0,0.0,0.0,0.0,0.0,0.0,0.0,0.0,0.0,0.0,0.0,0.0,0.0,0.0,0.0,0.0,0.0,0.0,0.0,0.0,0.0,0.0,0.0,0.0,0.0,0.0,0.0,0.0,0.0,0.0,0.0,0.0,0.0,0.0,0.0,0.0,0.0,0.0,0.0,0.0,0.0,0.0,0.0,0.0,0.0,0.0,0.0,0.0,0.0,0.0,0.0,0.0,0.0,0.0,0.0,0.0,0.0,0.0,0.0,0.0,0.0,0.0,0.0,0.0,0.0,0.0,0.0,0.0,0.0,0.0,0.0,0.0,0.0,0.0,0.0,0.0,0.0,0.0,0.0,0.0,0.0,0.0,0.0,0.0,0.0,0.0,0.0,0.0,0.0,0.0,0.0,0.0,0.0,0.0,0.0,0.0,0.0,0.0,0.0,0.0,0.0,0.0,0.0,0.0,0.0,0.0,0.0,0.0,0.0,0.0,0.0,0.0,0.0,0.0,0.0,0.0,0.0,0.0,0.0,0.0,0.0,0.0,0.0,0.0,0.0,0.0,0.0,0.0,0.0,0.0,0.0,0.0,0.0,0.0,0.0,0.0,0.0,0.0,0.0,0.0,0.0,0.0,0.0,0.0,0.0,0.0,0.0,0.0,0.0,0.0,0.0,0.0,0.0,0.0,0.0,0.0,0.0,0.0,0.0,0.0,0.0,0.0,0.0,0.0,0.0,0.0,0.0,0.0,0.0,0.0,0.0,0.0,0.0,0.0,0.0,0.0,0.0,0.0,0.0,0.0,0.0,0.0,0.0,0.0,0.0,0.0,0.0,0.0,0.0,0.0,0.0,0.0,0.0,0.0,0.0,0.0,0.0,0.0,0.0,0.0,0.0,0.0,0.0,0.0,0.0,0.0,0.0,0.0,0.0,0.0,0.0,0.0,0.0,0.0,0.0,0.0,0.0,0.0,0.0,0.0,0.0,0.0,0.0,0.0,0.0,0.0,0.0,0.0,0.0,0.0,0.0,0.0,0.0,0.0,0.0,0.0,0.0,0.0,0.0,0.0,0.0,0.0,0.0,0.0,0.0,0.0,0.0,0.0,0.0,0.0,0.0,0.0,0.0,0.0,0.0,0.0,0.0,0.0,0.0,0.0,0.0,0.0,0.0,0.0,0.0,0.0,0.0,0.0,0.0,0.0,0.0,0.0,0.0,0.0,0.0,0.0,0.0,0.0,0.0,0.0,0.0,0.0,0.0,0.0,0.0,0.0,0.0,0.0,0.0,0.0,0.0,0.0,0.0,0.0,0.0,0.0,0.0,0.0,0.0,0.0,0.0,0.0,0.0,0.0,0.0,0.0,0.0,0.0,0.0,0.0,0.0,0.0,0.0,0.0,0.0,0.0,0.0,0.0,0.0,0.0,0.0,0.0,0.0,0.0,0.0,0.0,0.0,0.0,0.0,0.0,0.0,0.0,0.0,0.0,0.0,0.0,0.0,0.0,0.0,0.0,0.0,0.0,0.0,0.0,0.0,0.0,0.0,0.0,0.0,0.0,0.0,0.0,0.0,0.0,0.0,0.0,0.0,0.0,0.0,0.0,0.0,0.0,0.0,0.0,0.0,0.0,0.0,0.0,0.0,0.0,0.0,0.0,0.0,0.0,0.0,0.0,0.0,0.0,0.0,0.0,0.0,0.0,0.0,0.0,0.0,0.0,0.0,0.0,0.0,0.0,0.0,0.0,0.0,0.0,0.0,0.0,0.0,0.0,0.0,0.0,0.0,0.0,0.0,0.0,0.0,0.0,0.0,0.0,0.0,0.0,0.0,0.0,0.0,0.0,0.0,0.0,0.0,0.0,0.0,0.0,0.0,0.0,0.0,0.0,0.0,0.0,0.0,0.0,0.0,0.0,0.0,0.0,0.0,0.0,0.0,0.0,0.0,0.0,0.0,0.0,0.0,0.0,0.0,0.0,0.0,0.0,0.0,0.0,0.0,0.0,0.0,0.0,0.0,0.0,0.0,0.0,0.0,0.0,0.0,0.0,0.0,0.0,0.0,0.0,0.0,0.0,0.0,0.0,0.0,2.6825,0.0,0.0,0.0,0.0,0.0,0.0,0.0,0.0,0.0,0.0,0.0,0.0,0.0,0.0,0.0,0.0,0.0,0.0,0.0,0.0,0.0,0.0,0.0,0.0,0.0,0.0,0.0,0.0,0.0,0.0,0.0,0.0,0.0,0.0,0.0,0.0,0.0,0.0,0.0,0.0,0.0,0.0,0.0,0.0,0.0,0.0,0.0,0.0,0.0,0.0,0.0,0.0,0.0,0.0,0.0,0.0,0.0,0.0,0.0,0.0,0.0,0.0,0.0,0.0,0.0,0.0,0.0,0.0,0.0,0.0,0.0,0.0,0.0,0.0,0.0,0.0,0.0,0.0,0.0,0.0,0.0,0.0,0.0,0.0,0.0,0.0,0.0,0.0,0.0,0.0,0.0,0.0,0.0,0.0,0.0,0.0,0.0,0.0,0.0,0.0,0.0,0.0,0.0,0.0,0.0,0.0,0.0,0.0,0.0,0.0,2.8543,2.7156,3.0808,3.0723,2.635,0.0,0.0,0.0,0.0,0.0,0.0,0.0,0.0,0.0,0.0,0.0,0.0,0.0,0.0,0.0,0.0,0.0,0.0,0.0,0.0,0.0,0.0,0.0,0.0,0.0,0.0,0.0,0.0,0.0,0.0,0.0,0.0,0.0,0.0,0.0,0.0,0.0,0.0,0.0,0.0,0.0,0.0,0.0,0.0,0.0,0.0,0.0,0.0,0.0,0.0,0.0,0.0,0.0,0.0,0.0,0.0,0.0,0.0,0.0,0.0,0.0,0.0,0.0,0.0,0.0,0.0,0.0,0.0,0.0,0.0,0.0,0.0,0.0,0.0,0.0,0.0,0.0,0.0,0.0,0.0,0.0,0.0,0.0,0.0,0.0,0.0,0.0,0.0,0.0,0.0,0.0,0.0,0.0,0.0,0.0,0.0,0.0,0.0,0.0,0.0,0.0,0.0,0.0,0.0,0.0,0.0,0.0,0.0,0.0,0.0,0.0,0.0,3.1074,3.0815,2.7098,0.0,0.0,0.0,0.0,0.0,0.0,0.0,0.0,0.0,0.0,0.0,0.0,0.0,0.0,0.0,0.0,0.0,0.0,0.0,0.0,0.0,0.0,0.0,0.0,0.0,0.0,0.0,0.0,0.0,0.0,0.0,0.0,0.0,0.0,0.0,0.0,0.0,0.0,0.0,0.0,0.0,0.0,0.0,0.0,0.0,0.0,0.0,0.0,0.0,0.0,0.0,0.0,0.0,0.0,0.0,0.0,0.0,0.0,0.0,0.0,0.0,0.0,0.0,0.0,0.0,0.0,0.0,0.0,0.0,0.0,0.0,0.0,0.0,0.0,0.0,0.0,0.0,0.0,0.0,0.0,0.0,0.0,0.0,0.0,0.0,0.0,0.0,0.0,0.0,0.0,0.0,0.0,0.0,0.0,0.0,0.0,0.0,0.0,0.0,0.0,0.0,0.0,0.0,0.0,0.0,0.0,0.0,0.0,0.0,0.0,2.8288,3.0959,3.1696,0.0,2.9265,0.0,0.0,0.0,0.0,0.0,0.0,0.0,0.0,0.0,0.0,0.0,0.0,0.0,0.0,0.0,0.0,0.0,0.0,0.0,0.0,0.0,0.0,0.0,0.0,0.0,0.0,0.0,0.0,0.0,0.0,0.0,0.0,0.0,0.0,0.0,0.0,0.0,0.0,0.0,0.0,0.0,0.0,0.0,0.0,0.0,0.0,0.0,0.0,0.0,0.0,0.0,0.0,0.0,0.0,0.0,0.0,0.0,0.0,0.0,0.0,0.0,0.0,0.0,0.0,0.0,0.0,0.0,0.0,0.0,0.0,0.0,0.0,0.0,0.0,0.0,0.0,0.0,0.0,0.0,0.0,0.0,0.0,0.0,0.0,0.0,0.0,0.0,0.0,0.0,0.0,0.0,0.0,0.0,0.0,0.0,0.0,0.0,0.0,0.0,0.0,0.0,0.0,0.0,0.0,0.0,0.0,0.0,0.0,0.0,0.0,2.8549,3.1678,3.103,2.9232,0.0,0.0,0.0,0.0,0.0,0.0,0.0,0.0,0.0,0.0,0.0,0.0,0.0,0.0,0.0,0.0,0.0,0.0,0.0,0.0,0.0,0.0,0.0,0.0,0.0,0.0,0.0,0.0,0.0,0.0,0.0,0.0,0.0,0.0,0.0,0.0,0.0,0.0,0.0,0.0,0.0,0.0,0.0,0.0,0.0,0.0,0.0,0.0,0.0,0.0,0.0,0.0,0.0,0.0,0.0,0.0,0.0,0.0,0.0,0.0,0.0,0.0,0.0,0.0,0.0,0.0,0.0,0.0,0.0,0.0,0.0,0.0,0.0,0.0,0.0,0.0,0.0,0.0,0.0,0.0,0.0,0.0,0.0,0.0,0.0,0.0,0.0,0.0,0.0,0.0,0.0,0.0,0.0,0.0,0.0,0.0,0.0,0.0,0.0,0.0,0.0,0.0,0.0,0.0,0.0,0.0,0.0,0.0,0.0,0.0,2.8613,2.9968,3.2596,2.9972,2.7314,2.5033,0.0,0.0,0.0,0.0,0.0,0.0,0.0,0.0,0.0,0.0,0.0,0.0,0.0,0.0,0.0,0.0,0.0,0.0,0.0,0.0,0.0,0.0,0.0,0.0,0.0,0.0,0.0,0.0,0.0,0.0,0.0,0.0,0.0,0.0,0.0,0.0,0.0,0.0,0.0,0.0,0.0,0.0,0.0,0.0,0.0,0.0,0.0,0.0,0.0,0.0,0.0,0.0,0.0,0.0,0.0,0.0,0.0,0.0,0.0,0.0,0.0,0.0,0.0,0.0,0.0,0.0,0.0,0.0,0.0,0.0,0.0,0.0,0.0,0.0,0.0,0.0,0.0,0.0,0.0,0.0,0.0,0.0,0.0,0.0,0.0,0.0,0.0,0.0,0.0,0.0,0.0,0.0,0.0,0.0,0.0,0.0,0.0,0.0,0.0,0.0,0.0,0.0,0.0,0.0,0.0,0.0,0.0,0.0,3.4633,3.272,3.2736,3.4853,2.8727,2.6144,0.0,0.0,0.0,0.0,0.0,0.0,0.0,0.0,0.0,0.0,0.0,0.0,0.0,0.0,0.0,0.0,0.0,0.0,0.0,0.0,0.0,0.0,0.0,0.0,0.0,0.0,0.0,0.0,0.0,0.0,0.0,0.0,0.0,0.0,0.0,0.0,0.0,0.0,0.0,0.0,0.0,0.0,0.0,0.0,0.0,0.0,0.0,0.0,0.0,0.0,0.0,0.0,0.0,0.0,0.0,0.0,0.0,0.0,0.0,0.0,0.0,0.0,0.0,0.0,0.0,0.0,0.0,0.0,0.0,0.0,0.0,0.0,0.0,0.0,0.0,0.0,0.0,0.0,0.0,0.0,0.0,0.0,0.0,0.0,0.0,0.0,0.0,0.0,0.0,0.0,0.0,0.0,0.0,0.0,0.0,0.0,0.0,0.0,0.0,0.0,0.0,0.0,0.0,0.0,0.0,0.0,0.0,0.0,0.0,2.8405,3.0988,3.1588,3.0079,2.9408,2.8393,0.0,0.0,0.0,0.0,0.0,0.0,0.0,0.0,0.0,0.0,0.0,0.0,0.0,0.0,0.0,0.0,0.0,0.0,0.0,0.0,0.0,0.0,0.0,0.0,0.0,0.0,0.0,0.0,0.0,0.0,0.0,0.0,0.0,0.0,0.0,0.0,0.0,0.0,0.0,0.0,0.0,0.0,0.0,0.0,0.0,0.0,0.0,0.0,0.0,0.0,0.0,0.0,0.0,0.0,0.0,0.0,0.0,0.0,0.0,0.0,0.0,0.0,0.0,0.0,0.0,0.0,0.0,0.0,0.0,0.0,0.0,0.0,0.0,0.0,0.0,0.0,0.0,0.0,0.0,0.0,0.0,0.0,0.0,0.0,0.0,0.0,0.0,0.0,0.0,0.0,0.0,0.0,0.0,0.0,0.0,0.0,0.0,0.0,0.0,0.0,0.0,0.0,0.0,0.0,0.0,0.0,0.0,0.0,0.0,2.7323,0.0,3.2112,2.9032,2.9216,2.8022,0.0,0.0,0.0,0.0,0.0,0.0,0.0,0.0,0.0,0.0,0.0,0.0,0.0,0.0,0.0,0.0,0.0,0.0,0.0,0.0,0.0,0.0,0.0,0.0,0.0,0.0,0.0,0.0,0.0,0.0,0.0,0.0,0.0,0.0,0.0,0.0,0.0,0.0,0.0,0.0,0.0,0.0,0.0,0.0,0.0,0.0,0.0,0.0,0.0,0.0,0.0,0.0,0.0,0.0,0.0,0.0,0.0,0.0,0.0,0.0,0.0,0.0,0.0,0.0,0.0,0.0,0.0,0.0,0.0,0.0,0.0,0.0,0.0,0.0,0.0,0.0,0.0,0.0,0.0,0.0,0.0,0.0,0.0,0.0,0.0,0.0,0.0,0.0,0.0,0.0,0.0,0.0,0.0,0.0,0.0,0.0,0.0,0.0,0.0,0.0,0.0,0.0,0.0,0.0,0.0,0.0,0.0,0.0,2.7378,3.28,3.4586,3.4385,3.2593,2.7926,2.4705,0.0,0.0,0.0,0.0,0.0,0.0,0.0,0.0,0.0,0.0,0.0,0.0,0.0,0.0,0.0,0.0,0.0,0.0,0.0,0.0,0.0,0.0,0.0,0.0,0.0,0.0,0.0,0.0,0.0,0.0,0.0,0.0,0.0,0.0,0.0,0.0,0.0,0.0,0.0,0.0,0.0,0.0,0.0,0.0,0.0,0.0,0.0,0.0,0.0,0.0,0.0,0.0,0.0,0.0,0.0,0.0,0.0,0.0,0.0,0.0,0.0,0.0,0.0,0.0,0.0,0.0,0.0,0.0,0.0,0.0,0.0,0.0,0.0,0.0,0.0,0.0,0.0,0.0,0.0,0.0,0.0,0.0,0.0,0.0,0.0,0.0,0.0,0.0,0.0,0.0,0.0,0.0,0.0,0.0,0.0,0.0,0.0,0.0,0.0,0.0,0.0,0.0,0.0,0.0,0.0,0.0,0.0,0.0,0.0,2.7593,3.0702,3.2019,3.1116,2.8059,2.643,0.0,0.0,0.0,0.0,0.0,0.0,0.0,0.0,0.0,0.0,0.0,0.0,0.0,0.0,0.0,0.0,0.0,0.0,0.0,0.0,0.0,0.0,0.0,0.0,0.0,0.0,0.0,0.0,0.0,0.0,0.0,0.0,0.0,0.0,0.0,0.0,0.0,0.0,0.0,0.0,0.0,0.0,0.0,0.0,0.0,0.0,0.0,0.0,0.0,0.0,0.0,0.0,0.0,0.0,0.0,0.0,0.0,0.0,0.0,0.0,0.0,0.0,0.0,0.0,0.0,0.0,0.0,0.0,0.0,0.0,0.0,0.0,0.0,0.0,0.0,0.0,0.0,0.0,0.0,0.0,0.0,0.0,0.0,0.0,0.0,0.0,0.0,0.0,0.0,0.0,0.0,0.0,0.0,0.0,0.0,0.0,0.0,0.0,0.0,0.0,0.0,0.0,0.0,0.0,0.0,0.0,0.0,0.0,0.0,2.931,3.2604,3.3771,3.2331,2.9948,2.8051,2.6687,0.0,0.0,0.0,0.0,0.0,0.0,0.0,0.0,0.0,0.0,0.0,0.0,0.0,0.0,0.0,0.0,0.0,0.0,0.0,0.0,0.0,0.0,0.0,0.0,0.0,0.0,0.0,0.0,0.0,0.0,0.0,0.0,0.0,0.0,0.0,0.0,0.0,0.0,0.0,0.0,0.0,0.0,0.0,0.0,0.0,0.0,0.0,0.0,0.0,0.0,0.0,0.0,0.0,0.0,0.0,0.0,0.0,0.0,0.0,0.0,0.0,0.0,0.0,0.0,0.0,0.0,0.0,0.0,0.0,0.0,0.0,0.0,0.0,0.0,0.0,0.0,0.0,0.0,0.0,0.0,0.0,0.0,0.0,0.0,0.0,0.0,0.0,0.0,0.0,0.0,0.0,0.0,0.0,0.0,0.0,0.0,0.0,0.0,0.0,0.0,0.0,0.0,0.0,0.0,0.0,0.0,0.0,0.0,3.6308,3.9409,3.9289,3.5791,3.3009,2.9471,0.0,0.0,0.0,0.0,0.0,0.0,0.0,0.0,0.0,0.0,0.0,0.0,0.0,0.0,0.0,0.0,0.0,0.0,0.0,0.0,0.0,0.0,0.0,0.0,0.0,0.0,0.0,0.0,0.0,0.0,0.0,0.0,0.0,0.0,0.0,0.0,0.0,0.0,0.0,0.0,0.0,0.0,0.0,0.0,0.0,0.0,0.0,0.0,0.0,0.0,0.0,0.0,0.0,0.0,0.0,0.0,0.0,0.0,0.0,0.0,0.0,0.0,0.0,0.0,0.0,0.0,0.0,0.0,0.0,0.0,0.0,0.0,0.0,0.0,0.0,0.0,0.0,0.0,0.0,0.0,0.0,0.0,0.0,0.0,0.0,0.0,0.0,0.0,0.0,0.0,0.0,0.0,0.0,0.0,0.0,0.0,0.0,0.0,0.0,0.0,0.0,0.0,0.0,0.0,0.0,0.0,0.0,0.0,0.0,4.0468,4.492,4.506,4.0535,3.3895,2.9988,0.0,0.0,0.0,0.0,0.0,0.0,0.0,0.0,0.0,0.0,0.0,0.0,0.0,0.0,0.0,0.0,0.0,0.0,0.0,0.0,0.0,0.0,0.0,0.0,0.0,0.0,0.0,0.0,0.0,0.0,0.0,0.0,0.0,0.0,0.0,0.0,0.0,0.0,0.0,0.0,0.0,0.0,0.0,0.0,0.0,0.0,0.0,0.0,0.0,0.0,0.0,0.0,0.0,0.0,0.0,0.0,0.0,0.0,0.0,0.0,0.0,0.0,0.0,0.0,0.0,0.0,0.0,0.0,0.0,0.0,0.0,0.0,0.0,0.0,0.0,0.0,0.0,0.0,0.0,0.0,0.0,0.0,0.0,0.0,0.0,0.0,0.0,0.0,0.0,0.0,0.0,0.0,0.0,0.0,0.0,0.0,0.0,0.0,0.0,0.0,0.0,0.0,0.0,0.0,0.0,0.0,0.0,0.0,3.6404,4.2483,4.7275,4.869,4.6424,3.8542,3.2866,0.0,0.0,0.0,0.0,0.0,0.0,0.0,0.0,0.0,0.0,0.0,0.0,0.0,0.0,0.0,0.0,0.0,0.0,0.0,0.0,0.0,0.0,0.0,0.0,0.0,0.0,0.0,0.0,0.0,0.0,0.0,0.0,0.0,0.0,0.0,0.0,0.0,0.0,0.0,0.0,0.0,0.0,0.0,0.0,0.0,0.0,0.0,0.0,0.0,0.0,0.0,0.0,0.0,0.0,0.0,0.0,0.0,0.0,0.0,0.0,0.0,0.0,0.0,0.0,0.0,0.0,0.0,0.0,0.0,0.0,0.0,0.0,0.0,0.0,0.0,0.0,0.0,0.0,0.0,0.0,0.0,0.0,0.0,0.0,0.0,0.0,0.0,0.0,0.0,0.0,0.0,0.0,0.0,0.0,0.0,0.0,0.0,0.0,0.0,0.0,0.0,0.0,0.0,0.0,0.0,0.0,0.0,0.0,3.776,4.3373,4.765,5.0493,5.1449,4.3989,3.6472,0.0,0.0,0.0,0.0,0.0,0.0,0.0,0.0,0.0,0.0,0.0,0.0,0.0,0.0,0.0,0.0,0.0,0.0,0.0,0.0,0.0,0.0,0.0,0.0,0.0,0.0,0.0,0.0,0.0,0.0,0.0,0.0,0.0,0.0,0.0,0.0,0.0,0.0,0.0,0.0,0.0,0.0,0.0,0.0,0.0,0.0,0.0,0.0,0.0,0.0,0.0,0.0,0.0,0.0,0.0,0.0,0.0,0.0,0.0,0.0,0.0,0.0,0.0,0.0,0.0,0.0,0.0,0.0,0.0,0.0,0.0,0.0,0.0,0.0,0.0,0.0,0.0,0.0,0.0,0.0,0.0,0.0,0.0,0.0,0.0,0.0,0.0,0.0,0.0,0.0,0.0,0.0,0.0,0.0,0.0,0.0,0.0,0.0,0.0,0.0,0.0,0.0,0.0,0.0,0.0,0.0,0.0,0.0,3.7938,4.5487,4.8277,4.982,5.0086,4.0727,3.5053,0.0,0.0,0.0,0.0,0.0,0.0,0.0,0.0,0.0,0.0,0.0,0.0,0.0,0.0,0.0,0.0,0.0,0.0,0.0,0.0,0.0,0.0,0.0,0.0,0.0,0.0,0.0,0.0,0.0,0.0,0.0,0.0,0.0,0.0,0.0,0.0,0.0,0.0,0.0,0.0,0.0,0.0,0.0,0.0,0.0,0.0,0.0,0.0,1.6195,0.0,0.0,0.0,0.0,0.0,0.0,0.0,0.0,0.0,0.0,0.0,0.0,0.0,0.0,0.0,0.0,0.0,0.0,0.0,0.0,0.0,0.0,0.0,0.0,0.0,0.0,0.0,0.0,0.0,0.0,0.0,0.0,0.0,0.0,0.0,0.0,0.0,0.0,0.0,0.0,0.0,0.0,0.0,0.0,0.0,0.0,0.0,0.0,0.0,0.0,0.0,0.0,0.0,0.0,0.0,0.0,0.0,0.0,0.0,3.8275,4.5043,4.7372,4.8971,4.9692,4.1693,3.5991,0.0,0.0,0.0,0.0,0.0,0.0,0.0,0.0,0.0,0.0,0.0,0.0,0.0,0.0,0.0,0.0,0.0,0.0,0.0,0.0,0.0,0.0,0.0,0.0,0.0,0.0,0.0,0.0,0.0,0.0,0.0,0.0,0.0,0.0,0.0,0.0,0.0,0.0,0.0,0.0,0.0,0.0,0.0,0.0,0.0,0.0,0.0,0.0,0.0,0.0,0.0,0.0,0.0,0.0,0.0,0.0,0.0,0.0,0.0,0.0,0.0,0.0,0.0,0.0,0.0,0.0,0.0,0.0,0.0,0.0,0.0,0.0,0.0,0.0,0.0,0.0,0.0,0.0,0.0,0.0,0.0,0.0,0.0,0.0,0.0,0.0,0.0,0.0,0.0,0.0,0.0,0.0,0.0,0.0,0.0,0.0,0.0,0.0,0.0,0.0,0.0,0.0,0.0,0.0,0.0,0.0,0.0,3.3642,3.8574,4.4091,4.6535,4.8571,5.0044,4.3865,3.7632,3.1782,0.0,0.0,0.0,0.0,0.0,0.0,0.0,0.0,0.0,0.0,0.0,0.0,0.0,0.0,0.0,0.0,0.0,0.0,0.0,0.0,0.0,0.0,0.0,0.0,0.0,0.0,0.0,0.0,0.0,0.0,0.0,0.0,0.0,0.0,0.0,0.0,0.0,0.0,1.8686,1.4024,0.0,0.0,0.0,0.0,0.0,0.0,0.0,0.0,1.5699,0.0,0.0,0.0,0.0,0.0,0.0,0.0,0.0,0.0,0.0,0.0,0.0,0.0,0.0,0.0,0.0,0.0,0.0,0.0,0.0,0.0,0.0,0.0,0.0,0.0,0.0,0.0,0.0,0.0,0.0,0.0,0.0,0.0,0.0,0.0,0.0,0.0,0.0,0.0,0.0,0.0,0.0,0.0,0.0,0.0,0.0,0.0,0.0,0.0,0.0,0.0,0.0,0.0,0.0,0.0,0.0,3.1309,3.4134,3.8972,4.5801,4.853,4.9353,4.8427,4.3377,3.7786,3.1791,0.0,0.0,0.0,0.0,0.0,0.0,0.0,0.0,0.0,0.0,0.0,0.0,0.0,0.0,0.0,0.0,0.0,0.0,0.0,0.0,0.0,0.0,0.0,0.0,0.0,0.0,0.0,0.0,0.0,0.0,0.0,0.0,0.0,0.0,0.0,0.0,0.0,0.0,0.0,1.5485,1.3172,0.0,0.0,0.0,0.0,0.0,0.0,0.0,0.0,2.0059,0.0,0.0,0.0,0.0,0.0,0.0,0.0,0.0,0.0,0.0,0.0,0.0,0.0,0.0,0.0,0.0,0.0,0.0,0.0,0.0,0.0,0.0,0.0,0.0,0.0,0.0,0.0,0.0,0.0,0.0,0.0,0.0,0.0,0.0,0.0,0.0,0.0,0.0,0.0,0.0,0.0,0.0,0.0,0.0,0.0,0.0,0.0,0.0,0.0,0.0,0.0,0.0,0.0,0.0,0.0,3.276,3.8647,4.4094,4.8818,4.9824,5.02,5.0065,4.4199,3.8303,0.0,0.0,0.0,0.0,0.0,0.0,0.0,0.0,0.0,0.0,0.0,0.0,0.0,0.0,0.0,0.0,0.0,0.0,0.0,0.0,0.0,0.0,0.0,0.0,0.0,0.0,0.0,0.0,0.0,0.0,0.0,0.0,0.0,0.0,0.0,0.0,0.0,0.0,0.0,0.0,1.7871,1.6875,2.128,0.0,0.0,0.0,0.0,0.0,0.0,2.2504,2.1231,0.0,0.0,0.0,0.0,0.0,0.0,0.0,0.0,0.0,0.0,0.0,0.0,0.0,0.0,0.0,0.0,0.0,0.0,0.0,0.0,0.0,0.0,0.0,0.0,0.0,0.0,0.0,0.0,0.0,0.0,0.0,0.0,0.0,0.0,0.0,0.0,0.0,0.0,0.0,0.0,0.0,0.0,0.0,0.0,0.0,0.0,0.0,0.0,0.0,0.0,0.0,0.0,0.0,0.0,0.0,3.3824,4.2333,4.8314,5.1237,5.1141,5.1251,5.1793,4.5312,3.8804,0.0,0.0,0.0,0.0,0.0,0.0,0.0,0.0,0.0,0.0,0.0,0.0,0.0,0.0,0.0,0.0,0.0,0.0,0.0,0.0,0.0,0.0,0.0,0.0,0.0,0.0,0.0,0.0,0.0,0.0,0.0,0.0,0.0,0.0,0.0,0.0,0.0,0.0,0.0,0.0,0.0,2.0596,2.3827,2.0833,0.0,0.0,0.0,0.0,1.9579,2.1136,0.0,0.0,0.0,0.0,0.0,0.0,0.0,0.0,0.0,0.0,0.0,0.0,0.0,0.0,0.0,0.0,0.0,0.0,0.0,0.0,0.0,0.0,0.0,0.0,0.0,0.0,0.0,0.0,0.0,0.0,0.0,0.0,0.0,0.0,0.0,0.0,0.0,0.0,0.0,0.0,0.0,0.0,0.0,0.0,0.0,0.0,0.0,0.0,0.0,0.0,0.0,0.0,0.0,0.0,0.0,0.0,3.42,4.11,4.6853,5.1108,5.2957,5.2957,5.1236,4.6272,3.9143,0.0,0.0,0.0,0.0,0.0,0.0,0.0,0.0,0.0,0.0,0.0,0.0,0.0,0.0,0.0,0.0,0.0,0.0,0.0,0.0,0.0,0.0,0.0,0.0,0.0,0.0,0.0,0.0,0.0,0.0,0.0,0.0,0.0,0.0,0.0,0.0,0.0,0.0,0.0,0.0,0.0,2.1533,2.811,2.3025,1.8369,0.0,0.0,2.5799,1.8065,2.0847,0.0,0.0,0.0,0.0,0.0,0.0,0.0,0.0,0.0,0.0,0.0,0.0,0.0,0.0,0.0,0.0,0.0,0.0,0.0,0.0,0.0,0.0,0.0,0.0,0.0,0.0,0.0,0.0,0.0,0.0,0.0,0.0,0.0,0.0,0.0,0.0,0.0,0.0,0.0,0.0,0.0,0.0,0.0,0.0,0.0,0.0,0.0,0.0,0.0,0.0,0.0,0.0,0.0,0.0,0.0,3.2898,3.6095,4.359,4.9534,5.3508,5.3286,5.1901,4.9579,4.2501,3.4529,0.0,0.0,0.0,0.0,0.0,0.0,0.0,0.0,0.0,0.0,0.0,0.0,0.0,0.0,0.0,0.0,0.0,0.0,0.0,0.0,0.0,0.0,0.0,0.0,0.0,0.0,0.0,0.0,0.0,0.0,0.0,0.0,0.0,0.0,0.0,0.0,0.0,0.0,0.0,0.0,0.0,0.0,1.8417,1.9632,0.0,0.0,0.0,1.9013,1.1305,0.0,0.0,0.0,0.0,0.0,0.0,0.0,0.0,0.0,0.0,0.0,0.0,0.0,0.0,0.0,0.0,0.0,0.0,0.0,0.0,0.0,0.0,0.0,0.0,0.0,0.0,0.0,0.0,0.0,0.0,0.0,0.0,0.0,0.0,0.0,0.0,0.0,0.0,0.0,0.0,0.0,0.0,0.0,0.0,0.0,0.0,0.0,0.0,0.0,0.0,0.0,0.0,0.0,0.0,0.0,0.0,0.0,3.7134,4.5405,5.1243,5.4222,5.2059,4.9392,4.6345,3.9968,0.0,0.0,0.0,0.0,0.0,0.0,0.0,0.0,0.0,0.0,0.0,0.0,0.0,0.0,0.0,0.0,0.0,0.0,0.0,0.0,0.0,0.0,0.0,0.0,0.0,0.0,0.0,1.908,0.0,0.0,0.0,0.0,0.0,0.0,0.0,0.0,0.0,0.0,0.0,0.0,0.0,0.0,2.1414,1.0141,1.5771,1.9039,0.0,0.0,1.1106,0.3688,0.7499,0.9082,0.0,0.0,0.0,0.0,0.0,0.0,0.0,0.0,0.0,0.0,0.0,0.0,0.0,0.0,0.0,0.0,0.0,0.0,0.0,0.0,0.0,0.0,0.0,0.0,0.0,0.0,0.0,0.0,0.0,0.0,0.0,0.0,0.0,0.0,0.0,0.0,0.0,0.0,0.0,0.0,0.0,0.0,0.0,0.0,0.0,0.0,0.0,0.0,0.0,0.0,0.0,0.0,0.0,0.0,3.584,3.6476,4.4643,4.9823,5.1325,4.8732,4.5228,4.1126,4.1382,3.3115,0.0,0.0,0.0,0.0,0.0,0.0,0.0,0.0,0.0,0.0,0.0,0.0,0.0,0.0,0.0,0.0,0.0,0.0,0.0,0.0,0.0,0.0,0.0,0.0,0.0,0.0,0.0,0.0,0.0,0.0,0.0,0.0,0.0,0.0,0.0,0.0,0.0,0.0,0.0,0.0,0.0,1.6594,0.9596,1.2959,1.3206,0.0,0.0,0.3908,-0.3401,0.0385,0.3007,-0.0636,0.0,0.0,0.0,0.0,0.0,0.0,0.0,0.0,0.0,0.0,0.0,0.0,0.0,0.0,0.0,0.0,0.0,0.0,0.0,0.0,0.0,0.0,0.0,0.0,0.0,0.0,0.0,0.0,0.0,0.0,0.0,0.0,0.0,0.0,0.0,0.0,0.0,0.0,0.0,0.0,0.0,0.0,0.0,0.0,0.0,0.0,0.0,0.0,0.0,0.0,0.0,0.0,0.0,3.492,3.4565,4.1561,4.542,4.5478,4.1714,3.7126,3.1832,2.8735,2.2183,0.0,0.0,0.0,0.0,0.0,0.0,0.0,0.0,0.0,0.0,0.0,0.0,0.0,0.0,0.0,0.0,0.0,0.0,0.0,0.0,0.0,0.0,0.0,0.0,0.0,0.0,0.0,0.0,2.2102,2.0525,1.7399,0.0,0.0,0.0,0.0,0.0,0.0,0.0,0.0,0.0,0.0,0.8783,0.2624,0.5625,0.0,0.0,-0.3592,-0.4268,-0.78,-0.5186,-0.3373,-0.5145,-0.4822,0.0,0.0,0.0,0.0,0.0,0.0,0.0,0.0,0.0,0.0,0.0,0.0,0.0,0.0,0.0,0.0,0.0,0.0,0.0,0.0,0.0,0.0,0.0,0.0,0.0,0.0,0.0,0.0,0.0,0.0,0.0,0.0,0.0,0.0,0.0,0.0,0.0,0.0,0.0,0.0,0.0,0.0,0.0,0.0,0.0,0.0,0.0,0.0,0.0,0.0,0.0,0.0,3.0456,2.9084,3.3896,3.6685,3.6973,3.2555,2.769,2.2479,1.7157,1.1617,0.0,0.0,0.0,0.0,0.0,0.0,0.0,0.0,0.0,0.0,0.0,0.0,0.0,0.0,0.0,0.0,0.0,0.0,0.0,0.0,0.0,0.0,0.0,0.0,0.0,0.0,0.0,0.0,1.9679,1.7031,1.4376,0.0,0.0,0.0,0.0,0.0,0.0,0.0,0.0,0.0,0.0,0.2264,-0.3306,-0.0749,-0.0503,-0.7301,-0.8925,-0.9707,-1.0243,-0.9595,-0.8953,-0.8583,0.0,0.0,0.0,0.0,0.0,0.0,0.0,0.0,0.0,0.0,0.0,0.0,0.0,0.0,0.0,0.0,0.0,0.0,0.0,0.0,0.0,0.0,0.0,0.0,0.0,0.0,0.0,0.0,0.0,0.0,2.8977,0.0,0.0,0.0,0.0,0.0,0.0,0.0,0.0,0.0,0.0,0.0,0.0,0.0,0.0,0.0,0.0,0.0,0.0,0.0,0.0,0.0,0.0,2.1618,1.8931,2.0865,2.2839,2.5003,2.1059,1.7075,1.3337,0.9108,0.3699,-0.2853,0.0,0.0,0.0,0.0,0.0,0.0,0.0,0.0,0.0,0.0,0.0,0.0,0.0,0.0,0.0,0.0,0.0,0.0,0.0,0.0,0.0,0.0,0.0,0.0,0.0,0.0,1.5643,1.2896,1.1444,0.0,0.0,0.0,0.0,0.0,0.0,0.0,0.0,0.0,0.0,-0.5272,-0.2408,-0.6891,-0.5164,-0.4181,-0.6439,-0.9709,-1.155,-1.0543,-1.2641,-1.3447,0.0,0.0,0.0,0.0,0.0,0.0,0.0,0.0,0.0,0.0,0.0,0.0,0.0,0.0,0.0,0.0,0.0,0.0,0.0,0.0,0.0,0.0,0.0,0.0,0.0,0.0,0.0,3.2466,3.2097,0.0,0.0,0.0,0.0,0.0,0.0,0.0,0.0,0.0,0.0,0.0,4.7281,4.6957,0.0,0.0,0.0,0.0,0.0,0.0,0.0,0.0,0.0,0.0,0.0,0.0,1.0415,0.9542,0.941,0.9923,1.0944,0.8146,0.4692,0.0893,-0.1553,-0.3659,-0.5854,0.0,0.0,0.0,0.0,0.0,0.0,0.0,0.0,0.0,0.0,0.0,0.0,0.0,0.0,0.0,0.0,0.0,0.0,0.0,0.0,0.0,0.0,0.0,0.0,0.0,1.0334,0.0,0.0,0.0,0.0,0.0,0.0,0.0,0.0,0.0,0.0,0.0,-1.2886,-1.1538,-1.1461,-1.1387,-1.1238,-1.0454,-1.0715,0.0,0.0,0.0,0.0,0.0,0.0,0.0,0.0,0.0,0.0,0.0,0.0,0.0,0.0,1.4837,1.6944,2.1629,2.5737,2.7207,0.0,0.0,0.0,0.0,0.0,0.0,0.0,0.0,0.0,0.0,0.0,0.0,0.0,0.0,3.805,0.0,3.858,0.0,0.0,0.0,0.0,0.0,0.0,0.0,0.0,4.6116,4.9427,5.1644,5.0998,5.0515,0.0,4.7382,4.1646,0.0,0.0,0.0,0.0,0.0,0.0,0.0,0.0,0.3134,0.2751,-0.2777,-0.4666,-0.2633,-0.459,-0.6697,-0.8954,-1.0204,-1.0637,-1.0183,-0.6891,-0.4569,0.0,0.0,0.0,0.0,0.0,0.0,0.0,0.0,0.0,0.0,0.0,0.0,0.0,0.0,0.0,0.0,0.0,0.0,0.0,0.0,0.0,0.0,0.0,0.3775,0.0,0.0,0.0,0.0,0.0,0.0,0.0,0.0,0.0,-1.534,-1.6485,-1.644,-1.4278,-1.4874,-1.5164,-1.4438,0.0,0.0,0.0,0.0,0.0,0.0,0.0,-1.7179,-1.7157,-1.6748,-1.4906,-1.0299,-0.2883,0.3985,0.8491,0.0,0.0,1.9084,2.3937,2.8101,2.9859,3.1731,3.3168,3.3911,3.4469,3.4972,0.0,0.0,0.0,0.0,0.0,0.0,0.0,0.0,4.5838,4.3878,0.0,4.3481,0.0,0.0,0.0,0.0,0.0,4.0894,0.0,0.0,5.4592,5.7679,5.4224,5.2956,5.1807,5.0349,4.526,4.0608,3.6687,3.6463,0.0,0.0,0.0,0.0,0.0,0.0,-0.0808,-0.2491,-1.5717,-2.0309,-1.5328,-1.6675,-1.7025,-1.605,-1.6986,-1.6948,-1.5763,-1.44,-1.3252,-1.2096,-0.7705,0.0,0.0,0.0,0.0,0.0,0.0,0.0,0.0,0.0,0.0,0.0,0.0,0.0,0.0,0.0,0.0,0.0,0.0,0.0,0.0,0.326,0.0,0.0,0.0,0.0,0.0,0.0,0.0,0.0,0.0,0.0,-1.9558,-1.8744,-1.8143,-1.9346,0.0,0.0,0.0,0.0,-1.2407,-1.3682,-1.4727,-1.5354,-1.535,-1.6187,-1.6115,-1.3928,0.0,0.0,-0.5108,-0.1965,0.1798,0.7086,1.2827,1.7287,1.985,2.4031,2.7674,2.9116,2.9979,3.0495,3.2097,3.2907,3.3196,4.7569,0.0,0.0,0.0,0.0,4.3297,4.6206,5.0396,5.1146,5.0453,4.8781,4.9984,0.0,0.0,0.0,0.0,0.0,0.0,4.3031,4.6105,4.8502,5.0803,5.3134,5.2144,5.1333,5.0547,4.5842,4.1689,3.7853,3.0308,2.7393,2.9064,0.0,0.0,0.0,0.0,-1.7221,-2.4574,-3.0202,-3.1003,-2.6962,-2.5167,-2.3912,-2.3437,-2.3108,-2.198,-1.9572,-1.9356,-1.7572,-1.4196,-1.4237,0.0,0.0,0.0,0.0,0.0,0.0,0.0,0.0,0.0,0.0,0.0,0.0,0.0,0.0,0.0,0.0,0.0,0.0,0.0,0.0821,-0.892,-1.6006,0.0,0.0,0.0,0.0,0.0,0.0,0.0,0.0,0.0,-2.3146,-2.2963,-2.2724,0.0,0.0,-2.4438,-2.3567,-2.0995,-1.8448,-1.6361,0.0,0.0,0.0,-1.4655,-1.6175,-1.6157,-1.3851,-1.0658,-0.633,-0.0235,0.5546,1.0197,1.4542,1.8735,2.2278,2.618,2.9581,3.2145,3.3875,3.5084,3.6122,3.7223,3.8217,5.5884,5.1743,4.8321,4.7509,4.8534,4.9117,5.1933,5.6169,5.6613,5.543,5.3219,5.4589,5.1047,4.3905,4.2213,0.0,0.0,0.0,4.2666,4.5718,4.5556,4.6598,4.8526,4.7218,4.5766,4.4357,4.011,3.5948,3.1886,2.2988,1.7978,1.6543,0.0,0.0,-0.476,-1.7094,-2.5709,-3.0637,-3.6713,-3.7853,-3.3856,-3.142,-2.987,-2.896,-2.8256,-2.7002,-2.4996,-2.4627,-2.32,-2.058,-2.0396,-1.7466,0.0,0.0,0.0,0.0,0.0,0.0,0.0,0.0,0.0,0.0,0.0,0.3677,0.8714,0.0,0.0,0.0,0.3845,-0.1059,-0.7691,-1.5329,0.0,0.0,0.0,0.0,0.0,0.0,0.0,-2.2569,-2.4496,-2.6335,-2.8132,-2.8207,-2.7133,-2.447,-2.5253,-2.5918,-2.5511,0.0,-1.9349,-1.8245,-1.7506,-1.6253,-1.4195,-1.4696,-1.5147,-1.4585,-1.2306,-0.9146,-0.5401,0.0622,0.6266,1.0719,1.4851,1.8744,2.2228,2.5538,2.922,3.3214,3.5157,3.6565,3.7972,3.8949,3.956,6.3028,6.2276,5.2878,5.1069,5.434,5.4551,5.7235,6.1425,6.1428,5.8858,5.4943,5.7444,5.3035,4.3462,3.9822,0.0,4.0619,4.1399,4.2467,4.3743,4.4527,4.3558,4.1302,3.917,3.6695,3.3883,2.9974,2.5543,2.0581,1.4277,0.7644,0.0743,-0.2972,-0.4436,-0.4918,-2.0257,-2.7364,-2.5314,-3.6535,-4.0687,-3.7085,-3.5993,-3.4637,-3.3056,-3.2571,-3.1848,-3.1011,-2.9909,-2.9297,-2.9414,-2.6276,-2.4078,-2.3124,0.0,0.0,0.0,0.0,0.0,0.0,0.0,0.0,0.0,0.0,0.0,0.0,0.0,0.0,0.0,-0.2359,0.0,-1.3016,-1.7462,0.0,0.0,0.0,-2.437,-2.4259,-2.4747,-2.6176,-2.9034,0.0,0.0,-3.3466,-3.349,-3.093,-2.4196,-2.234,-2.2437,-2.4672,-2.0104,-1.7008,-1.9251,-1.8102,-1.6905,-1.5946,-1.4899,-1.3319,-1.1181,-0.9224,-0.7241,-0.3698,0.0385,0.4822,0.953,1.3791,1.7597,2.0378,2.3164,2.6482,3.222,3.4054,3.5387,3.7778,3.7853,3.8079,6.3689,6.4351,6.0104,5.8799,5.9607,5.9748,6.0411,6.1292,6.0962,5.9966,5.8557,5.8072,5.4919,4.9814,4.6856,4.4831,4.3604,4.2038,4.0075,3.7956,3.7518,3.5462,3.2263,3.0255,2.7856,2.5028,2.0753,1.642,1.1784,0.0509,-0.2872,0.0504,-1.2258,-1.6004,-1.0421,-1.4781,-2.0684,-2.7725,-3.0697,-3.4677,-3.9498,-3.8531,-3.7453,-3.6391,-3.5802,-3.4913,-3.3631,-3.3711,-3.3098,-3.1431,-3.1827,-2.9246,-2.2936,-2.6373,0.0,0.0,0.0,0.0,0.0,0.0,0.0,0.0,0.0,-0.4769,-0.084,0.0,-1.3962,0.0,-0.7771,-1.2893,-1.6138,-1.8733,0.0,0.0,-2.44,-2.5253,-2.7082,-2.6982,-2.7968,-3.1259,-3.1556,-3.2134,-3.3762,-3.2885,-3.1168,-2.8454,-2.7719,-2.748,-2.7136,-2.2967,-1.9367,-1.8056,-1.5508,-1.3123,-1.227,-1.1701,-1.1277,-1.0404,-0.9279,-0.7319,-0.4427,-0.0763,0.335,0.8094,1.162,1.5211,1.9351,2.1443,2.4101,2.8747,3.16,3.3716,3.5516,3.6329,3.7535,6.3945,6.4503,6.3204,6.2507,6.2218,6.1733,6.1718,6.2007,6.0843,6.0009,5.9244,5.6106,5.2941,4.962,4.6834,4.4095,4.1273,3.8881,3.5923,3.2727,3.1083,2.8306,2.4747,2.1833,1.905,1.6393,1.1707,0.7591,0.3537,-0.829,-1.3745,-1.3124,-2.6255,-2.9075,-2.1636,-1.5866,-1.7099,-2.5448,-3.2144,-3.7464,-4.149,-4.0537,-3.7102,-3.1515,-3.1515,-2.9132,-2.3886,-2.4371,-2.4298,-2.3329,-2.4406,-2.2991,-1.8647,-1.9579,-1.5554,0.0,0.0,0.0,0.0,0.0,0.0,0.0,0.0,0.0,0.0,0.0,-1.6018,-1.0932,-1.4123,-1.7373,-1.9572,-2.0964,-2.2967,-2.5997,-2.5901,-2.6712,-2.9406,-2.9419,-3.0408,-3.3696,-3.4136,-3.4691,-3.5939,-3.4927,-3.3467,-3.2205,-3.0345,-2.8117,-2.5622,-2.246,-1.9613,-1.7559,-1.4458,-1.1865,-1.0365,-1.0389,-1.0521,-1.0334,-0.9813,-0.8506,-0.5336,-0.2171,0.1421,0.6163,0.9926,1.3282,1.6663,1.9456,2.223,2.5183,2.848,3.1637,3.4626,3.5476,3.6441,6.4089,6.4135,6.3978,6.3836,6.355,6.2178,6.2093,6.2756,6.0887,5.9288,5.7759,5.2901,4.9138,4.6129,4.3199,3.9925,3.6672,3.4076,3.1221,2.8208,2.5577,2.2362,1.877,1.4571,1.12,0.8473,0.3412,-0.0775,-0.4635,-1.4971,-2.3478,-3.0074,-3.8281,-3.8493,-3.0521,-1.8455,-1.4792,-1.9915,-3.4358,-4.1565,-4.1016,-3.8674,-3.2435,-2.2456,-2.3169,-1.9669,-1.0854,-1.1171,-1.1848,-1.2344,-1.2623,-1.3211,-1.4071,-0.9435,-0.6577,0.0,-0.1335,0.0,0.0,0.0,0.0,0.0,0.0,0.0,0.0,-1.2692,-1.7103,-1.9122,-1.9824,-2.0925,-2.277,-2.3453,-2.4923,-2.7582,-2.773,-2.8691,-3.1487,-3.2148,-3.3329,-3.6142,-3.7463,-3.8287,-3.8599,-3.7878,-3.6656,-3.4898,-3.155,-2.7887,-2.3783,-2.1302,-1.9206,-1.755,-1.4547,-1.209,-1.0979,-1.0788,-1.0819,-1.0496,-1.0659,-0.9764,-0.6273,-0.3738,-0.0522,0.435,0.8486,1.1706,1.3709,1.7429,2.0472,2.2608,2.6048,2.9865,3.3877,3.4583,3.536,6.4721,6.576,6.4251,6.4273,6.5264,6.3463,6.2314,6.1637,6.0683,5.7702,5.3283,5.0089,4.6765,4.3356,3.984,3.6838,3.4394,3.1162,2.8282,2.5635,2.2981,1.9688,1.6002,1.2176,0.7779,0.3142,-0.1055,-0.7256,-1.549,-2.4393,-2.721,-2.4451,-3.0995,-2.8365,-1.6885,0.0,0.0,0.0,-2.3553,-3.0351,-3.0009,-2.1547,-1.5708,-1.3085,-1.4568,0.0,-1.1181,-1.1868,-1.234,-1.2266,-1.2448,0.0,0.0,0.0,0.0,0.0,0.0,0.0,0.0,0.0,0.0,0.0,-1.0264,-1.127,-1.4836,-1.7065,-1.8652,-1.9703,-2.0958,-2.2542,-2.4502,-2.4701,-2.5834,-2.8457,-2.9515,-3.1108,-3.3922,-3.5679,-3.7144,-3.8399,-3.9865,-4.0478,-3.9839,-3.9359,-3.8259,-3.6029,-3.3308,-3.0167,-2.6495,-2.2911,-1.982,-1.7507,-1.5057,-1.305,-1.2189,-1.2102,-1.1694,-1.0677,-1.0858,-1.0253,-0.764,-0.5149,-0.1811,0.3217,0.6419,1.0132,1.5139,1.6958,1.8587,2.2864,2.5927,2.9146,3.2954,3.3283,3.3834,6.4382,0.0,6.482,6.4953,0.0,6.3776,6.2563,6.167,6.0166,5.6205,5.057,4.7543,4.4152,4.0456,3.7086,3.4007,3.1232,2.8217,2.5473,2.2893,1.9713,1.6229,1.2473,0.8513,0.4249,-0.0132,-0.4188,-1.0599,-1.9533,-2.7846,-3.2028,-3.2355,-3.839,-3.8256,-3.2265,-3.0932,-2.6162,-1.772,-2.9166,-3.5304,-3.5488,-2.904,-2.297,-1.7829,0.0,0.0,0.0,0.0,0.0,0.0,0.0,0.0,0.0,0.0,0.0,-1.3817,-1.1388,-1.0095,-1.0702,-1.4174,-1.5932,-1.4932,-1.5053,-1.5379,-1.5739,-1.7782,-1.9362,-2.0078,-2.2471,-2.4549,-2.5765,-2.6695,-2.8615,-3.1753,-3.2986,-3.503,-3.8554,-4.0188,-4.1292,-4.2342,-4.2848,-4.2796,-4.2188,-4.1182,-3.9623,-3.7456,-3.5244,-3.2525,-2.8783,-2.5172,-2.1659,-1.8273,-1.618,-1.4426,-1.2906,-1.2808,-1.2558,-1.1253,-1.1467,-1.1023,-0.9276,-0.661,-0.3257,0.1426,0.4858,0.8747,1.3556,1.5409,1.7323,2.1478,2.47,2.7723,3.1136,3.2363,3.355,6.4033,6.4831,6.5244,6.5383,6.5199,6.3646,6.2176,6.0718,0.0,0.0,0.0,4.5537,4.189,3.8092,3.4802,3.1701,2.8692,2.5611,2.3018,2.0472,1.6497,1.2722,0.9168,0.5192,0.1331,-0.2523,-0.646,-1.2622,-2.0933,-2.9123,-3.6255,-4.2354,-4.8067,-5.1079,-5.1497,-5.0973,-4.4338,-3.2363,-3.7498,-4.0769,-4.0944,-3.6936,-3.0705,-2.2169,-2.2027,-1.8127,-1.0048,-1.0503,-1.0831,-1.0545,-1.1004,-1.1594,-1.2136,-1.1117,-1.0898,-1.1882,-1.267,-1.3412,-1.4186,-1.7687,-1.9609,-1.9063,-1.9679,-1.8682,-1.5335,-1.8095,-2.0092,-2.0673,-2.413,-2.6435,-2.7004,-2.9161,-3.1916,-3.5381,-3.6852,-3.9243,-4.2979,-4.4347,-4.484,-4.5657,-4.5307,-4.4877,-4.405,-4.2748,-4.1035,-3.8753,-3.6887,-3.4497,-3.0721,-2.6822,-2.314,-2.006,-1.8527,-1.6673,-1.4634,-1.4355,-1.3756,-1.2153,-1.2311,-1.21,-0.9996,-0.7194,-0.3669,0.0526,0.434,0.8566,1.2366,1.5024,1.7317,2.0969,2.3963,2.6927,2.9808,3.2025,3.3601,6.4619,6.5583,6.4984,6.4967,6.5142,6.3276,6.011,5.6156,5.4885,5.1998,4.7835,4.4662,4.1025,3.6955,3.292,3.0316,2.8446,2.3824,2.085,0.0,1.4248,1.0478,0.8104,0.3824,-0.0,-0.3736,-0.7912,-1.4051,-2.2121,-3.0529,-3.7501,-4.2976,-4.8239,-5.0314,-4.9327,-4.9652,-4.8509,-4.5624,-3.5521,-2.9766,-2.8553,-1.9208,-1.3374,-1.159,-1.2932,-1.2407,-1.0394,-1.1555,-1.1198,-0.9555,-1.0839,-1.3025,-1.5987,-1.5256,-1.6123,-1.9396,-1.8806,-1.8002,-1.7757,-1.8803,-1.9597,-1.9957,-2.1081,-2.1003,-1.9613,-2.1181,-2.2469,-2.2589,-2.538,-2.7669,-2.9001,-3.166,-3.4378,-3.6867,-3.9869,-4.2364,-4.372,-4.5896,-4.6859,-4.5731,-4.6313,-4.5972,-4.4176,-4.3189,-4.1781,-3.9478,-3.7669,-3.6117,-3.2547,-2.7362,-2.3821,-2.2883,-2.1885,-2.0473,-1.8539,-1.8415,-1.6926,-1.3259,-1.3837,-1.2975,-0.9033,-0.5864,-0.2344,0.1959,0.64,1.0627,1.407,1.67,1.9611,2.3229,2.6064,2.85,3.082,3.2146,3.283,6.4496,6.5282,6.4666,6.3952,6.3075,5.9815,5.6546,5.3426,5.1508,4.8875,4.5742,4.2861,3.9295,3.5199,3.2034,2.8873,2.5538,2.1811,1.8661,1.5843,1.1519,0.8109,0.5468,0.2261,-0.1317,-0.5192,-0.8566,-1.4521,-2.2541,-2.8752,-3.5629,-4.3249,-4.9139,-5.0079,-4.6587,-4.939,-5.0888,-5.0442,-4.2103,-3.7408,-3.6562,-2.9624,-2.5474,-2.4445,-2.4141,-2.3399,-2.2384,-2.3364,-2.3119,-2.1412,-2.2321,-2.3081,-2.337,-2.2312,-2.2048,-2.2757,-2.1759,-2.0713,-1.9777,-2.0286,-2.0952,-2.1719,-2.3502,-2.4468,-2.4233,-2.3579,-2.3464,-2.3981,-2.6709,-2.9142,-3.0569,-3.3134,-3.5722,-3.8014,-4.0596,-4.2756,-4.447,-4.6314,-4.7463,-4.7179,-4.6661,-4.5947,-4.5049,-4.3703,-4.2074,-3.9728,-3.7749,-3.558,-3.4272,-3.0442,-2.7232,-2.6547,-2.4825,-2.3091,-2.1445,-2.0801,-1.9348,-1.6904,-1.6055,-1.4212,-1.0378,-0.6604,-0.1691,0.3141,0.7584,1.1915,1.5878,1.7736,2.0504,2.4247,2.6565,2.839,2.9855,3.0109,2.9982,6.4502,6.5035,6.4238,6.2697,6.0397,5.617,5.3254,5.1236,4.8426,4.5813,4.3277,4.0759,3.7522,3.386,3.1017,2.7225,2.2952,1.9726,1.6434,1.2755,0.8884,0.5708,0.3196,0.0664,-0.2502,-0.6245,-0.9034,-1.4633,-2.2402,-2.7657,-3.4634,-4.3041,-4.7208,-4.7234,-4.4133,-4.7456,-5.0143,-5.1745,-4.844,-4.6123,-4.5144,-4.1528,-3.8841,-3.7168,-3.5249,-3.3907,-3.2823,-3.3253,-3.2881,-3.1737,-3.2053,-3.1383,-2.9218,-2.7742,-2.6094,-2.4271,-2.3328,-2.2432,-2.1544,-2.1924,-2.2691,-2.3711,-2.5737,-2.7269,-2.7712,-2.6153,-2.53,-2.6238,-2.8525,-3.0621,-3.2432,-3.4473,-3.6792,-3.9369,-4.1171,-4.3146,-4.5223,-4.6886,-4.7972,-4.8365,-4.7054,-4.6142,-4.5625,-4.4137,-4.2175,-4.0295,-3.7413,-3.5612,-3.5569,-3.3694,-3.1808,-3.0217,-2.7732,-2.5353,-2.3957,-2.317,-2.1955,-2.053,-1.8422,-1.5393,-1.1549,-0.6178,-0.0649,0.4852,0.9139,1.2921,1.7118,1.9024,2.0896,2.4386,2.6219,2.7563,2.8417,2.7709,2.7478,6.5118,6.4866,6.3634,6.1108,5.7884,5.4023,5.1345,4.9266,4.6078,4.318,4.0677,3.8452,3.6195,3.345,2.896,2.5493,2.2565,1.7668,1.4148,1.1417,0.6583,0.3415,0.1838,-0.09,-0.3685,-0.6353,-0.906,-1.4316,-2.1989,-2.9857,-3.7018,-4.2246,-3.901,-3.9425,-4.3004,-4.174,-4.44,-5.1766,-4.9783,-4.7119,-4.4111,-4.1568,-3.9257,-3.7284,-3.5257,-3.4039,-3.3754,-3.3028,-3.2319,-3.1825,-3.2168,-3.1734,-3.0111,-2.81,-2.6199,-2.4488,-2.359,-2.3178,-2.326,-2.3345,-2.4096,-2.5806,-2.727,-2.8514,-2.946,-2.9688,-2.9801,-2.9962,-3.0747,-3.2303,-3.4543,-3.6301,-3.8287,-4.0939,-4.2625,-4.4315,-4.5906,-4.848,-4.9498,-4.7827,-4.7539,-4.7136,-4.5693,-4.402,-4.2524,-4.1207,-3.878,-3.701,-3.7194,-3.5942,-3.4629,-3.364,-3.0831,-2.7745,-2.6509,-2.6334,-2.5008,-2.2158,-2.0421,-1.6541,-1.0475,-0.4688,0.0768,0.7694,1.1954,1.4721,1.7163,1.9407,2.2041,2.3686,2.5546,2.697,2.7314,2.6357,2.6252,6.5124,6.4712,6.3465,6.094,5.7547,5.4114,5.1352,4.9,4.5266,4.2331,3.9947,3.627,3.3946,3.2872,2.8645,2.4883,2.1541,1.6914,1.3423,1.0685,0.6171,0.3659,0.272,-0.0385,-0.3315,-0.5958,-0.8952,-1.3026,-1.8384,-2.6056,-3.0134,-3.0597,-3.3615,-3.7437,-4.001,-3.9348,-4.248,-4.9179,-4.4732,-4.203,-4.17,-4.072,-3.9223,-3.7258,-3.4763,-3.3421,-3.3476,-3.3314,-3.2986,-3.2402,-3.2758,-3.2077,-3.0057,-2.9157,-2.7762,-2.6006,-2.4792,-2.4325,-2.4571,-2.4611,-2.5164,-2.6653,-2.8593,-3.013,-3.1134,-3.1716,-3.2418,-3.3297,-3.284,-3.3435,-3.5893,-3.723,-3.8999,-4.1433,-4.2934,-4.4085,-4.5185,-4.7306,-4.8344,-4.7837,-4.7502,-4.7044,-4.5904,-4.3868,-4.1995,-4.0896,-3.914,-3.8026,-3.7273,-3.5917,-3.4845,-3.3858,-3.1251,-2.9713,-2.9242,-2.893,-2.8037,-2.6719,-2.3374,-1.7833,-1.1671,-0.4097,0.2408,1.022,1.3452,1.6122,1.8578,1.9669,2.1431,2.3137,2.4091,2.5101,2.5286,2.4394,2.4115,6.4731,6.4136,6.2534,5.9936,5.6849,5.3982,5.1205,4.8329,4.4433,4.1475,3.8991,3.4593,3.2194,3.0937,2.7741,2.4177,2.0493,1.6701,1.3302,1.0227,0.6929,0.4931,0.3726,0.0765,-0.2281,-0.5157,-0.8206,-1.2303,-1.7313,-2.3454,-2.5388,-2.3967,-2.8856,-3.3229,-3.5891,-3.6835,-4.0026,-4.4377,-3.8974,-3.658,-3.8316,-3.865,-3.8328,-3.7468,-3.4884,-3.3371,-3.3377,-3.3391,-3.3303,-3.3161,-3.3179,-3.2448,-3.0894,-3.0066,-2.9007,-2.7713,-2.6576,-2.6351,-2.6968,-2.6665,-2.7033,-2.852,-3.0192,-3.1691,-3.2843,-3.3583,-3.4612,-3.5911,-3.5147,-3.5407,-3.7394,-3.8385,-3.9772,-4.2032,-4.3094,-4.3871,-4.4908,-4.6621,-4.7925,-4.7925,-4.7851,-4.7135,-4.6046,-4.3761,-4.1576,-4.0388,-3.9237,-3.8056,-3.679,-3.5596,-3.4617,-3.3685,-3.2185,-3.1472,-3.1381,-3.0578,-3.0525,-2.9211,-2.5423,-1.9442,-1.3385,-0.4725,0.3762,1.0706,1.4065,1.6646,1.8499,1.9683,2.0702,2.2306,2.3185,2.3044,2.3135,2.2447,2.2434,6.3924,6.3119,6.0256,5.7575,5.4956,5.2739,4.9949,4.67,4.3308,4.0033,3.6998,3.3888,3.1054,2.8487,2.5666,2.2796,2.0084,1.6721,1.3345,1.0347,0.8951,0.6693,0.3589,0.1996,-0.0493,-0.3733,-0.6414,-1.2784,-2.2648,-2.5391,-2.7001,-2.6893,-2.3053,-2.4295,-3.0916,-3.309,-3.5806,-3.8377,-3.3685,-3.194,-3.4193,-3.4999,-3.6215,-3.755,-3.5878,-3.4352,-3.4086,-3.2915,-3.2827,-3.3941,-3.32,-3.273,-3.2759,-3.0755,-2.9375,-2.9283,-2.9052,-2.9658,-3.0855,-3.0003,-3.0086,-3.1731,-3.2208,-3.3104,-3.4825,-3.548,-3.6306,-3.761,-3.7682,-3.8339,-3.9706,-4.0031,-4.1007,-4.3134,-4.3553,-4.4237,-4.5402,-4.7579,-4.8449,-4.8417,-4.8774,-4.8068,-4.5635,-4.3622,-4.186,-4.039,-3.9108,-3.8056,-3.6989,-3.625,-3.5187,-3.4397,-3.3906,-3.3621,-3.1494,-3.0981,-3.066,-2.9161,-2.5532,-1.9601,-1.172,-0.3827,0.441,1.0907,1.4108,1.642,1.8006,1.936,2.0473,2.1465,2.1575,2.1614,2.2006,2.2285,2.2361,6.2957,6.0994,5.8737,5.6593,5.4535,5.1508,4.8573,4.5508,4.1435,3.8275,3.5543,3.2441,2.9925,2.7773,2.4931,2.193,1.8752,1.724,1.4976,1.2032,1.0544,0.9169,0.7663,0.418,0.1271,-0.1148,-0.4633,-0.9961,-1.6249,-1.8746,-2.016,-2.0972,-2.0299,-2.3207,-2.8432,-2.7339,-2.8522,-3.2727,-2.8673,-2.7449,-3.0148,-3.1109,-3.267,-3.4972,-3.535,-3.6067,-3.7437,-3.5744,-3.4926,-3.5228,-3.4849,-3.4271,-3.3416,-3.2022,-3.1581,-3.2252,-3.1877,-3.2082,-3.3007,-3.2863,-3.318,-3.4474,-3.4321,-3.4722,-3.6122,-3.7253,-3.8308,-3.9165,-4.0424,-4.149,-4.2183,-4.1656,-4.1602,-4.3633,-4.4805,-4.5562,-4.676,-4.8592,-4.982,-4.9605,-4.9562,-4.8456,-4.664,-4.4744,-4.2867,-4.0816,-3.9,-3.7521,-3.6106,-3.4969,-3.3981,-3.2978,-3.2689,-3.2095,-3.0359,-3.1165,-3.117,-2.8887,-2.5085,-1.7877,-1.0299,-0.0826,0.7801,1.17,1.4751,1.6331,1.7786,1.8668,1.9807,2.0803,2.0916,2.1175,2.1352,2.2131,2.2321,6.1149,5.8612,5.703,5.5191,5.3088,4.9909,4.6846,4.3913,3.9712,3.6609,3.4196,3.142,2.8932,2.6399,2.4039,2.0644,1.7161,1.6421,1.5029,1.2934,1.1239,1.027,0.9288,0.6184,0.3381,0.0918,-0.3585,-0.8144,-1.2035,-1.4262,-1.603,-1.7826,-1.8977,-2.2053,-2.5778,-2.3279,-2.3835,-2.6709,-2.4766,-2.43,-2.629,-2.845,-3.0612,-3.2806,-3.5057,-3.6859,-3.8294,-3.7169,-3.6497,-3.6177,-3.5418,-3.4587,-3.3956,-3.3331,-3.3884,-3.5596,-3.5403,-3.5361,-3.5902,-3.5909,-3.6262,-3.7043,-3.6629,-3.6786,-3.8135,-3.9028,-3.9871,-4.1009,-4.1789,-4.3024,-4.3731,-4.2813,-4.2742,-4.4622,-4.5879,-4.6736,-4.7408,-4.9064,-5.0216,-5.05,-5.0003,-4.8923,-4.7441,-4.5762,-4.3499,-4.1026,-3.9135,-3.7495,-3.5426,-3.4385,-3.3189,-3.1982,-3.2286,-3.1203,-2.88,-2.7819,-2.6731,-2.4518,-2.0164,-1.3841,-0.7156,0.2334,0.8522,1.2324,1.4718,1.617,1.7218,1.8088,1.918,2.0341,2.0777,2.1182,2.1685,2.2362,2.2649,5.839,5.6095,5.5016,5.309,5.0499,4.7799,4.4967,4.1842,3.8206,3.52,3.3093,3.0944,2.7759,2.45,2.2595,1.9404,1.5913,1.4344,1.3475,1.2576,1.1279,0.998,0.8915,0.8086,0.5513,0.214,-0.3138,-0.7704,-1.13,-1.3042,-1.5357,-1.794,-1.825,-2.0087,-2.3141,-2.1745,-2.1406,-2.2536,-2.2506,-2.2568,-2.283,-2.7251,-3.04,-3.1958,-3.5065,-3.6638,-3.613,-3.6851,-3.7089,-3.6645,-3.4463,-3.3546,-3.4819,-3.4737,-3.6082,-3.9059,-3.9481,-3.9527,-3.9723,-3.9295,-3.9139,-3.939,-3.8972,-3.9354,-4.0538,-4.0743,-4.1254,-4.2618,-4.2768,-4.288,-4.4138,-4.4093,-4.4373,-4.5987,-4.6568,-4.7137,-4.7886,-4.8993,-5.0171,-5.0963,-5.0624,-4.9595,-4.8195,-4.6399,-4.4082,-4.1385,-3.9426,-3.7599,-3.5126,-3.408,-3.3476,-3.2376,-3.1713,-3.0696,-2.7189,-2.3623,-2.137,-1.8672,-1.3541,-0.7783,-0.2047,0.592,0.8869,1.2243,1.3868,1.5295,1.7392,1.8264,1.9715,2.0698,2.1031,2.186,2.2842,2.3585,2.3522,5.6613,5.426,5.2606,5.0725,4.8503,4.5404,4.2781,4.0503,3.6495,3.3802,3.1944,2.9032,2.6219,2.3756,2.1321,1.8933,1.6581,1.4232,1.2902,1.26,1.2203,1.168,1.0882,0.8355,0.464,0.0665,-0.161,-0.4431,-0.7784,-1.0548,-1.3136,-1.5288,-1.6695,-1.8656,-2.1136,-2.006,-1.9826,-2.1203,-2.2624,-2.3245,-2.3527,-2.7324,-2.9892,-3.0954,-3.4059,-3.5926,-3.6104,-3.6449,-3.6672,-3.6662,-3.4902,-3.523,-3.7552,-3.7265,-3.8809,-4.2751,-4.2202,-4.1674,-4.2075,-4.2087,-4.1987,-4.2157,-4.1939,-4.2037,-4.2646,-4.31,-4.3586,-4.4299,-4.458,-4.5345,-4.6187,-4.6183,-4.6009,-4.6125,-4.6977,-4.8051,-4.9015,-5.0436,-5.1597,-5.1988,-5.1398,-5.05,-4.9289,-4.7342,-4.453,-4.1599,-3.9013,-3.62,-3.4216,-3.2632,-3.1735,-3.1165,-3.0728,-2.7698,-2.1687,-1.4393,-0.8977,-0.6478,-0.2457,-0.1147,0.4099,0.6741,0.9585,1.1507,1.3008,1.4862,1.6947,1.8747,2.0301,2.1797,2.2815,2.3794,2.469,2.4835,2.4479,5.4437,5.1924,5.0032,4.8009,4.5771,4.2317,3.9777,3.791,3.4263,3.2031,3.0661,2.7864,2.56,2.3769,2.1085,1.8704,1.6581,1.4115,1.268,1.2161,1.2033,1.1765,1.0822,0.7495,0.4007,0.08,-0.0679,-0.3001,-0.6494,-0.8864,-1.1563,-1.4318,-1.5618,-1.7445,-1.9826,-1.927,-1.9515,-2.1525,-2.3471,-2.4594,-2.5371,-2.8094,-2.9837,-3.035,-3.3028,-3.4624,-3.5009,-3.5489,-3.6039,-3.5904,-3.417,-3.5169,-3.9352,-3.8504,-3.9944,-4.4406,-4.4573,-4.3497,-4.3638,-4.3733,-4.3999,-4.4154,-4.4193,-4.4421,-4.4661,-4.5261,-4.5419,-4.6102,-4.6316,-4.6862,-4.7535,-4.7476,-4.7037,-4.6613,-4.7671,-4.886,-5.0038,-5.1173,-5.1994,-5.206,-5.1651,-5.0894,-4.9689,-4.7291,-4.46,-4.1851,-3.826,-3.4907,-3.2986,-3.11,-3.0057,-2.8305,-2.6134,-2.1255,-1.4277,-0.5922,0.3028,0.6744,0.9881,0.9116,1.0416,0.9672,1.0752,1.1191,1.246,1.4841,1.699,1.9364,2.1246,2.2765,2.4515,2.4822,2.5293,2.5384,2.4911,5.1768,4.9032,4.7417,4.5213,4.2467,3.8811,3.6508,3.4746,3.1778,3.0363,2.9512,2.7311,2.5538,2.3983,2.1375,1.8506,1.5684,1.4019,1.248,1.1294,1.0877,1.018,0.8435,0.5781,0.3635,0.1886,-0.0136,-0.301,-0.6275,-0.825,-1.0883,-1.4139,-1.4718,-1.6339,-1.8772,-1.9022,-2.028,-2.2967,-2.5044,-2.6282,-2.68,-2.9544,-3.0509,-2.9714,-3.2121,-3.3504,-3.3429,-3.4469,-3.5379,-3.5474,-3.2959,-3.427,-3.8672,-3.8428,-4.099,-4.709,-4.6176,-4.5236,-4.4804,-4.5114,-4.5391,-4.5501,-4.5865,-4.6372,-4.6715,-4.6485,-4.6673,-4.7716,-4.7472,-4.7421,-4.796,-4.7836,-4.755,-4.7539,-4.8319,-4.9487,-5.0622,-5.1192,-5.1795,-5.2054,-5.1615,-5.0947,-5.0011,-4.7062,-4.4328,-4.129,-3.7712,-3.4583,-3.1916,-2.9797,-2.733,-2.5074,-2.2738,-1.5024,-0.8012,0.2795,1.113,1.3953,1.6586,1.5373,1.3194,1.1386,1.0158,1.0726,1.2103,1.4626,1.7535,2.015,2.269,2.4894,2.572,2.5732,2.5754,2.5869,2.5261,4.8938,4.653,4.5758,4.36,4.0308,3.6873,3.4966,3.3931,3.1381,2.9795,2.8747,2.6457,2.4718,2.3279,2.0715,1.812,1.6014,1.4303,1.2685,1.1264,1.0809,0.925,0.7121,0.5156,0.3138,0.1229,-0.0411,-0.2056,-0.397,-0.7493,-1.0082,-1.1854,-1.351,-1.5878,-1.9082,-1.9377,-2.1155,-2.4696,-2.7685,-2.8789,-2.916,-3.1292,-3.2073,-3.0982,-3.2308,-3.3192,-3.3279,-3.4283,-3.4658,-3.4305,-3.4331,-3.6476,-4.1243,-4.2014,-4.4237,-4.8644,-4.8618,-4.7579,-4.725,-4.7187,-4.7224,-4.7206,-4.7538,-4.7878,-4.8149,-4.7833,-4.7764,-4.7954,-4.7636,-4.774,-4.8148,-4.7747,-4.7445,-4.749,-4.7272,-4.851,-5.0098,-5.1838,-5.2543,-5.3046,-5.1917,-5.0941,-4.9217,-4.7558,-4.4403,-4.0982,-3.7338,-3.3817,-3.1191,-2.7669,-2.4963,-2.2703,-1.9153,-1.0126,-0.0728,1.0562,1.7966,2.0366,2.0888,1.9028,1.5277,1.0973,0.9775,0.9017,1.1537,1.4108,1.809,2.1546,2.4096,2.6353,2.6232,2.5943,2.6601,2.6964,2.5594,4.6456,4.4279,4.3148,4.0958,3.8129,3.4991,3.3037,3.2052,3.0497,2.9356,2.8291,2.6094,2.4657,2.3688,2.0919,1.8279,1.6105,1.4969,1.3189,1.1155,1.0213,0.8628,0.66,0.4902,0.302,0.0551,-0.0972,-0.2768,-0.5073,-0.8171,-1.0355,-1.2267,-1.3861,-1.6404,-1.9252,-2.092,-2.2744,-2.6056,-2.8983,-3.0499,-3.0589,-3.2236,-3.2431,-3.1825,-3.2383,-3.3047,-3.3983,-3.4506,-3.4306,-3.3755,-3.3817,-3.63,-4.2036,-4.24,-4.4996,-5.0191,-4.9667,-4.8793,-4.8605,-4.8535,-4.8736,-4.8873,-4.9222,-4.9582,-4.9683,-4.952,-4.9362,-4.964,-4.9137,-4.8839,-4.8585,-4.7897,-4.5546,-4.2185,-4.1302,-4.1831,-4.3981,-4.5067,-4.4288,-4.322,-4.3637,-4.5164,-4.4142,-4.4545,-4.3192,-3.9786,-3.6263,-3.3275,-3.0514,-2.6354,-2.1175,-1.7344,-1.0981,-0.1194,0.6709,1.6781,1.7636,2.03,1.7981,1.738,1.4388,0.949,0.9136,0.8744,1.1118,1.433,1.8797,2.2402,2.4215,2.5605,2.5883,2.6154,2.6619,2.7344,2.6019,4.4377,4.2582,4.0376,3.8287,3.6398,3.3278,3.1446,3.0011,2.934,2.8572,2.7478,2.57,2.4291,2.4416,2.1416,1.8948,1.6205,1.5712,1.357,1.1529,0.9905,0.8381,0.6539,0.4974,0.3057,0.0558,-0.1418,-0.4232,-0.6981,-0.9498,-1.1829,-1.3725,-1.5688,-1.7685,-2.0048,-2.2483,-2.5119,-2.7637,-3.0112,-3.1573,-3.2002,-3.314,-3.3465,-3.2576,-3.3175,-3.4071,-3.4902,-3.5215,-3.4909,-3.4228,-3.2453,-3.5985,-4.165,-4.0473,-4.3437,-4.846,-4.9782,-4.9697,-4.936,-4.9838,-5.006,-5.0402,-5.0893,-5.1269,-5.1281,-5.1191,-5.1326,-5.1683,-5.1287,-5.0483,-4.8678,-4.6819,-3.9258,-3.2935,-2.9233,-2.8657,-2.9768,-3.2689,-3.1954,-2.6269,-3.1407,-3.4011,-3.6759,-3.9096,-4.2125,-3.8782,-3.5501,-3.2871,-2.7767,-2.1298,-1.4705,-0.7801,-0.0094,0.8956,1.5965,2.2952,1.9529,1.7423,1.2648,1.0371,0.9449,0.6873,0.752,0.8846,1.2795,1.6512,2.021,2.2958,2.4553,2.5596,2.6319,2.604,2.5883,2.6762,2.6353,4.3399,4.2154,4.0341,3.8707,3.6926,3.4042,3.1831,3.0372,2.8951,2.7472,2.5512,2.4037,2.2821,2.161,2.1108,1.9335,1.6343,1.587,1.4494,1.1413,1.11,0.9242,0.6923,0.5274,0.3295,0.0862,-0.2325,-0.5101,-0.7821,-1.0995,-1.342,-1.4855,-1.7489,-1.9665,-2.2828,-2.434,-2.6768,-3.011,-3.1996,-3.2753,-3.3386,-3.5075,-3.534,-3.4181,-3.5318,-3.6207,-3.6679,-3.7377,-3.7638,-3.7418,-3.7521,-3.815,-3.9934,-4.3538,-4.6163,-4.7754,-5.0394,-5.1508,-5.1526,-5.1756,-5.2095,-5.2136,-5.2363,-5.2474,-5.2414,-5.245,-5.2584,-5.2792,-5.2734,-5.1438,-4.6346,-3.4452,-2.5959,-1.9928,-1.4463,-0.7581,-0.1411,-0.9149,-1.828,-2.4149,-2.8893,-3.5524,-4.2294,-4.3308,-4.2787,-3.828,-3.4945,-3.2319,-2.5335,-1.7252,-0.895,-0.1313,0.7201,1.4195,1.4475,1.8341,1.4079,1.2356,0.8743,0.831,0.725,0.7616,0.956,1.2179,1.5348,1.8863,2.2336,2.2972,2.4486,2.5622,2.639,2.5609,2.5337,2.6222,2.7373,4.1762,4.117,3.9648,3.8085,3.6518,3.4412,3.2224,3.047,2.9789,2.8034,2.5659,2.4538,2.3187,2.1194,2.0056,1.8062,1.5947,1.4144,1.2659,1.0904,1.0738,1.0102,0.8292,0.5394,0.263,-0.0291,-0.3233,-0.6187,-0.9493,-1.2602,-1.514,-1.7128,-2.0008,-2.2472,-2.5127,-2.6915,-2.8918,-3.0472,-3.2568,-3.3443,-3.3544,-3.5527,-3.7014,-3.6173,-3.7095,-3.7634,-3.779,-3.8148,-3.8277,-3.8391,-3.9089,-3.9512,-3.9344,-4.2913,-4.5493,-4.731,-5.0648,-5.2744,-5.3153,-5.3621,-5.3925,-5.3921,-5.4044,-5.4067,-5.405,-5.4057,-5.4257,-5.4291,-5.2651,-4.8914,-3.4556,-2.4834,-1.3646,-0.5024,0.0905,0.966,1.6674,0.7302,-0.5377,-1.2902,-1.8467,-2.7298,-3.4558,-3.9353,-4.0388,-3.4611,-3.3821,-3.0983,-2.2743,-1.4294,-0.4349,0.4133,1.2814,1.7058,1.434,1.1919,0.6468,0.5665,0.5514,0.7957,1.0591,1.1671,1.3113,1.592,1.8715,2.1234,2.408,2.4415,2.4276,2.4716,2.499,2.4663,2.4937,2.5935,2.74,4.0463,4.0306,3.8895,3.7531,3.6169,3.5097,3.2957,3.058,3.0865,2.9008,2.639,2.5558,2.3462,2.1658,1.9426,1.7152,1.5186,1.2632,1.1286,1.0652,1.0954,1.005,0.8397,0.4726,0.0882,-0.2627,-0.5311,-0.8252,-1.1697,-1.4617,-1.7404,-2.0024,-2.3363,-2.5636,-2.7114,-2.9517,-3.1318,-3.1277,-3.279,-3.3834,-3.3759,-3.5694,-3.7319,-3.8992,-3.9427,-3.9346,-3.9335,-3.9288,-3.8996,-3.8305,-3.8953,-3.9197,-3.962,-4.0647,-4.2258,-4.4865,-4.7902,-4.9816,-5.0912,-5.263,-5.382,-5.4565,-5.541,-5.5562,-5.5621,-5.5324,-5.4539,-5.1528,-4.7773,-3.599,-1.5166,-0.6899,0.0731,1.058,1.8263,2.4414,2.8638,2.0038,1.1685,0.7264,-0.574,-1.9269,-2.4918,-2.9558,-3.0768,-3.1389,-3.0379,-2.7144,-1.8293,-1.0728,-0.0396,0.5284,1.2537,1.1716,0.8715,0.7066,0.1417,0.3222,0.3506,0.8741,1.3723,1.6368,1.7875,1.9467,2.2035,2.4115,2.4844,2.4565,2.4407,2.408,2.3713,2.3597,2.4416,2.5708,2.7642,4.1339,4.093,3.9606,3.864,3.7994,3.6762,3.4462,3.2373,3.1159,2.8602,2.5032,2.379,2.2106,2.0201,1.9813,1.8338,1.5695,1.3325,1.1782,1.115,1.1008,0.9894,0.547,0.1925,-0.1476,-0.4548,-0.7815,-1.1113,-1.3925,-1.7199,-2.0011,-2.2841,-2.5068,-2.7378,-3.0167,-3.1492,-3.2237,-3.2628,-3.3485,-3.3874,-3.4939,-3.705,-3.955,-4.1951,-4.2685,-4.2286,-4.1266,-4.1719,-4.1854,-4.0155,-3.8216,-3.7919,-3.8167,-3.8995,-3.8861,-3.9667,-4.1948,-4.4919,-4.626,-4.8463,-5.0007,-5.1357,-5.3005,-5.5045,-5.5382,-5.4887,-5.0444,-4.2822,-3.2214,-1.8693,-0.7157,0.457,1.9445,3.0723,3.4287,3.6223,3.9654,3.5347,2.9839,2.8042,0.9024,-0.9349,-1.3081,-1.5946,-1.6607,-1.5857,-1.4052,-1.1368,-0.5172,-0.0507,0.4598,0.8115,1.0306,0.6255,0.1217,0.0115,-0.1817,0.3093,0.5708,1.1189,1.5966,2.0434,2.2905,2.3275,2.3803,2.4997,2.527,2.5151,2.5035,2.5068,2.4065,2.2883,2.4719,2.6722,2.9162,4.0647,4.0306,3.8689,3.768,3.6958,3.5484,3.3379,3.1094,3.0066,2.762,2.4574,2.2851,2.1223,1.9276,1.8119,1.6585,1.4629,1.3442,1.1827,1.0995,0.9454,0.6494,0.162,-0.2061,-0.616,-0.9627,-1.2547,-1.3802,-1.523,-1.8304,-2.2082,-2.5794,-2.7857,-3.0641,-3.3152,-3.3426,-3.3431,-3.4077,-3.3948,-3.4144,-3.5176,-3.8109,-4.1211,-4.297,-4.4513,-4.428,-4.2775,-4.1813,-4.1854,-4.0829,-3.8488,-3.7294,-3.655,-3.5411,-3.5157,-3.7479,-4.0107,-4.2742,-4.4096,-4.6436,-4.6689,-4.6849,-4.7857,-4.6936,-4.5877,-4.3456,-4.0014,-2.9692,-1.9493,-0.3964,1.1209,1.8698,2.8164,3.6661,3.9556,4.1525,4.3257,4.0343,4.139,4.2101,2.3125,0.7464,0.1644,-0.0592,-0.17,-0.0493,0.1681,0.4363,0.7452,0.7126,0.7878,0.7482,0.8007,0.4386,0.0345,-0.0118,0.0,0.4142,0.8521,1.3927,1.8158,2.2489,2.4508,2.5385,2.5907,2.6191,2.6797,2.6985,2.6536,2.5975,2.4766,2.429,2.5925,2.7905,3.0851,3.9617,3.9282,3.7314,3.595,3.5057,3.3532,3.1211,2.8977,2.863,2.6508,2.3331,2.2516,2.0995,1.879,1.7214,1.5646,1.3517,1.3465,1.1888,0.9337,0.6601,0.2782,-0.189,-0.696,-1.1129,-1.3274,-1.612,-1.7061,-1.7355,-1.9735,-2.3789,-2.7344,-3.0443,-3.3058,-3.5043,-3.5023,-3.4846,-3.4387,-3.4059,-3.4325,-3.6091,-3.9093,-4.2095,-4.3152,-4.4483,-4.4012,-4.186,-4.088,-4.0182,-3.9386,-3.7836,-3.6249,-3.5233,-3.1803,-3.2355,-3.7548,-4.0473,-4.2205,-4.3357,-4.3817,-4.2625,-4.1188,-3.9958,-3.8293,-3.5583,-3.2849,-2.57,-1.5381,-0.6047,0.4515,1.8978,2.6796,3.0769,3.5187,3.8582,4.056,4.2024,4.2209,4.3399,3.9623,2.9803,2.3338,1.65,1.3998,1.2765,1.087,1.2866,1.1279,1.3165,0.821,0.7346,0.6014,0.4893,0.2539,0.1177,0.2827,0.4493,0.8502,1.2758,1.7708,2.0994,2.4298,2.5899,2.7597,2.7199,2.7448,2.8172,2.8483,2.7851,2.6811,2.5542,2.6282,2.905,3.1527,3.4233,3.8993,3.7862,3.6136,3.4637,3.3311,3.1945,2.97,2.7025,2.7108,2.5718,2.3293,2.2446,2.1114,1.9279,1.8289,1.7893,1.6912,1.4554,1.1653,0.8259,0.4226,-0.0144,-0.4988,-1.1531,-1.3887,-1.5775,-1.8161,-1.9352,-1.9885,-2.1692,-2.4828,-2.8664,-3.0827,-3.3383,-3.6082,-3.5436,-3.5341,-3.4842,-3.4378,-3.5335,-3.7822,-4.0337,-4.2588,-4.3688,-4.3229,-4.135,-3.9495,-3.8379,-3.7631,-3.5998,-3.4714,-3.5008,-3.6119,-3.3225,-3.1944,-3.1996,-3.1625,-3.1052,-3.5171,-3.7756,-3.7475,-3.5502,-3.4851,-3.5138,-3.1475,-2.4493,-1.7616,-1.3644,-0.1981,0.8948,1.9404,2.4876,2.9276,3.321,3.6587,3.891,4.0733,4.1568,4.3195,4.4106,3.641,3.4109,2.9829,2.8461,2.7017,2.5107,2.2898,2.0273,1.8088,1.3042,0.9044,0.8116,0.8626,0.6781,0.7088,0.7959,1.0352,1.404,1.767,2.1613,2.3765,2.6442,2.8556,2.9639,2.9085,2.8849,2.9698,2.9672,2.8896,2.8678,2.8453,3.0501,3.3132,3.5561,3.7843,3.8888,3.777,3.5318,3.4187,3.3539,3.0864,2.8031,2.6042,2.5871,2.5116,2.3483,2.2588,2.0985,1.8889,1.6991,1.5843,1.4736,1.2455,0.9345,0.4988,0.0145,-0.474,-0.8834,-1.4233,-1.7441,-1.8145,-1.9381,-2.1044,-2.2122,-2.3626,-2.6165,-2.9122,-3.0902,-3.3055,-3.5529,-3.4765,-3.4306,-3.4252,-3.4825,-3.6154,-3.802,-4.0045,-4.1424,-4.1619,-4.0947,-3.8868,-3.6387,-3.4461,-3.4275,-3.2985,-3.1315,-3.0257,-3.1211,-2.921,-2.7033,-2.8514,-2.7182,-2.8287,-3.1797,-3.364,-3.2423,-2.9721,-2.8925,-2.7525,-2.4719,-1.7586,-1.1463,-1.0679,0.152,1.0926,1.708,2.313,2.7502,3.1321,3.4405,3.7334,3.9293,4.0019,4.1179,4.2458,4.2096,3.5467,2.9259,2.3984,2.1058,2.1258,1.9164,1.7235,1.7613,1.7562,1.4122,1.1467,1.2708,1.3502,1.4948,1.6251,1.8176,2.1202,2.3258,2.6314,2.6604,2.8562,3.0607,3.096,3.0008,3.022,3.1172,3.0719,2.9829,3.0721,3.1938,3.427,3.6598,3.9564,4.1766,3.898,3.786,3.5028,3.3821,3.3377,2.963,2.6745,2.4976,2.4526,2.4093,2.3216,2.2063,2.0099,1.7729,1.5358,1.3458,1.1824,0.8617,0.5151,0.0437,-0.4631,-0.9053,-1.2537,-1.6847,-1.9857,-2.104,-2.1201,-2.197,-2.2835,-2.4079,-2.5634,-2.8857,-2.979,-3.155,-3.2854,-3.2818,-3.2231,-3.1701,-3.2903,-3.4561,-3.6342,-3.8008,-3.8318,-3.8057,-3.7286,-3.581,-3.2484,-3.0578,-3.0276,-2.9661,-2.8304,-2.7727,-2.8799,-2.726,-2.5805,-2.7081,-2.7056,-2.8464,-3.0451,-3.1216,-2.954,-2.6943,-2.3505,-2.2386,-2.2496,-1.2785,-1.1009,-1.8021,-0.516,0.3954,1.1797,1.8126,2.4801,2.8391,3.1998,3.5178,3.7333,3.6831,3.5651,3.5011,3.2385,2.4957,1.9015,1.4054,1.2998,1.5516,1.5141,1.4348,1.7315,2.1086,2.0082,1.7616,1.9285,2.0952,2.2344,2.4192,2.6277,2.7964,3.0077,3.1285,3.1718,3.1552,3.2347,3.1991,3.1141,3.1373,3.2242,3.1528,3.1025,3.3168,3.5363,3.7467,3.9964,4.3106,4.5388,3.9674,3.7938,3.5479,3.3166,3.1115,2.8128,2.6153,2.4581,2.3166,2.2808,2.2325,2.0349,1.856,1.6865,1.3833,1.1501,0.9753,0.5852,0.1596,-0.3025,-0.7884,-1.1709,-1.4776,-1.7887,-2.0966,-2.2893,-2.2302,-2.1728,-2.2033,-2.198,-2.3804,-2.5786,-2.7258,-2.848,-2.9492,-2.9997,-2.946,-2.9129,-2.9902,-3.1663,-3.3126,-3.4195,-3.4289,-3.4529,-3.2423,-2.975,-2.7318,-2.6347,-2.6232,-2.596,-2.5855,-2.6486,-2.7414,-2.6669,-2.6294,-2.6813,-2.9198,-3.0315,-3.1087,-3.1331,-3.0017,-2.6863,-2.3763,-2.2269,-2.6209,-2.3641,-2.5304,-2.9248,-1.621,-0.6926,0.1069,0.9384,1.9691,2.4763,2.8193,3.12,3.2538,3.1706,3.0356,2.8137,2.0482,0.9379,0.3996,-0.2048,0.2259,0.5119,1.869,1.8621,2.274,2.6098,2.6044,2.5388,2.7112,2.8495,2.9581,3.1478,3.3767,3.4619,3.5787,3.6724,3.7168,3.6651,3.4723,3.3827,3.3261,3.3293,3.3258,3.3208,3.3946,3.6483,3.8682,4.0372,4.3604,4.7309,4.8918,3.9991,3.8443,3.6056,3.4096,3.2581,3.1276,2.8807,2.5787,2.4344,2.2574,2.0922,1.8211,1.5997,1.4071,1.1448,0.8496,0.5835,0.2467,-0.1588,-0.5615,-0.9912,-1.3334,-1.5999,-1.7754,-1.9941,-2.1559,-2.0831,-2.0648,-2.1362,-2.0214,-1.9804,-2.1314,-2.3737,-2.5456,-2.6412,-2.6937,-2.6927,-2.7383,-2.8094,-3.0073,-2.9888,-3.012,-2.9773,-2.9358,-2.6902,-2.5352,-2.4533,-2.309,-2.3412,-2.4215,-2.4601,-2.5687,-2.6935,-2.6842,-2.6875,-2.7272,-3.0258,-3.2116,-3.3506,-3.3712,-3.2661,-2.9283,-2.7084,-2.7997,-3.3449,-3.461,-3.341,-3.1893,-2.5962,-1.5481,-0.0236,0.8446,1.5759,2.0393,2.4181,2.7059,2.6751,2.5362,2.2262,1.878,0.2507,-1.3214,-1.6638,-1.9516,-1.2343,-0.4448,1.0715,2.4108,2.8706,3.1632,3.1849,3.2339,3.3795,3.5026,3.6124,3.8592,4.1187,4.1341,4.1348,4.1141,4.0873,3.8857,3.7155,3.6175,3.532,3.5016,3.5026,3.5379,3.637,3.7813,4.0211,4.2716,4.6614,5.0917,5.1201,4.1214,3.9308,3.7531,3.5731,3.4034,3.2302,2.9957,2.7189,2.4624,2.1893,1.8715,1.6192,1.424,1.1973,0.8737,0.6116,0.304,-0.0289,-0.3614,-0.7071,-1.0525,-1.3551,-1.5343,-1.6932,-1.8759,-1.9817,-1.8916,-1.86,-2.0618,-1.8185,-1.7573,-1.8227,-1.9562,-2.1222,-2.2349,-2.3255,-2.4017,-2.5391,-2.6265,-2.78,-2.745,-2.7077,-2.6205,-2.563,-2.4075,-2.3087,-2.3266,-2.2871,-2.3886,-2.4804,-2.5423,-2.5957,-2.6745,-2.7576,-2.8009,-2.9357,-3.1614,-3.4739,-3.6602,-3.7625,-3.5888,-3.1921,-3.0979,-3.5075,-4.0768,-4.2159,-3.6863,-3.7899,-3.0215,-1.878,-0.3097,0.3275,1.0179,1.5173,1.938,2.1933,1.8637,1.6374,1.2572,0.8358,-1.0566,-2.715,-1.4069,-1.1858,-0.0142,0.7575,1.7925,3.0596,3.6872,3.8956,3.8704,3.9252,3.9981,4.1189,4.246,4.4282,4.589,4.5649,4.544,4.4323,4.339,4.1463,4.0178,3.9618,3.8556,3.7165,3.6983,3.7559,3.7857,3.8337,4.1882,4.6195,4.8323,5.1854,5.1289,4.361,4.0249,4.0111,3.7862,3.4232,3.0282,2.8716,2.7736,2.3704,1.9941,1.6759,1.5044,1.3637,1.1545,0.8198,0.5602,0.2885,-0.1157,-0.4341,-0.663,-0.905,-1.1796,-1.3734,-1.5306,-1.7047,-1.9223,-1.7984,-1.7367,-1.9553,-1.67,-1.5625,-1.5312,-1.5878,-1.6918,-1.7328,-1.7878,-1.9818,-2.2565,-2.2792,-2.4257,-2.5148,-2.4718,-2.3598,-2.3826,-2.3399,-2.2556,-2.314,-2.4763,-2.6007,-2.6603,-2.8091,-2.92,-3.0631,-3.1365,-3.2458,-3.4194,-3.7845,-3.9969,-4.0296,-4.1925,-3.9526,-3.5456,-3.4773,-3.7659,-4.1553,-4.0296,-3.7119,-3.8535,-3.2559,-2.4966,-1.4567,-0.5773,0.1379,0.5943,0.9398,1.2566,0.9066,0.6141,0.2124,-0.4238,-2.2464,-3.4914,-1.5126,0.0831,1.4488,2.3591,2.9548,3.6431,4.3301,4.4293,4.3365,4.3728,4.4162,4.5138,4.6275,4.8983,5.038,5.0138,4.9183,4.7734,4.6487,4.5,4.3907,4.3064,4.2109,4.0988,4.0246,3.9775,4.1527,4.3828,4.6737,5.0137,5.1797,5.1255,4.941,4.501,4.33,3.9611,3.7301,3.5972,3.3386,3.0737,2.7418,2.2903,1.8932,1.6535,1.5751,1.4177,1.1778,1.0463,0.8007,0.503,0.4174,0.1149,-0.328,-0.5971,-0.8203,-1.0426,-1.2704,-1.4675,-1.5482,-1.4932,-1.4932,-1.6459,-1.3832,-1.2477,-1.2075,-1.2266,-1.3632,-1.5989,-1.7719,-1.9957,-2.143,-2.2253,-2.3259,-2.3723,-2.242,-2.2041,-2.3223,-2.2959,-2.3535,-2.4887,-2.7399,-2.8501,-2.9451,-3.1191,-3.2197,-3.3204,-3.3882,-3.4969,-3.682,-3.993,-4.2284,-4.3444,-4.4549,-4.3224,-4.019,-3.9051,-3.9939,-4.1983,-4.1442,-3.9649,-3.6693,-3.22,-2.5605,-1.9221,-1.8541,-1.4454,-1.3003,-0.928,-0.308,-0.3297,-0.5597,-0.9405,-1.7932,-3.2362,-2.2697,-0.6494,0.9303,2.3422,3.5901,4.2277,4.2665,4.7617,4.6856,4.5792,4.655,4.7212,4.8302,4.9844,5.1458,5.2742,5.2708,5.1662,5.0351,4.915,4.8101,4.677,4.5442,4.5195,4.4959,4.4693,4.4954,4.7683,5.0254,5.108,5.1725,5.2565,4.9253,4.4138,4.7304,4.5639,4.118,3.8703,3.7525,3.4421,3.0582,2.6703,2.3126,2.0231,1.8353,1.7978,1.6872,1.4902,1.3805,1.2974,0.9995,0.8396,0.6821,0.2108,-0.1542,-0.4328,-0.7259,-0.9929,-1.2219,-1.2549,-1.1995,-1.1923,-1.2885,-1.025,-0.9029,-0.8834,-0.8679,-1.113,-1.384,-1.6089,-1.8057,-1.9859,-2.1523,-2.24,-2.2828,-2.2762,-2.2892,-2.3817,-2.4698,-2.5922,-2.7902,-2.9717,-3.1258,-3.2706,-3.3725,-3.4642,-3.5425,-3.6065,-3.712,-3.905,-4.1414,-4.3843,-4.5511,-4.4827,-4.2844,-3.9843,-4.1138,-4.1532,-4.053,-3.8491,-3.5906,-3.2931,-2.9895,-2.8319,-2.6185,-2.7019,-2.7417,-2.5615,-2.0712,-1.428,-1.5524,-1.7869,-1.6675,-2.5873,-3.1154,-1.726,0.056,1.6922,3.1511,4.3444,5.461,5.3221,5.1401,5.0035,4.8688,4.8944,4.9517,5.0247,5.1337,5.2699,5.391,5.4968,5.3936,5.2495,5.1789,5.0665,4.918,4.8292,4.8853,4.9328,4.9424,5.0363,5.137,5.1716,5.1715,5.2419,5.3186,4.7518,4.0388,5.0618,4.7663,4.5086,4.2369,3.9053,3.4572,2.9798,2.6002,2.5013,2.3651,2.168,2.1123,2.055,1.9763,1.85,1.7596,1.6333,1.3546,1.0856,0.7774,0.3034,-0.0551,-0.3991,-0.6872,-0.8737,-0.9944,-0.941,-0.7713,-0.897,-0.6405,-0.5258,-0.597,-0.6121,-0.897,-1.1651,-1.454,-1.6695,-1.9592,-2.1293,-2.2209,-2.28,-2.4515,-2.4779,-2.5777,-2.7461,-2.8953,-3.077,-3.2306,-3.3779,-3.4871,-3.5675,-3.7235,-3.8153,-3.836,-3.9765,-4.1557,-4.3451,-4.4638,-4.5294,-4.3818,-4.0881,-3.793,-3.7095,-3.9143,-3.8451,-3.4647,-3.1817,-3.0668,-2.9024,-3.0706,-3.141,-3.3114,-3.4665,-3.1023,-2.6771,-2.587,-2.8171,-2.7639,-2.4424,-2.8963,-3.6527,-2.6197,-0.1133,1.7747,3.7248,4.7192,5.6266,5.776,5.5954,5.4121,5.2679,5.1025,5.1538,5.1891,5.3014,5.4553,5.5013,5.6053,5.5421,5.4219,5.368,5.3003,5.1974,5.1674,5.3032,5.3417,5.2752,5.2733,5.3289,5.3262,5.2324,5.1881,5.2202,4.3526,3.5032,5.3537,5.2102,4.8649,4.6637,4.5353,4.1406,3.7053,3.2738,3.1102,2.9172,2.6536,2.6775,2.5919,2.471,2.4476,2.3257,2.1502,1.8991,1.53,1.1411,0.6918,0.2978,-0.0271,-0.2713,-0.4513,-0.4818,-0.415,-0.3047,-0.2773,-0.1235,-0.1069,-0.1541,-0.437,-0.7622,-1.1346,-1.4769,-1.7595,-1.98,-2.131,-2.226,-2.3291,-2.4754,-2.5594,-2.741,-2.9468,-3.1004,-3.289,-3.5035,-3.6235,-3.5572,-3.7032,-3.7823,-3.5504,-3.5643,-3.6661,-3.9662,-4.1115,-4.2072,-4.2848,-4.0758,-3.7596,-3.4004,-3.1692,-3.157,-3.159,-3.0597,-2.7738,-2.821,-2.9605,-3.1536,-3.583,-3.8718,-4.0895,-3.9661,-3.5175,-3.296,-3.3279,-2.6608,-2.3174,-1.9744,-2.7871,-1.7102,0.652,2.4078,4.2216,5.1202,5.714,5.9304,5.996,5.7898,5.5636,5.3823,5.3808,5.4169,5.5448,5.6905,5.6865,5.6877,5.6201,5.5383,5.4268,5.38,5.409,5.4403,5.4772,5.5132,5.529,5.4958,5.3771,5.3188,5.2336,5.1718,4.922,3.9263,2.6413,5.6127,5.5412,5.2149,5.0424,4.9668,4.7699,4.4627,4.1129,3.7547,3.4236,3.1836,3.2048,3.1407,2.9867,2.9496,2.8674,2.7115,2.3643,2.0153,1.6598,1.0422,0.6539,0.3476,0.1209,-0.0677,-0.0544,0.0409,0.1636,0.2039,0.2395,0.2589,-0.0254,-0.3486,-0.7972,-1.2154,-1.6138,-1.8725,-2.0487,-2.1772,-2.265,-2.3653,-2.494,-2.6964,-2.8173,-3.0269,-3.312,-3.402,-3.6415,-3.6542,-3.5202,-3.6356,-3.6094,-3.4383,-3.4549,-3.4,-3.6287,-3.671,-3.694,-3.6951,-3.5455,-3.2344,-2.9301,-2.6313,-2.5873,-2.6111,-2.5927,-2.6518,-2.7713,-3.0364,-3.3457,-3.919,-4.4372,-4.704,-4.9398,-4.4222,-3.9031,-3.1705,-2.3608,-1.694,-1.0393,-0.4377,0.3735,1.8243,3.4328,4.6035,5.3264,5.8196,6.0608,6.1334,6.0449,5.7862,5.5542,5.5992,5.6593,5.7799,5.8242,5.7737,5.7317,5.6945,5.6041,5.4881,5.4691,5.5082,5.5439,5.5772,5.5985,5.6058,5.4429,5.3198,5.174,4.7099,4.1722,3.7485,3.0913,1.6401,5.7991,5.765,5.5098,5.3266,5.2553,5.1925,5.1041,4.992,4.3478,3.9281,3.7287,3.6874,3.5814,3.4296,3.3241,3.2366,3.0185,2.7001,2.3301,2.1899,1.4474,0.9563,0.6651,0.4659,0.4417,0.3628,0.4026,0.615,0.5721,0.4819,0.2787,-0.0124,-0.4874,-0.9523,-1.4143,-1.6856,-1.9163,-2.0924,-2.1795,-2.2483,-2.3777,-2.6021,-2.8775,-2.8872,-3.2052,-3.5604,-3.4114,-3.4408,-3.5584,-3.4255,-3.2831,-3.2959,-3.1533,-3.2611,-3.1832,-3.1434,-3.1623,-3.1721,-3.1185,-3.0051,-2.6832,-2.4183,-2.1917,-2.1078,-2.1098,-2.2671,-2.4194,-2.5585,-2.7725,-3.2632,-3.815,-3.8515,-4.0071,-3.7615,-3.2226,-2.5501,-1.7361,-0.831,0.1042,0.5819,0.7588,1.6355,2.7879,4.3272,4.9408,5.5631,5.9091,6.1627,6.2043,6.1756,6.0007,5.736,5.7661,5.8125,5.8414,5.8626,5.8036,5.7621,5.7271,5.6486,5.5139,5.5399,5.6103,5.6092,5.5996,5.6274,5.6059,5.335,4.9565,4.5688,3.9831,3.0679,2.439,1.8377,0.6658,5.659,5.6256,5.5101,5.4366,5.4023,5.3347,5.1982,5.049,4.8749,4.5273,4.2229,3.9823,3.8514,3.7761,3.5324,3.3957,3.187,2.8698,2.4797,2.1583,1.6576,1.289,1.0649,1.0221,1.0122,1.0941,1.1165,0.9537,0.7297,0.5149,0.1971,-0.2523,-0.7022,-1.1602,-1.5402,-1.7596,-1.926,-2.1074,-2.1569,-2.2276,-2.3318,-2.4851,-2.6695,-2.7967,-3.0863,-3.2542,-3.2133,-3.3249,-3.3534,-3.2568,-2.8483,-2.5027,-2.1046,-2.5249,-2.6594,-2.5915,-2.5569,-2.5675,-2.5368,-2.4404,-2.2167,-1.9986,-1.8136,-1.686,-1.7064,-1.9431,-2.1249,-2.2756,-2.5515,-3.0846,-3.3621,-3.2358,-2.9324,-2.3808,-1.7207,-0.9096,-0.0975,0.9172,1.9728,2.1079,2.1086,2.8787,3.9975,4.6929,5.2941,5.7101,5.983,6.1804,6.2063,6.1928,6.1352,5.9402,5.9095,5.9352,5.9394,5.8936,5.8305,5.7624,5.7195,5.6319,5.5345,5.5511,5.5772,5.5969,5.6062,5.567,5.3637,4.9497,4.5551,4.1362,3.114,2.1428,0.9573,0.2044,-0.8292,5.5652,5.5147,5.4291,5.3655,5.3011,5.1806,5.0456,4.922,4.7865,4.604,4.4002,4.2357,4.1194,3.9961,3.7143,3.5146,3.3236,2.9416,2.6352,2.3054,1.9328,1.6462,1.5274,1.4879,1.3975,1.4245,1.2098,0.9774,0.7138,0.3264,-0.0833,-0.4822,-0.9085,-1.2947,-1.6257,-1.7759,-1.9341,-2.0952,-2.131,-2.2101,-2.2982,-2.4684,-2.5883,-2.7144,-2.8506,-2.985,-3.0653,-3.1416,-3.1055,-2.724,-2.1329,-1.5797,-1.3479,-1.6129,-1.7456,-1.7265,-1.7369,-1.8542,-1.8376,-1.8148,-1.7336,-1.5298,-1.4599,-1.3394,-1.2902,-1.5101,-1.7158,-1.847,-1.9126,-2.3633,-2.2045,-2.0794,-1.1952,-0.4957,0.66,1.728,2.3985,3.1575,3.8176,4.0543,4.0723,4.2626,5.0875,5.2416,5.7386,5.8165,6.081,6.166,6.1914,6.1928,6.1382,6.0934,6.0326,5.9908,5.9697,5.9176,5.8515,5.7864,5.7154,5.6226,5.541,5.5304,5.5358,5.5362,5.4863,5.3736,5.108,4.6227,4.2226,3.8247,2.5484,1.1634,-0.0579,-1.283,-2.2611,5.3679,5.3135,5.1712,5.0824,5.0083,4.8385,4.7225,4.6162,4.356,4.2566,4.2736,4.3076,4.2436,4.0961,3.8773,3.7275,3.4582,3.0049,2.7323,2.4585,2.0923,1.8518,1.7765,1.777,1.6342,1.3988,1.1502,0.8102,0.4649,0.0943,-0.2929,-0.6995,-1.0647,-1.4285,-1.6247,-1.8218,-2.0081,-2.0573,-2.1081,-2.1896,-2.3207,-2.4625,-2.5229,-2.6364,-2.7418,-2.8426,-2.8636,-2.8624,-2.8156,-1.9778,-1.1654,-0.7014,-0.5968,-0.8093,-0.8723,-0.9006,-0.9552,-0.9837,-0.9713,-1.1398,-1.0727,-1.0101,-1.0437,-1.0219,-0.9627,-1.0065,-1.2185,-1.1814,-1.234,-1.2926,-1.1417,-0.5593,0.3921,1.2721,2.5947,3.8595,4.4694,4.9938,5.2957,5.6062,5.6616,5.6976,5.7742,5.9192,5.9605,6.0321,6.0686,6.1313,6.1713,6.1524,6.1195,6.0925,6.0596,6.0247,5.9865,5.9357,5.8685,5.7946,5.719,5.6226,5.5465,5.5119,5.4825,5.453,5.3815,5.2012,4.7482,4.2277,3.85,3.2746,1.6926,0.1384,-1.0615,-2.2697,-3.428,4.7417,4.6612,4.4189,4.3577,4.409,4.319,4.2048,4.0379,3.7148,3.6878,3.8746,3.8992,3.9232,4.0959,3.8877,3.6848,3.423,3.0064,2.7314,2.4747,2.1853,2.0163,1.8957,1.8224,1.6947,1.4166,1.0865,0.7614,0.3154,-0.0813,-0.4617,-0.871,-1.0658,-1.3458,-1.5593,-1.7412,-1.8617,-1.93,-2.027,-2.096,-2.1296,-2.2636,-2.4024,-2.4812,-2.5476,-2.4553,-2.4065,-2.5053,-1.7577,-0.8238,-0.0625,0.2031,0.1419,-0.1445,-0.2655,-0.2656,-0.3061,-0.3319,-0.3969,-0.5807,-0.5799,-0.6276,-0.6288,-0.576,-0.4881,-0.3661,-0.3539,-0.0,-0.0987,-0.3771,-0.1516,0.8351,1.7817,2.4059,3.4441,4.5866,5.472,5.7505,6.0041,6.1601,6.2432,6.2337,6.2103,6.2411,6.1519,6.1726,6.0893,6.1412,6.1366,6.1158,6.0946,6.0762,6.0628,6.0147,5.959,5.9379,5.878,5.8039,5.7114,5.5996,5.5149,5.4769,5.4396,5.3631,5.1667,4.9575,4.4501,3.9335,2.878,2.0999,0.5618,-0.9037,-2.1063,-3.0493,-4.0048]},{"header":{"parameterUnit":"m.s-1","parameterCategory":1,"la1":31.0,"la2":29.5877,"lo1":-88.7671,"lo2":-86.6584,"dy":0.0162,"dx":0.0185,"nx":115,"ny":88,"refTime":"2023-04-07T12:00:00:Z","depth":0,"parameterNumber":3,"parameterNumberName":"V-component_of_WINDS"},"data":[0.0,0.0,0.0,0.0,0.0,0.0,0.0,0.0,0.0,0.0,0.0,0.0,0.0,0.0,0.0,0.0,0.0,0.0,0.0,0.0,0.0,0.0,0.0,0.0,0.0,0.0,0.0,0.0,0.0,0.0,0.0,0.0,0.0,0.0,0.0,0.0,0.0,0.0,0.0,0.0,0.0,0.0,0.0,0.0,0.0,0.0,0.0,0.0,0.0,0.0,0.0,0.0,0.0,0.0,0.0,0.0,0.0,0.0,0.0,0.0,0.0,0.0,0.0,0.0,0.0,0.0,0.0,0.0,0.0,0.0,0.0,0.0,0.0,0.0,0.0,0.0,0.0,0.0,0.0,0.0,0.0,0.0,0.0,0.0,0.0,0.0,0.0,0.0,0.0,0.0,0.0,0.0,0.0,0.0,0.0,0.0,0.0,0.0,0.0,0.0,0.0,0.0,0.0,0.0,0.0,0.0,0.0,0.0,0.0,0.0,0.0,0.0,0.0,0.0,0.0,0.0,0.0,0.0,0.0,0.0,0.0,0.0,0.0,0.0,0.0,0.0,0.0,0.0,0.0,0.0,0.0,0.0,0.0,0.0,0.0,0.0,0.0,0.0,0.0,0.0,0.0,0.0,0.0,0.0,0.0,0.0,0.0,0.0,0.0,0.0,0.0,0.0,0.0,0.0,0.0,0.0,0.0,0.0,0.0,0.0,0.0,0.0,0.0,0.0,0.0,0.0,0.0,0.0,0.0,0.0,0.0,0.0,0.0,0.0,0.0,0.0,0.0,0.0,0.0,0.0,0.0,0.0,0.0,0.0,0.0,0.0,0.0,0.0,0.0,0.0,0.0,0.0,0.0,0.0,0.0,0.0,0.0,0.0,0.0,0.0,0.0,0.0,0.0,0.0,0.0,0.0,0.0,0.0,0.0,0.0,0.0,0.0,0.0,0.0,0.0,0.0,0.0,0.0,0.0,0.0,0.0,0.0,0.0,0.0,0.0,0.0,0.0,0.0,0.0,0.0,0.0,0.0,0.0,0.0,0.0,0.0,0.0,0.0,0.0,0.0,0.0,0.0,0.0,0.0,0.0,0.0,0.0,0.0,0.0,0.0,0.0,0.0,0.0,0.0,0.0,0.0,0.0,0.0,0.0,0.0,0.0,0.0,0.0,0.0,0.0,0.0,0.0,0.0,0.0,0.0,0.0,0.0,0.0,0.0,0.0,0.0,0.0,0.0,0.0,0.0,0.0,0.0,0.0,0.0,0.0,0.0,0.0,0.0,0.0,0.0,0.0,0.0,0.0,0.0,0.0,0.0,0.0,0.0,0.0,0.0,0.0,0.0,0.0,0.0,0.0,0.0,0.0,0.0,0.0,0.0,0.0,0.0,0.0,0.0,0.0,0.0,0.0,0.0,0.0,0.0,0.0,0.0,0.0,0.0,0.0,0.0,0.0,0.0,0.0,0.0,0.0,0.0,0.0,0.0,0.0,0.0,0.0,0.0,0.0,0.0,0.0,0.0,0.0,0.0,0.0,0.0,0.0,0.0,0.0,0.0,0.0,0.0,0.0,0.0,0.0,0.0,0.0,0.0,0.0,0.0,0.0,0.0,0.0,0.0,0.0,0.0,0.0,0.0,0.0,0.0,0.0,0.0,0.0,0.0,0.0,0.0,0.0,0.0,0.0,0.0,0.0,0.0,0.0,0.0,0.0,0.0,0.0,0.0,0.0,0.0,0.0,0.0,0.0,0.0,0.0,0.0,0.0,0.0,0.0,0.0,0.0,0.0,0.0,0.0,0.0,0.0,0.0,0.0,0.0,0.0,0.0,0.0,0.0,0.0,0.0,0.0,0.0,0.0,0.0,0.0,0.0,0.0,0.0,0.0,0.0,0.0,0.0,0.0,0.0,0.0,0.0,0.0,0.0,0.0,0.0,0.0,0.0,0.0,0.0,0.0,0.0,0.0,0.0,0.0,0.0,0.0,0.0,0.0,0.0,0.0,0.0,0.0,0.0,0.0,0.0,0.0,0.0,0.0,0.0,0.0,0.0,0.0,0.0,0.0,0.0,0.0,0.0,0.0,0.0,0.0,0.0,0.0,0.0,0.0,0.0,0.0,0.0,0.0,0.0,0.0,0.0,0.0,0.0,0.0,0.0,0.0,0.0,0.0,0.0,0.0,0.0,0.0,0.0,0.0,0.0,0.0,0.0,0.0,0.0,0.0,0.0,0.0,0.0,0.0,0.0,0.0,0.0,0.0,0.0,0.0,0.0,0.0,0.0,0.0,0.0,0.0,0.0,0.0,0.0,0.0,0.0,0.0,0.0,0.0,0.0,0.0,0.0,0.0,0.0,0.0,0.0,0.0,0.0,0.0,0.0,0.0,0.0,0.0,0.0,0.0,0.0,0.0,0.0,0.0,0.0,0.0,0.0,0.0,0.0,0.0,0.0,0.0,0.0,0.0,0.0,0.0,0.0,0.0,0.0,0.0,0.0,0.0,0.0,0.0,0.0,0.0,0.0,0.0,0.0,0.0,0.0,0.0,0.0,0.0,0.0,0.0,0.0,0.0,0.0,0.0,0.0,0.0,0.0,0.0,0.0,0.0,0.0,0.0,0.0,0.0,0.0,0.0,0.0,0.0,0.0,0.0,0.0,0.0,0.0,0.0,0.0,0.0,0.0,0.0,0.0,0.0,0.0,0.0,0.0,0.0,0.0,0.0,0.0,0.0,0.0,0.0,0.0,0.0,0.0,0.0,0.0,0.0,0.0,0.0,0.0,0.0,0.0,0.0,0.0,0.0,0.0,0.0,0.0,0.0,0.0,0.0,0.0,0.0,0.0,0.0,0.0,0.0,0.0,0.0,0.0,0.0,0.0,0.0,0.0,0.0,0.0,0.0,0.0,0.0,0.0,0.0,0.0,0.0,0.0,0.0,0.0,0.0,0.0,0.0,0.0,0.0,0.0,0.0,0.0,0.0,0.0,0.0,0.0,0.0,0.0,0.0,0.0,0.0,0.0,0.0,0.0,0.0,0.0,0.0,0.0,0.0,0.0,0.0,0.0,0.0,0.0,0.0,0.0,0.0,0.0,0.0,0.0,0.0,0.0,0.0,0.0,0.0,0.0,0.0,0.0,0.0,0.0,0.0,0.0,0.0,0.0,0.0,0.0,0.0,0.0,0.0,0.0,0.0,0.0,0.0,0.0,0.0,0.0,0.0,0.0,0.0,0.0,0.0,0.0,0.0,0.0,0.0,0.0,0.0,0.0,0.0,0.0,0.0,0.0,0.0,0.0,0.0,0.0,0.0,0.0,0.0,0.0,0.0,0.0,0.0,0.0,0.0,0.0,0.0,0.0,0.0,0.0,0.0,0.0,0.0,0.0,0.0,0.0,0.0,0.0,0.0,0.0,0.0,0.0,0.0,0.0,0.0,0.0,0.0,0.0,0.0,0.0,0.0,0.0,0.0,0.0,0.0,0.0,0.0,0.0,0.0,0.0,0.0,0.0,0.0,0.0,0.0,0.0,0.0,0.0,0.0,0.0,0.0,0.0,0.0,0.0,0.0,0.0,0.0,0.0,0.0,0.0,0.0,0.0,0.0,0.0,0.0,0.0,0.0,0.0,0.0,0.0,0.0,0.0,0.0,0.0,0.0,0.0,0.0,0.0,0.0,0.0,0.0,0.0,0.0,0.0,0.0,0.0,0.0,0.0,0.0,0.0,0.0,0.0,0.0,0.0,0.0,0.0,0.0,0.0,0.0,0.0,0.0,0.0,0.0,0.0,0.0,0.0,0.0,0.0,0.0,0.0,0.0,0.0,0.0,0.0,0.0,0.0,0.0,0.0,0.0,0.0,0.0,0.0,0.0,0.0,0.0,0.0,0.0,0.0,0.0,0.0,0.0,0.0,0.0,0.0,0.0,0.0,0.0,0.0,0.0,0.0,0.0,0.0,0.0,0.0,0.0,0.0,0.0,0.0,0.0,0.0,0.0,0.0,0.0,0.0,0.0,0.0,0.0,0.0,0.0,0.0,0.0,0.0,0.0,0.0,0.0,0.0,0.0,0.0,0.0,0.0,0.0,0.0,0.0,0.0,0.0,0.0,0.0,0.0,0.0,0.0,0.0,0.0,0.0,0.0,0.0,0.0,0.0,0.0,0.0,0.0,0.0,0.0,0.0,0.0,0.0,0.0,0.0,0.0,0.0,0.0,0.0,0.0,0.0,0.0,0.0,0.0,0.0,0.0,0.0,0.0,0.0,0.0,0.0,0.0,0.0,0.0,0.0,0.0,0.0,1.3301,0.0,0.0,0.0,0.0,0.0,0.0,0.0,0.0,0.0,0.0,0.0,0.0,0.0,0.0,0.0,0.0,0.0,0.0,0.0,0.0,0.0,0.0,0.0,0.0,0.0,0.0,0.0,0.0,0.0,0.0,0.0,0.0,0.0,0.0,0.0,0.0,0.0,0.0,0.0,0.0,0.0,0.0,0.0,0.0,0.0,0.0,0.0,0.0,0.0,0.0,0.0,0.0,0.0,0.0,0.0,0.0,0.0,0.0,0.0,0.0,0.0,0.0,0.0,0.0,0.0,0.0,0.0,0.0,0.0,0.0,0.0,0.0,0.0,0.0,0.0,0.0,0.0,0.0,0.0,0.0,0.0,0.0,0.0,0.0,0.0,0.0,0.0,0.0,0.0,0.0,0.0,0.0,0.0,0.0,0.0,0.0,0.0,0.0,0.0,0.0,0.0,0.0,0.0,0.0,0.0,0.0,0.0,0.0,0.0,0.0,1.4231,1.4821,1.1903,1.141,1.3717,0.0,0.0,0.0,0.0,0.0,0.0,0.0,0.0,0.0,0.0,0.0,0.0,0.0,0.0,0.0,0.0,0.0,0.0,0.0,0.0,0.0,0.0,0.0,0.0,0.0,0.0,0.0,0.0,0.0,0.0,0.0,0.0,0.0,0.0,0.0,0.0,0.0,0.0,0.0,0.0,0.0,0.0,0.0,0.0,0.0,0.0,0.0,0.0,0.0,0.0,0.0,0.0,0.0,0.0,0.0,0.0,0.0,0.0,0.0,0.0,0.0,0.0,0.0,0.0,0.0,0.0,0.0,0.0,0.0,0.0,0.0,0.0,0.0,0.0,0.0,0.0,0.0,0.0,0.0,0.0,0.0,0.0,0.0,0.0,0.0,0.0,0.0,0.0,0.0,0.0,0.0,0.0,0.0,0.0,0.0,0.0,0.0,0.0,0.0,0.0,0.0,0.0,0.0,0.0,0.0,0.0,0.0,0.0,0.0,0.0,0.0,0.0,1.2241,1.1829,1.3143,0.0,0.0,0.0,0.0,0.0,0.0,0.0,0.0,0.0,0.0,0.0,0.0,0.0,0.0,0.0,0.0,0.0,0.0,0.0,0.0,0.0,0.0,0.0,0.0,0.0,0.0,0.0,0.0,0.0,0.0,0.0,0.0,0.0,0.0,0.0,0.0,0.0,0.0,0.0,0.0,0.0,0.0,0.0,0.0,0.0,0.0,0.0,0.0,0.0,0.0,0.0,0.0,0.0,0.0,0.0,0.0,0.0,0.0,0.0,0.0,0.0,0.0,0.0,0.0,0.0,0.0,0.0,0.0,0.0,0.0,0.0,0.0,0.0,0.0,0.0,0.0,0.0,0.0,0.0,0.0,0.0,0.0,0.0,0.0,0.0,0.0,0.0,0.0,0.0,0.0,0.0,0.0,0.0,0.0,0.0,0.0,0.0,0.0,0.0,0.0,0.0,0.0,0.0,0.0,0.0,0.0,0.0,0.0,0.0,0.0,1.4648,1.3141,1.193,0.0,1.1234,0.0,0.0,0.0,0.0,0.0,0.0,0.0,0.0,0.0,0.0,0.0,0.0,0.0,0.0,0.0,0.0,0.0,0.0,0.0,0.0,0.0,0.0,0.0,0.0,0.0,0.0,0.0,0.0,0.0,0.0,0.0,0.0,0.0,0.0,0.0,0.0,0.0,0.0,0.0,0.0,0.0,0.0,0.0,0.0,0.0,0.0,0.0,0.0,0.0,0.0,0.0,0.0,0.0,0.0,0.0,0.0,0.0,0.0,0.0,0.0,0.0,0.0,0.0,0.0,0.0,0.0,0.0,0.0,0.0,0.0,0.0,0.0,0.0,0.0,0.0,0.0,0.0,0.0,0.0,0.0,0.0,0.0,0.0,0.0,0.0,0.0,0.0,0.0,0.0,0.0,0.0,0.0,0.0,0.0,0.0,0.0,0.0,0.0,0.0,0.0,0.0,0.0,0.0,0.0,0.0,0.0,0.0,0.0,0.0,0.0,1.1971,1.153,1.0609,1.0712,0.0,0.0,0.0,0.0,0.0,0.0,0.0,0.0,0.0,0.0,0.0,0.0,0.0,0.0,0.0,0.0,0.0,0.0,0.0,0.0,0.0,0.0,0.0,0.0,0.0,0.0,0.0,0.0,0.0,0.0,0.0,0.0,0.0,0.0,0.0,0.0,0.0,0.0,0.0,0.0,0.0,0.0,0.0,0.0,0.0,0.0,0.0,0.0,0.0,0.0,0.0,0.0,0.0,0.0,0.0,0.0,0.0,0.0,0.0,0.0,0.0,0.0,0.0,0.0,0.0,0.0,0.0,0.0,0.0,0.0,0.0,0.0,0.0,0.0,0.0,0.0,0.0,0.0,0.0,0.0,0.0,0.0,0.0,0.0,0.0,0.0,0.0,0.0,0.0,0.0,0.0,0.0,0.0,0.0,0.0,0.0,0.0,0.0,0.0,0.0,0.0,0.0,0.0,0.0,0.0,0.0,0.0,0.0,0.0,0.0,1.2219,1.0392,0.9193,0.9956,1.0966,1.2209,0.0,0.0,0.0,0.0,0.0,0.0,0.0,0.0,0.0,0.0,0.0,0.0,0.0,0.0,0.0,0.0,0.0,0.0,0.0,0.0,0.0,0.0,0.0,0.0,0.0,0.0,0.0,0.0,0.0,0.0,0.0,0.0,0.0,0.0,0.0,0.0,0.0,0.0,0.0,0.0,0.0,0.0,0.0,0.0,0.0,0.0,0.0,0.0,0.0,0.0,0.0,0.0,0.0,0.0,0.0,0.0,0.0,0.0,0.0,0.0,0.0,0.0,0.0,0.0,0.0,0.0,0.0,0.0,0.0,0.0,0.0,0.0,0.0,0.0,0.0,0.0,0.0,0.0,0.0,0.0,0.0,0.0,0.0,0.0,0.0,0.0,0.0,0.0,0.0,0.0,0.0,0.0,0.0,0.0,0.0,0.0,0.0,0.0,0.0,0.0,0.0,0.0,0.0,0.0,0.0,0.0,0.0,0.0,1.0506,1.2806,1.1352,0.5676,1.0385,1.233,0.0,0.0,0.0,0.0,0.0,0.0,0.0,0.0,0.0,0.0,0.0,0.0,0.0,0.0,0.0,0.0,0.0,0.0,0.0,0.0,0.0,0.0,0.0,0.0,0.0,0.0,0.0,0.0,0.0,0.0,0.0,0.0,0.0,0.0,0.0,0.0,0.0,0.0,0.0,0.0,0.0,0.0,0.0,0.0,0.0,0.0,0.0,0.0,0.0,0.0,0.0,0.0,0.0,0.0,0.0,0.0,0.0,0.0,0.0,0.0,0.0,0.0,0.0,0.0,0.0,0.0,0.0,0.0,0.0,0.0,0.0,0.0,0.0,0.0,0.0,0.0,0.0,0.0,0.0,0.0,0.0,0.0,0.0,0.0,0.0,0.0,0.0,0.0,0.0,0.0,0.0,0.0,0.0,0.0,0.0,0.0,0.0,0.0,0.0,0.0,0.0,0.0,0.0,0.0,0.0,0.0,0.0,0.0,0.0,1.2647,0.94,0.5428,0.105,0.4724,0.6294,0.0,0.0,0.0,0.0,0.0,0.0,0.0,0.0,0.0,0.0,0.0,0.0,0.0,0.0,0.0,0.0,0.0,0.0,0.0,0.0,0.0,0.0,0.0,0.0,0.0,0.0,0.0,0.0,0.0,0.0,0.0,0.0,0.0,0.0,0.0,0.0,0.0,0.0,0.0,0.0,0.0,0.0,0.0,0.0,0.0,0.0,0.0,0.0,0.0,0.0,0.0,0.0,0.0,0.0,0.0,0.0,0.0,0.0,0.0,0.0,0.0,0.0,0.0,0.0,0.0,0.0,0.0,0.0,0.0,0.0,0.0,0.0,0.0,0.0,0.0,0.0,0.0,0.0,0.0,0.0,0.0,0.0,0.0,0.0,0.0,0.0,0.0,0.0,0.0,0.0,0.0,0.0,0.0,0.0,0.0,0.0,0.0,0.0,0.0,0.0,0.0,0.0,0.0,0.0,0.0,0.0,0.0,0.0,0.0,1.0625,0.0,-0.1051,-0.4209,0.0382,0.2822,0.0,0.0,0.0,0.0,0.0,0.0,0.0,0.0,0.0,0.0,0.0,0.0,0.0,0.0,0.0,0.0,0.0,0.0,0.0,0.0,0.0,0.0,0.0,0.0,0.0,0.0,0.0,0.0,0.0,0.0,0.0,0.0,0.0,0.0,0.0,0.0,0.0,0.0,0.0,0.0,0.0,0.0,0.0,0.0,0.0,0.0,0.0,0.0,0.0,0.0,0.0,0.0,0.0,0.0,0.0,0.0,0.0,0.0,0.0,0.0,0.0,0.0,0.0,0.0,0.0,0.0,0.0,0.0,0.0,0.0,0.0,0.0,0.0,0.0,0.0,0.0,0.0,0.0,0.0,0.0,0.0,0.0,0.0,0.0,0.0,0.0,0.0,0.0,0.0,0.0,0.0,0.0,0.0,0.0,0.0,0.0,0.0,0.0,0.0,0.0,0.0,0.0,0.0,0.0,0.0,0.0,0.0,0.0,1.0373,0.352,-0.2646,-0.723,-0.9965,-0.2137,0.2433,0.0,0.0,0.0,0.0,0.0,0.0,0.0,0.0,0.0,0.0,0.0,0.0,0.0,0.0,0.0,0.0,0.0,0.0,0.0,0.0,0.0,0.0,0.0,0.0,0.0,0.0,0.0,0.0,0.0,0.0,0.0,0.0,0.0,0.0,0.0,0.0,0.0,0.0,0.0,0.0,0.0,0.0,0.0,0.0,0.0,0.0,0.0,0.0,0.0,0.0,0.0,0.0,0.0,0.0,0.0,0.0,0.0,0.0,0.0,0.0,0.0,0.0,0.0,0.0,0.0,0.0,0.0,0.0,0.0,0.0,0.0,0.0,0.0,0.0,0.0,0.0,0.0,0.0,0.0,0.0,0.0,0.0,0.0,0.0,0.0,0.0,0.0,0.0,0.0,0.0,0.0,0.0,0.0,0.0,0.0,0.0,0.0,0.0,0.0,0.0,0.0,0.0,0.0,0.0,0.0,0.0,0.0,0.0,0.0,0.2596,-0.5276,-1.1733,-1.594,-0.6866,-0.2836,0.0,0.0,0.0,0.0,0.0,0.0,0.0,0.0,0.0,0.0,0.0,0.0,0.0,0.0,0.0,0.0,0.0,0.0,0.0,0.0,0.0,0.0,0.0,0.0,0.0,0.0,0.0,0.0,0.0,0.0,0.0,0.0,0.0,0.0,0.0,0.0,0.0,0.0,0.0,0.0,0.0,0.0,0.0,0.0,0.0,0.0,0.0,0.0,0.0,0.0,0.0,0.0,0.0,0.0,0.0,0.0,0.0,0.0,0.0,0.0,0.0,0.0,0.0,0.0,0.0,0.0,0.0,0.0,0.0,0.0,0.0,0.0,0.0,0.0,0.0,0.0,0.0,0.0,0.0,0.0,0.0,0.0,0.0,0.0,0.0,0.0,0.0,0.0,0.0,0.0,0.0,0.0,0.0,0.0,0.0,0.0,0.0,0.0,0.0,0.0,0.0,0.0,0.0,0.0,0.0,0.0,0.0,0.0,0.0,0.2693,-0.5018,-1.1218,-1.5421,-0.5281,-0.2516,-0.7968,0.0,0.0,0.0,0.0,0.0,0.0,0.0,0.0,0.0,0.0,0.0,0.0,0.0,0.0,0.0,0.0,0.0,0.0,0.0,0.0,0.0,0.0,0.0,0.0,0.0,0.0,0.0,0.0,0.0,0.0,0.0,0.0,0.0,0.0,0.0,0.0,0.0,0.0,0.0,0.0,0.0,0.0,0.0,0.0,0.0,0.0,0.0,0.0,0.0,0.0,0.0,0.0,0.0,0.0,0.0,0.0,0.0,0.0,0.0,0.0,0.0,0.0,0.0,0.0,0.0,0.0,0.0,0.0,0.0,0.0,0.0,0.0,0.0,0.0,0.0,0.0,0.0,0.0,0.0,0.0,0.0,0.0,0.0,0.0,0.0,0.0,0.0,0.0,0.0,0.0,0.0,0.0,0.0,0.0,0.0,0.0,0.0,0.0,0.0,0.0,0.0,0.0,0.0,0.0,0.0,0.0,0.0,0.0,0.478,-0.1376,-0.5609,-0.7935,0.1586,0.2643,0.0,0.0,0.0,0.0,0.0,0.0,0.0,0.0,0.0,0.0,0.0,0.0,0.0,0.0,0.0,0.0,0.0,0.0,0.0,0.0,0.0,0.0,0.0,0.0,0.0,0.0,0.0,0.0,0.0,0.0,0.0,0.0,0.0,0.0,0.0,0.0,0.0,0.0,0.0,0.0,0.0,0.0,0.0,0.0,0.0,0.0,0.0,0.0,0.0,0.0,0.0,0.0,0.0,0.0,0.0,0.0,0.0,0.0,0.0,0.0,0.0,0.0,0.0,0.0,0.0,0.0,0.0,0.0,0.0,0.0,0.0,0.0,0.0,0.0,0.0,0.0,0.0,0.0,0.0,0.0,0.0,0.0,0.0,0.0,0.0,0.0,0.0,0.0,0.0,0.0,0.0,0.0,0.0,0.0,0.0,0.0,0.0,0.0,0.0,0.0,0.0,0.0,0.0,0.0,0.0,0.0,0.0,0.0,0.0,1.5839,1.5797,1.1339,0.239,0.6282,0.7199,0.0,0.0,0.0,0.0,0.0,0.0,0.0,0.0,0.0,0.0,0.0,0.0,0.0,0.0,0.0,0.0,0.0,0.0,0.0,0.0,0.0,0.0,0.0,0.0,0.0,0.0,0.0,0.0,0.0,0.0,0.0,0.0,0.0,0.0,0.0,0.0,0.0,0.0,0.0,0.0,0.0,0.0,0.0,0.0,0.0,0.0,0.0,0.0,0.0,0.0,0.0,0.0,0.0,0.0,0.0,0.0,0.0,0.0,0.0,0.0,0.0,0.0,0.0,0.0,0.0,0.0,0.0,0.0,0.0,0.0,0.0,0.0,0.0,0.0,0.0,0.0,0.0,0.0,0.0,0.0,0.0,0.0,0.0,0.0,0.0,0.0,0.0,0.0,0.0,0.0,0.0,0.0,0.0,0.0,0.0,0.0,0.0,0.0,0.0,0.0,0.0,0.0,0.0,0.0,0.0,0.0,0.0,0.0,1.9356,1.8915,2.757,2.8824,2.1895,1.4699,1.0205,0.0,0.0,0.0,0.0,0.0,0.0,0.0,0.0,0.0,0.0,0.0,0.0,0.0,0.0,0.0,0.0,0.0,0.0,0.0,0.0,0.0,0.0,0.0,0.0,0.0,0.0,0.0,0.0,0.0,0.0,0.0,0.0,0.0,0.0,0.0,0.0,0.0,0.0,0.0,0.0,0.0,0.0,0.0,0.0,0.0,0.0,0.0,0.0,0.0,0.0,0.0,0.0,0.0,0.0,0.0,0.0,0.0,0.0,0.0,0.0,0.0,0.0,0.0,0.0,0.0,0.0,0.0,0.0,0.0,0.0,0.0,0.0,0.0,0.0,0.0,0.0,0.0,0.0,0.0,0.0,0.0,0.0,0.0,0.0,0.0,0.0,0.0,0.0,0.0,0.0,0.0,0.0,0.0,0.0,0.0,0.0,0.0,0.0,0.0,0.0,0.0,0.0,0.0,0.0,0.0,0.0,0.0,0.0,2.6195,1.8635,3.5259,4.4087,4.3362,2.4258,1.2915,0.0,0.0,0.0,0.0,0.0,0.0,0.0,0.0,0.0,0.0,0.0,0.0,0.0,0.0,0.0,0.0,0.0,0.0,0.0,0.0,0.0,0.0,0.0,0.0,0.0,0.0,0.0,0.0,0.0,0.0,0.0,0.0,0.0,0.0,0.0,0.0,0.0,0.0,0.0,0.0,0.0,0.0,0.0,0.0,0.0,0.0,0.0,0.0,0.0,0.0,0.0,0.0,0.0,0.0,0.0,0.0,0.0,0.0,0.0,0.0,0.0,0.0,0.0,0.0,0.0,0.0,0.0,0.0,0.0,0.0,0.0,0.0,0.0,0.0,0.0,0.0,0.0,0.0,0.0,0.0,0.0,0.0,0.0,0.0,0.0,0.0,0.0,0.0,0.0,0.0,0.0,0.0,0.0,0.0,0.0,0.0,0.0,0.0,0.0,0.0,0.0,0.0,0.0,0.0,0.0,0.0,0.0,0.0,3.0177,2.8562,3.892,4.4466,4.4313,2.6829,1.943,0.0,0.0,0.0,0.0,0.0,0.0,0.0,0.0,0.0,0.0,0.0,0.0,0.0,0.0,0.0,0.0,0.0,0.0,0.0,0.0,0.0,0.0,0.0,0.0,0.0,0.0,0.0,0.0,0.0,0.0,0.0,0.0,0.0,0.0,0.0,0.0,0.0,0.0,0.0,0.0,0.0,0.0,0.0,0.0,0.0,0.0,0.0,0.0,2.6428,0.0,0.0,0.0,0.0,0.0,0.0,0.0,0.0,0.0,0.0,0.0,0.0,0.0,0.0,0.0,0.0,0.0,0.0,0.0,0.0,0.0,0.0,0.0,0.0,0.0,0.0,0.0,0.0,0.0,0.0,0.0,0.0,0.0,0.0,0.0,0.0,0.0,0.0,0.0,0.0,0.0,0.0,0.0,0.0,0.0,0.0,0.0,0.0,0.0,0.0,0.0,0.0,0.0,0.0,0.0,0.0,0.0,0.0,0.0,2.9237,3.0668,3.9926,4.4677,4.3579,2.9466,2.3935,0.0,0.0,0.0,0.0,0.0,0.0,0.0,0.0,0.0,0.0,0.0,0.0,0.0,0.0,0.0,0.0,0.0,0.0,0.0,0.0,0.0,0.0,0.0,0.0,0.0,0.0,0.0,0.0,0.0,0.0,0.0,0.0,0.0,0.0,0.0,0.0,0.0,0.0,0.0,0.0,0.0,0.0,0.0,0.0,0.0,0.0,0.0,0.0,0.0,0.0,0.0,0.0,0.0,0.0,0.0,0.0,0.0,0.0,0.0,0.0,0.0,0.0,0.0,0.0,0.0,0.0,0.0,0.0,0.0,0.0,0.0,0.0,0.0,0.0,0.0,0.0,0.0,0.0,0.0,0.0,0.0,0.0,0.0,0.0,0.0,0.0,0.0,0.0,0.0,0.0,0.0,0.0,0.0,0.0,0.0,0.0,0.0,0.0,0.0,0.0,0.0,0.0,0.0,0.0,0.0,0.0,0.0,2.3666,2.8283,3.1888,4.0453,4.4507,4.3502,3.1433,2.6719,3.0292,0.0,0.0,0.0,0.0,0.0,0.0,0.0,0.0,0.0,0.0,0.0,0.0,0.0,0.0,0.0,0.0,0.0,0.0,0.0,0.0,0.0,0.0,0.0,0.0,0.0,0.0,0.0,0.0,0.0,0.0,0.0,0.0,0.0,0.0,0.0,0.0,0.0,0.0,2.1591,2.3927,0.0,0.0,0.0,0.0,0.0,0.0,0.0,0.0,2.7606,0.0,0.0,0.0,0.0,0.0,0.0,0.0,0.0,0.0,0.0,0.0,0.0,0.0,0.0,0.0,0.0,0.0,0.0,0.0,0.0,0.0,0.0,0.0,0.0,0.0,0.0,0.0,0.0,0.0,0.0,0.0,0.0,0.0,0.0,0.0,0.0,0.0,0.0,0.0,0.0,0.0,0.0,0.0,0.0,0.0,0.0,0.0,0.0,0.0,0.0,0.0,0.0,0.0,0.0,0.0,0.0,2.8942,3.0067,3.4178,4.1603,4.3124,4.405,4.3795,3.0941,2.6704,3.2069,0.0,0.0,0.0,0.0,0.0,0.0,0.0,0.0,0.0,0.0,0.0,0.0,0.0,0.0,0.0,0.0,0.0,0.0,0.0,0.0,0.0,0.0,0.0,0.0,0.0,0.0,0.0,0.0,0.0,0.0,0.0,0.0,0.0,0.0,0.0,0.0,0.0,0.0,0.0,2.8818,2.9412,0.0,0.0,0.0,0.0,0.0,0.0,0.0,0.0,2.8252,0.0,0.0,0.0,0.0,0.0,0.0,0.0,0.0,0.0,0.0,0.0,0.0,0.0,0.0,0.0,0.0,0.0,0.0,0.0,0.0,0.0,0.0,0.0,0.0,0.0,0.0,0.0,0.0,0.0,0.0,0.0,0.0,0.0,0.0,0.0,0.0,0.0,0.0,0.0,0.0,0.0,0.0,0.0,0.0,0.0,0.0,0.0,0.0,0.0,0.0,0.0,0.0,0.0,0.0,0.0,3.0019,2.9521,3.2777,4.0602,4.1439,4.1751,4.1454,2.8978,2.5957,0.0,0.0,0.0,0.0,0.0,0.0,0.0,0.0,0.0,0.0,0.0,0.0,0.0,0.0,0.0,0.0,0.0,0.0,0.0,0.0,0.0,0.0,0.0,0.0,0.0,0.0,0.0,0.0,0.0,0.0,0.0,0.0,0.0,0.0,0.0,0.0,0.0,0.0,0.0,0.0,2.9889,3.1242,3.4054,0.0,0.0,0.0,0.0,0.0,0.0,2.8419,2.8046,0.0,0.0,0.0,0.0,0.0,0.0,0.0,0.0,0.0,0.0,0.0,0.0,0.0,0.0,0.0,0.0,0.0,0.0,0.0,0.0,0.0,0.0,0.0,0.0,0.0,0.0,0.0,0.0,0.0,0.0,0.0,0.0,0.0,0.0,0.0,0.0,0.0,0.0,0.0,0.0,0.0,0.0,0.0,0.0,0.0,0.0,0.0,0.0,0.0,0.0,0.0,0.0,0.0,0.0,0.0,2.9145,2.8153,3.0779,3.7569,3.8712,3.9149,3.8852,2.6824,2.484,0.0,0.0,0.0,0.0,0.0,0.0,0.0,0.0,0.0,0.0,0.0,0.0,0.0,0.0,0.0,0.0,0.0,0.0,0.0,0.0,0.0,0.0,0.0,0.0,0.0,0.0,0.0,0.0,0.0,0.0,0.0,0.0,0.0,0.0,0.0,0.0,0.0,0.0,0.0,0.0,0.0,3.28,3.5828,3.4672,0.0,0.0,0.0,0.0,3.1639,3.1189,0.0,0.0,0.0,0.0,0.0,0.0,0.0,0.0,0.0,0.0,0.0,0.0,0.0,0.0,0.0,0.0,0.0,0.0,0.0,0.0,0.0,0.0,0.0,0.0,0.0,0.0,0.0,0.0,0.0,0.0,0.0,0.0,0.0,0.0,0.0,0.0,0.0,0.0,0.0,0.0,0.0,0.0,0.0,0.0,0.0,0.0,0.0,0.0,0.0,0.0,0.0,0.0,0.0,0.0,0.0,0.0,2.8824,2.9724,3.2654,3.7646,3.6909,3.7081,3.826,2.5254,2.3288,0.0,0.0,0.0,0.0,0.0,0.0,0.0,0.0,0.0,0.0,0.0,0.0,0.0,0.0,0.0,0.0,0.0,0.0,0.0,0.0,0.0,0.0,0.0,0.0,0.0,0.0,0.0,0.0,0.0,0.0,0.0,0.0,0.0,0.0,0.0,0.0,0.0,0.0,0.0,0.0,0.0,3.5138,3.4713,3.3659,3.3831,0.0,0.0,3.3774,4.0103,4.2507,0.0,0.0,0.0,0.0,0.0,0.0,0.0,0.0,0.0,0.0,0.0,0.0,0.0,0.0,0.0,0.0,0.0,0.0,0.0,0.0,0.0,0.0,0.0,0.0,0.0,0.0,0.0,0.0,0.0,0.0,0.0,0.0,0.0,0.0,0.0,0.0,0.0,0.0,0.0,0.0,0.0,0.0,0.0,0.0,0.0,0.0,0.0,0.0,0.0,0.0,0.0,0.0,0.0,0.0,0.0,2.3466,2.6709,2.954,3.2168,3.4583,3.5102,3.6341,3.8215,2.368,2.2317,0.0,0.0,0.0,0.0,0.0,0.0,0.0,0.0,0.0,0.0,0.0,0.0,0.0,0.0,0.0,0.0,0.0,0.0,0.0,0.0,0.0,0.0,0.0,0.0,0.0,0.0,0.0,0.0,0.0,0.0,0.0,0.0,0.0,0.0,0.0,0.0,0.0,0.0,0.0,0.0,0.0,0.0,4.2105,4.0253,0.0,0.0,0.0,3.8555,4.0766,0.0,0.0,0.0,0.0,0.0,0.0,0.0,0.0,0.0,0.0,0.0,0.0,0.0,0.0,0.0,0.0,0.0,0.0,0.0,0.0,0.0,0.0,0.0,0.0,0.0,0.0,0.0,0.0,0.0,0.0,0.0,0.0,0.0,0.0,0.0,0.0,0.0,0.0,0.0,0.0,0.0,0.0,0.0,0.0,0.0,0.0,0.0,0.0,0.0,0.0,0.0,0.0,0.0,0.0,0.0,0.0,0.0,2.493,2.9345,3.2176,3.3228,3.462,3.6715,3.9234,2.534,0.0,0.0,0.0,0.0,0.0,0.0,0.0,0.0,0.0,0.0,0.0,0.0,0.0,0.0,0.0,0.0,0.0,0.0,0.0,0.0,0.0,0.0,0.0,0.0,0.0,0.0,0.0,1.7483,0.0,0.0,0.0,0.0,0.0,0.0,0.0,0.0,0.0,0.0,0.0,0.0,0.0,0.0,4.0486,4.6705,4.4847,4.405,0.0,0.0,4.2943,4.4378,4.8723,4.9605,0.0,0.0,0.0,0.0,0.0,0.0,0.0,0.0,0.0,0.0,0.0,0.0,0.0,0.0,0.0,0.0,0.0,0.0,0.0,0.0,0.0,0.0,0.0,0.0,0.0,0.0,0.0,0.0,0.0,0.0,0.0,0.0,0.0,0.0,0.0,0.0,0.0,0.0,0.0,0.0,0.0,0.0,0.0,0.0,0.0,0.0,0.0,0.0,0.0,0.0,0.0,0.0,0.0,0.0,2.3275,2.4719,2.9829,3.3606,3.5938,3.639,3.8799,4.2961,3.2623,3.1015,0.0,0.0,0.0,0.0,0.0,0.0,0.0,0.0,0.0,0.0,0.0,0.0,0.0,0.0,0.0,0.0,0.0,0.0,0.0,0.0,0.0,0.0,0.0,0.0,0.0,0.0,0.0,0.0,0.0,0.0,0.0,0.0,0.0,0.0,0.0,0.0,0.0,0.0,0.0,0.0,0.0,4.1071,4.3285,4.34,4.6826,0.0,0.0,4.7025,5.5599,5.8768,5.7382,4.8609,0.0,0.0,0.0,0.0,0.0,0.0,0.0,0.0,0.0,0.0,0.0,0.0,0.0,0.0,0.0,0.0,0.0,0.0,0.0,0.0,0.0,0.0,0.0,0.0,0.0,0.0,0.0,0.0,0.0,0.0,0.0,0.0,0.0,0.0,0.0,0.0,0.0,0.0,0.0,0.0,0.0,0.0,0.0,0.0,0.0,0.0,0.0,0.0,0.0,0.0,0.0,0.0,0.0,2.4565,2.6884,3.2617,3.711,4.0236,4.0814,4.3086,4.7415,3.4859,2.904,0.0,0.0,0.0,0.0,0.0,0.0,0.0,0.0,0.0,0.0,0.0,0.0,0.0,0.0,0.0,0.0,0.0,0.0,0.0,0.0,0.0,0.0,0.0,0.0,0.0,0.0,0.0,0.0,2.4226,2.3926,2.1296,0.0,0.0,0.0,0.0,0.0,0.0,0.0,0.0,0.0,0.0,4.682,5.2258,5.3514,0.0,0.0,5.6703,5.4227,5.3793,5.6442,5.5151,4.5157,4.4033,0.0,0.0,0.0,0.0,0.0,0.0,0.0,0.0,0.0,0.0,0.0,0.0,0.0,0.0,0.0,0.0,0.0,0.0,0.0,0.0,0.0,0.0,0.0,0.0,0.0,0.0,0.0,0.0,0.0,0.0,0.0,0.0,0.0,0.0,0.0,0.0,0.0,0.0,0.0,0.0,0.0,0.0,0.0,0.0,0.0,0.0,0.0,0.0,0.0,0.0,0.0,0.0,2.6945,2.9855,3.7154,4.2202,4.5052,4.6493,4.8693,5.1392,4.2466,3.6291,0.0,0.0,0.0,0.0,0.0,0.0,0.0,0.0,0.0,0.0,0.0,0.0,0.0,0.0,0.0,0.0,0.0,0.0,0.0,0.0,0.0,0.0,0.0,0.0,0.0,0.0,0.0,0.0,2.4851,2.4436,1.8905,0.0,0.0,0.0,0.0,0.0,0.0,0.0,0.0,0.0,0.0,5.1845,5.6055,5.7241,5.7615,5.7389,5.6348,5.4355,5.0913,5.241,5.1433,4.4154,0.0,0.0,0.0,0.0,0.0,0.0,0.0,0.0,0.0,0.0,0.0,0.0,0.0,0.0,0.0,0.0,0.0,0.0,0.0,0.0,0.0,0.0,0.0,0.0,0.0,0.0,0.0,0.0,0.0,0.0,0.343,0.0,0.0,0.0,0.0,0.0,0.0,0.0,0.0,0.0,0.0,0.0,0.0,0.0,0.0,0.0,0.0,0.0,0.0,0.0,0.0,0.0,0.0,3.0307,3.3632,4.3258,4.8979,5.0148,5.3463,5.5417,5.6092,5.7506,5.6441,5.2266,0.0,0.0,0.0,0.0,0.0,0.0,0.0,0.0,0.0,0.0,0.0,0.0,0.0,0.0,0.0,0.0,0.0,0.0,0.0,0.0,0.0,0.0,0.0,0.0,0.0,0.0,1.0159,1.8247,2.0967,0.0,0.0,0.0,0.0,0.0,0.0,0.0,0.0,0.0,0.0,4.9132,5.5162,5.1474,5.1284,5.1686,5.1513,4.7195,4.5067,4.8556,4.8012,4.7285,0.0,0.0,0.0,0.0,0.0,0.0,0.0,0.0,0.0,0.0,0.0,0.0,0.0,0.0,0.0,0.0,0.0,0.0,0.0,0.0,0.0,0.0,0.0,0.0,0.0,0.0,0.0,0.5506,0.5227,0.0,0.0,0.0,0.0,0.0,0.0,0.0,0.0,0.0,0.0,0.0,-0.887,-1.0625,0.0,0.0,0.0,0.0,0.0,0.0,0.0,0.0,0.0,0.0,0.0,0.0,2.7132,3.6568,4.5243,5.1653,5.5653,5.7058,5.7994,5.8489,5.9315,5.7755,5.345,0.0,0.0,0.0,0.0,0.0,0.0,0.0,0.0,0.0,0.0,0.0,0.0,0.0,0.0,0.0,0.0,0.0,0.0,0.0,0.0,0.0,0.0,0.0,0.0,0.0,1.2592,0.0,0.0,0.0,0.0,0.0,0.0,0.0,0.0,0.0,0.0,0.0,3.5404,4.1958,4.392,4.5672,4.8199,4.9713,5.1514,0.0,0.0,0.0,0.0,0.0,0.0,0.0,0.0,0.0,0.0,0.0,0.0,0.0,0.0,3.8154,3.2377,3.1324,3.0672,2.8545,0.0,0.0,0.0,0.0,0.0,0.0,0.0,0.0,0.0,0.0,0.0,0.0,0.0,0.0,0.3413,0.0,0.2022,0.0,0.0,0.0,0.0,0.0,0.0,0.0,0.0,-0.7717,-1.0393,-1.086,-1.3189,-1.4724,0.0,-2.0972,-2.065,0.0,0.0,0.0,0.0,0.0,0.0,0.0,0.0,2.4212,3.401,4.5403,5.3331,5.744,5.8316,5.878,5.9032,5.9383,5.8097,5.4943,4.2314,3.4129,0.0,0.0,0.0,0.0,0.0,0.0,0.0,0.0,0.0,0.0,0.0,0.0,0.0,0.0,0.0,0.0,0.0,0.0,0.0,0.0,0.0,0.0,0.0,1.066,0.0,0.0,0.0,0.0,0.0,0.0,0.0,0.0,0.0,2.3176,3.052,3.7363,4.2984,4.3504,4.3424,4.3465,0.0,0.0,0.0,0.0,0.0,0.0,0.0,3.7051,3.4984,3.5916,3.8085,4.1696,4.5514,4.796,4.7548,0.0,0.0,3.8912,3.7574,3.6955,3.4807,2.9204,2.4655,2.43,2.4929,2.483,0.0,0.0,0.0,0.0,0.0,0.0,0.0,0.0,0.2703,0.0862,0.0,-0.1139,0.0,0.0,0.0,0.0,0.0,-0.5838,0.0,0.0,-0.9136,-0.8492,-1.1402,-1.4562,-1.6958,-1.9201,-2.6527,-3.1584,-3.3913,-2.7228,0.0,0.0,0.0,0.0,0.0,0.0,2.1782,2.7112,4.4078,5.3961,5.5743,5.7209,5.7941,5.7874,5.8278,5.8147,5.7325,5.2818,4.9891,4.8515,4.0106,0.0,0.0,0.0,0.0,0.0,0.0,0.0,0.0,0.0,0.0,0.0,0.0,0.0,0.0,0.0,0.0,0.0,0.0,0.0,0.0,0.9886,0.0,0.0,0.0,0.0,0.0,0.0,0.0,0.0,0.0,0.0,1.4872,2.9141,3.9811,4.1018,0.0,0.0,0.0,0.0,4.4737,3.3864,3.1945,3.219,3.2364,3.5315,3.939,4.4512,0.0,0.0,5.1858,5.002,4.8463,4.8133,5.0506,5.0564,4.538,4.2258,3.9706,3.7604,2.9849,2.2258,2.0646,2.0165,1.7189,-0.6474,0.0,0.0,0.0,0.0,0.1417,0.1513,0.121,-0.0781,-0.1872,-0.2556,-0.4153,0.0,0.0,0.0,0.0,0.0,0.0,-2.3364,-2.2736,-2.2617,-2.1827,-2.0396,-2.2808,-2.476,-2.6453,-3.2698,-3.7209,-4.0063,-4.1715,-3.7531,-2.7823,0.0,0.0,0.0,0.0,1.8068,3.3058,4.3133,4.9857,5.3491,5.3971,5.4667,5.5551,5.6133,5.6521,5.6842,5.5428,5.29,4.9102,4.55,0.0,0.0,0.0,0.0,0.0,0.0,0.0,0.0,0.0,0.0,0.0,0.0,0.0,0.0,0.0,0.0,0.0,0.0,0.0,0.1922,1.0821,1.2282,0.0,0.0,0.0,0.0,0.0,0.0,0.0,0.0,0.0,2.2647,2.4841,2.7689,0.0,0.0,2.8237,2.8589,3.4093,3.8461,3.9499,0.0,0.0,0.0,4.4772,4.2975,4.3503,4.6761,4.961,5.0641,5.3788,5.6309,5.639,5.674,5.5992,5.3453,5.1106,4.8988,4.6991,4.3553,4.0359,3.8232,3.6579,3.502,-0.6738,-1.0175,-0.6147,-0.2906,-0.0318,0.0643,0.0113,-0.1593,-0.3463,-0.5093,-0.6652,-0.8158,-1.085,-1.4478,-1.5364,0.0,0.0,0.0,-3.0154,-2.9974,-3.1164,-3.0697,-2.887,-3.1105,-3.3404,-3.5442,-3.9936,-4.3998,-4.7496,-4.9298,-4.4219,-3.3,0.0,0.0,-1.015,0.3362,1.6856,3.0239,3.8856,4.5312,4.9724,5.1023,5.2261,5.3616,5.3991,5.4454,5.5168,5.5312,5.3677,4.9992,4.7761,4.0899,0.0,0.0,0.0,0.0,0.0,0.0,0.0,0.0,0.0,0.0,0.0,1.1661,-0.6215,0.0,0.0,0.0,1.2876,0.9118,0.5563,0.828,0.0,0.0,0.0,0.0,0.0,0.0,0.0,-0.1479,1.3578,2.4882,2.5441,2.5065,2.7611,3.5605,3.3818,3.1864,3.2216,0.0,4.2952,4.4047,4.531,4.7202,4.9915,4.922,4.8408,4.8846,5.1258,5.3224,5.3635,5.7008,5.9613,6.0027,5.9563,5.8557,5.7158,5.5715,5.4097,5.2135,5.0679,4.8967,4.6683,4.5202,4.3935,-0.5653,-0.8337,-0.873,-0.6044,-0.1304,-0.0119,-0.1874,-0.5374,-0.578,-0.8796,-1.3191,-1.2867,-1.571,-2.0847,-2.2187,0.0,-2.992,-3.0078,-3.2146,-3.5581,-3.638,-3.6874,-3.7026,-3.9687,-4.24,-4.5169,-4.7737,-5.1231,-5.5048,-5.1049,-4.391,-3.4035,-2.9519,-2.4841,-1.868,0.3073,1.6687,2.1335,3.204,4.0158,4.539,4.842,5.0634,5.1888,5.1872,5.2227,5.291,5.3406,5.2853,5.0947,4.7895,4.4577,4.0459,0.0,0.0,0.0,0.0,0.0,0.0,0.0,0.0,0.0,0.0,0.0,0.0,0.0,0.0,0.0,1.511,0.0,1.7751,0.6098,0.0,0.0,0.0,0.4407,1.6908,2.0582,2.1674,2.0236,0.0,0.0,2.5104,2.8604,3.5895,4.9065,5.0771,4.8671,4.2949,4.9448,5.3535,4.7349,4.7466,4.774,4.8357,5.1115,5.4429,5.686,5.9069,5.8971,5.8379,5.8846,5.961,6.0168,5.9737,5.8933,5.7947,5.6975,5.5835,5.3623,5.1941,5.0304,4.8137,4.6124,4.4585,-0.2781,-0.5771,-0.7779,-0.6699,-0.3776,-0.549,-0.595,-0.5767,-0.9383,-1.2473,-1.5008,-1.734,-2.2049,-2.8327,-3.1753,-3.4712,-3.7242,-3.9545,-4.2047,-4.4638,-4.5716,-4.706,-4.8513,-4.9859,-5.1038,-5.2179,-5.4419,-5.588,-5.604,-4.6638,-4.3812,-4.6208,-2.6286,-1.3134,-0.7817,0.0839,0.9481,1.8091,2.3132,3.1915,4.4253,4.7159,4.881,4.9631,4.9961,5.0563,5.1541,5.1418,5.1211,5.104,4.8777,4.2157,3.0576,1.8041,0.0,0.0,0.0,0.0,0.0,0.0,0.0,0.0,0.0,-0.5559,-2.567,0.0,-0.8389,0.0,1.6201,2.913,2.9263,2.663,0.0,0.0,1.2299,1.1977,1.4173,2.4616,2.7605,1.6884,2.5554,3.2416,3.232,3.4654,4.1174,5.3798,4.6824,4.055,4.1786,4.7882,5.2145,5.1704,5.545,5.8587,5.7115,5.7513,5.8016,5.8258,5.8586,5.8548,5.7858,5.8315,5.8987,5.9471,5.9779,5.9351,5.8257,5.8124,5.7475,5.5518,5.3379,5.1182,4.9108,4.7776,4.6559,-0.4191,-0.6637,-0.8321,-0.8229,-0.7226,-0.8127,-0.8811,-0.9267,-1.2379,-1.524,-1.8254,-2.3527,-2.8894,-3.4422,-3.8095,-4.112,-4.3683,-4.5928,-4.8326,-5.0637,-5.1731,-5.3235,-5.4937,-5.5782,-5.6524,-5.7169,-5.8189,-5.8651,-5.7821,-4.5282,-3.8021,-3.5816,-1.4107,-0.0634,0.4157,0.1284,0.3015,0.9896,1.8465,2.98,4.3531,4.602,4.4413,3.8918,3.8918,3.6298,3.0711,3.0502,3.0411,3.013,2.8958,2.4547,1.6209,0.4791,-0.6443,0.0,0.0,0.0,0.0,0.0,0.0,0.0,0.0,0.0,0.0,0.0,-0.1085,0.0358,1.9891,3.0091,2.4387,2.4011,2.327,2.143,2.2122,2.4477,2.9151,3.7318,3.9272,3.0877,3.7253,4.1896,4.0622,4.2182,4.6275,5.4132,4.9277,4.6564,5.0558,5.4224,5.6559,5.7884,6.0805,6.2497,6.1119,6.0461,5.9665,5.8607,5.8638,5.8664,5.8076,5.8514,5.9221,5.9898,6.0123,5.9912,5.9082,5.8572,5.7911,5.6561,5.471,5.2652,5.0618,4.8606,4.6852,-0.7019,-0.8871,-0.9419,-0.9968,-1.0635,-0.957,-1.0809,-1.3626,-1.4618,-1.7703,-2.2461,-2.993,-3.5374,-3.9398,-4.2451,-4.5726,-4.8887,-5.0283,-5.2218,-5.4478,-5.5482,-5.677,-5.82,-5.8989,-5.9701,-6.0286,-6.0079,-5.9174,-5.7293,-4.2871,-2.8864,-1.5489,0.0,0.9419,1.21,0.2266,-0.1457,0.1611,1.6296,2.9512,4.066,4.0576,3.4782,2.3871,2.3069,1.7325,0.55,0.5388,0.5275,0.4402,0.4193,0.4646,0.5472,-0.7371,-1.4431,0.0,-2.5473,0.0,0.0,0.0,0.0,0.0,0.0,0.0,0.0,0.8601,1.0481,1.4085,2.4811,2.7518,1.787,1.6729,2.1192,3.2437,3.394,3.8247,4.8486,5.0707,5.0594,4.8844,4.949,4.9226,4.6825,4.8481,4.9993,5.1496,5.3295,5.5628,6.0765,6.1431,6.1852,6.3822,6.301,6.1479,6.0714,6.0411,5.983,5.8777,5.8946,5.9141,5.8453,5.9003,5.9763,6.0312,6.0383,6.022,5.9977,5.884,5.781,5.703,5.5543,5.3878,5.1917,4.9389,4.7137,-0.7517,-0.9242,-1.0464,-1.1044,-1.0921,-1.1476,-1.2395,-1.3806,-1.5835,-2.1288,-2.9081,-3.3945,-3.855,-4.2793,-4.6033,-4.8664,-5.0752,-5.2639,-5.4329,-5.5928,-5.688,-5.7999,-5.9204,-5.9848,-6.0104,-5.9957,-6.044,-5.4204,-4.1708,-2.8687,-1.8788,-1.1662,0.2712,0.6679,0.0553,0.0,0.0,0.0,1.5442,2.2975,2.5972,1.5799,0.9579,0.8176,0.7503,0.0,0.5544,0.5917,0.6153,0.6082,0.5413,0.0,0.0,0.0,0.0,0.0,0.0,0.0,0.0,0.0,0.0,0.0,0.2895,0.3743,1.1078,1.0872,1.5171,2.6628,2.9793,3.4382,4.2439,4.3,4.3423,4.4884,4.4804,4.5262,4.6476,4.692,4.6697,4.5159,4.4081,4.3598,4.4052,4.5079,4.6826,4.9363,5.2284,5.5272,5.8477,6.0076,6.1001,6.1055,5.9834,5.8864,5.9247,5.8827,5.879,5.9042,5.9307,5.8899,5.8034,5.8857,5.9289,5.8916,5.9813,6.0545,5.9611,5.914,5.8505,5.6949,5.56,5.396,5.1977,5.0765,4.9692,-0.9622,0.0,-1.143,-1.2332,0.0,-1.3993,-1.5165,-1.638,-1.8108,-2.4293,-3.3472,-3.7648,-4.1716,-4.5727,-4.855,-5.0895,-5.2757,-5.4495,-5.5895,-5.7021,-5.8073,-5.902,-5.9966,-6.0576,-6.0769,-6.0566,-5.9893,-5.2097,-3.7723,-2.3994,-1.2375,-0.2617,1.1645,1.6933,1.3613,1.6708,1.6587,1.2993,1.9488,2.6005,3.1954,2.708,2.0957,1.4697,0.0,0.0,0.0,0.0,0.0,0.0,0.0,0.0,0.0,0.0,0.0,1.5965,1.0119,0.9706,1.7127,1.7348,2.0763,2.9306,2.9704,2.7182,2.2168,2.7646,3.4397,4.1165,4.0959,4.2952,4.9232,4.9423,4.8337,4.6856,4.5611,4.4435,4.3577,4.2908,4.2203,4.1428,4.1018,4.079,4.021,4.1543,4.343,4.5843,4.8509,5.13,5.4132,5.7207,5.9106,5.8849,5.8345,5.7858,5.8215,5.8377,5.8451,5.9273,5.969,5.9475,5.8567,5.9163,5.9657,5.9397,6.0058,6.0326,5.9911,5.9583,5.8953,5.7444,5.6134,5.4704,5.2859,5.1541,5.0449,-1.1723,-1.114,-1.2682,-1.4047,-1.5052,-1.6312,-1.827,-2.0611,0.0,0.0,0.0,-4.0465,-4.4336,-4.7889,-5.0402,-5.2499,-5.4247,-5.5875,-5.6971,-5.781,-5.8986,-5.9854,-6.0441,-6.0873,-6.102,-6.0826,-5.8983,-5.1101,-3.757,-2.3062,-0.8788,0.5388,1.9665,2.8023,3.0485,3.4382,3.2213,2.4167,2.4235,2.9349,3.9024,3.9264,3.3509,2.1691,2.2414,1.6903,0.4369,0.4297,0.4266,0.3631,0.3549,0.5314,0.898,0.9083,1.0617,1.4098,1.4321,2.0072,3.3019,3.3796,3.9546,5.3461,5.4069,4.8352,3.5267,4.5645,5.2685,5.2481,5.0876,4.9717,4.9478,4.8055,4.6437,4.468,4.2393,4.0815,4.0254,3.8891,3.796,3.7805,3.8526,3.8668,3.7291,3.866,4.0501,4.2664,4.5349,4.77,5.0627,5.439,5.6563,5.6257,5.6184,5.6742,5.71,5.7573,5.8422,5.9075,5.984,6.0142,5.9736,5.9665,5.9985,6.031,6.0176,5.9997,6.0108,5.9701,5.8934,5.7611,5.6453,5.5209,5.3775,5.2004,5.0766,-1.2414,-1.1712,-1.4853,-1.6349,-1.6847,-1.7399,-2.0698,-2.5888,-2.7364,-3.1398,-3.7372,-4.1285,-4.5165,-4.9041,-5.1674,-5.3311,-5.4354,-5.6469,-5.7675,0.0,-5.9349,-6.0188,-6.0534,-6.0367,-5.9824,-5.8964,-5.8136,-5.024,-3.5922,-2.2901,-0.9524,0.4233,1.8156,2.6893,3.0524,3.302,3.3966,3.33,2.5807,2.3256,2.5936,1.5007,0.881,0.7929,0.8199,0.6702,0.4601,0.5115,0.461,0.3982,0.4026,0.9815,2.2207,2.3605,2.9694,4.2072,4.4574,4.6898,4.98,4.9958,5.0721,5.2674,5.2508,5.1338,4.9792,5.0821,5.1674,5.1643,5.0352,4.9154,4.8266,4.6281,4.4201,4.2225,3.918,3.6826,3.604,3.5058,3.4358,3.4305,3.5058,3.5918,3.6254,3.7544,3.9476,4.1967,4.4497,4.7496,5.0358,5.2562,5.3191,5.2942,5.2834,5.3334,5.4615,5.5439,5.6687,5.8597,5.9345,5.976,5.9553,5.9536,5.9661,5.9851,5.9638,5.9508,5.9752,5.9213,5.819,5.678,5.5578,5.4458,5.3382,5.2457,5.2032,-1.3709,-1.3579,-1.6423,-1.7886,-1.8534,-2.0596,-2.4734,-3.0073,-3.2342,-3.5837,-4.0114,-4.3426,-4.683,-5.0269,-5.2274,-5.4018,-5.5715,-5.7193,-5.8297,-5.9125,-5.9958,-6.0573,-6.0966,-6.0934,-6.0376,-5.9343,-5.8181,-5.0228,-3.6604,-2.9004,-1.5677,0.3594,1.8372,2.3485,2.0257,2.8516,3.3842,3.5156,3.3192,3.2375,3.2921,2.8985,2.7199,2.7998,2.9027,2.9154,2.814,2.7844,2.7309,2.6441,2.5678,2.8758,3.5987,3.7133,4.1034,4.8802,5.0342,5.1267,5.2199,5.15,5.0895,5.0551,5.0114,4.9889,4.9961,5.0854,5.1487,5.1722,4.997,4.85,4.7984,4.5189,4.2384,4.0234,3.6875,3.4316,3.3056,3.1682,3.1266,3.1973,3.313,3.431,3.5196,3.6671,3.8385,4.0782,4.3425,4.616,4.827,4.9194,5.0154,5.1269,5.1756,5.2169,5.3078,5.3836,5.5017,5.6612,5.7893,5.8634,5.8858,5.9105,5.9605,5.9937,5.9617,5.9223,5.9257,5.8932,5.7902,5.6437,5.5384,5.4537,5.3861,5.3764,5.3813,-1.4595,-1.4716,-1.7212,-1.9318,-2.124,-2.4715,-2.9216,-3.4235,-3.6991,-3.9825,-4.2901,-4.5667,-4.8461,-5.1157,-5.2657,-5.4605,-5.6808,-5.7698,-5.8761,-6.0007,-6.0345,-6.0669,-6.099,-6.0875,-6.0319,-5.9419,-5.7853,-4.9402,-3.6025,-3.126,-1.8318,0.235,1.2319,1.3767,0.918,2.0757,2.9242,3.3926,3.7676,4.0094,4.1367,4.4729,4.6701,4.7573,4.8964,4.9335,4.7757,4.7052,4.6311,4.5325,4.4117,4.3997,4.5208,4.5718,4.6834,4.8679,4.9462,5.0089,5.0753,5.0122,4.9221,4.8346,4.7898,4.7471,4.7282,4.8673,5.0195,5.0945,4.9159,4.7835,4.741,4.4523,4.1222,3.8519,3.5008,3.2218,3.0647,2.9014,2.854,3.0075,3.1738,3.3218,3.4381,3.5901,3.7808,3.9944,4.2474,4.4571,4.5526,4.6376,4.783,4.931,5.0549,5.1129,5.1669,5.2347,5.3333,5.4546,5.628,5.7446,5.8062,5.8778,5.9508,5.998,5.9379,5.8892,5.8728,5.8549,5.7804,5.642,5.5592,5.4982,5.4589,5.4974,5.5112,-1.4436,-1.5274,-1.72,-2.1041,-2.562,-2.9028,-3.3503,-3.8491,-4.0767,-4.2805,-4.4979,-4.7273,-4.9363,-5.1263,-5.3061,-5.4983,-5.6921,-5.7789,-5.8931,-6.0137,-6.0109,-6.0137,-6.0148,-5.8899,-5.8165,-5.8012,-5.6406,-4.7193,-3.155,-2.2397,-1.1053,0.0,-0.7406,-0.5892,0.4141,0.8208,1.6601,3.0645,3.3421,3.7146,4.2043,4.3996,4.5761,4.7507,4.7214,4.7067,4.6887,4.6518,4.5943,4.524,4.4684,4.449,4.4642,4.497,4.5608,4.6792,4.8101,4.9144,4.9882,5.064,4.9679,4.7283,4.6296,4.5632,4.4934,4.4854,4.611,4.8182,4.7801,4.7001,4.7111,4.4037,4.07,3.7514,3.3603,3.0314,2.8407,2.6873,2.6596,2.8172,3.0286,3.2244,3.3504,3.5488,3.7622,3.9794,4.2136,4.4107,4.492,4.6003,4.6586,4.6945,4.7933,4.929,4.9855,5.0587,5.156,5.3165,5.4983,5.6292,5.7213,5.7955,5.8647,5.9445,5.8757,5.7964,5.8409,5.8424,5.7419,5.6485,5.5733,5.5297,5.5084,5.557,5.5663,-1.4587,-1.5835,-1.7302,-2.0686,-2.5321,-2.9229,-3.3348,-3.7429,-4.1117,-4.3644,-4.5551,-4.9016,-5.1287,-5.2352,-5.3873,-5.5561,-5.7233,-5.8502,-5.932,-5.9835,-5.9976,-5.9829,-5.9332,-5.8866,-5.8382,-5.7897,-5.6522,-5.1765,-4.331,-3.2756,-2.8596,-2.9806,-2.2673,-1.3349,-0.6695,-0.518,0.3157,1.8265,1.8529,2.0841,2.6694,3.6826,4.3371,4.5197,4.5924,4.6212,4.6076,4.5227,4.4376,4.3788,4.2885,4.2568,4.2925,4.3024,4.4214,4.6436,4.7625,4.8259,4.8485,4.7785,4.6588,4.48,4.424,4.3635,4.2853,4.2473,4.302,4.4388,4.4993,4.5185,4.4922,4.2452,3.9169,3.5544,3.1914,2.8903,2.6616,2.5021,2.4632,2.5973,2.8261,3.0551,3.2442,3.5365,3.7979,3.9666,4.1426,4.2792,4.3834,4.4952,4.5616,4.5966,4.7215,4.8015,4.8189,4.8627,4.9304,4.9987,5.2192,5.448,5.4906,5.6805,5.8055,5.8707,5.7691,5.7164,5.7605,5.7531,5.694,5.6205,5.5739,5.5399,5.5808,5.6438,5.6812,-1.4647,-1.6288,-1.8227,-2.1372,-2.5014,-2.931,-3.3253,-3.7084,-4.1616,-4.4672,-4.6881,-5.0569,-5.2794,-5.3856,-5.4739,-5.5936,-5.7471,-5.8726,-5.9388,-5.9518,-5.9657,-5.9346,-5.8808,-5.8413,-5.8061,-5.7503,-5.6596,-5.3827,-4.9232,-4.1036,-4.1228,-4.7039,-3.5793,-2.5961,-2.1036,-1.9586,-1.1194,0.2909,0.3153,0.4654,1.0267,2.3801,3.5275,4.2164,4.4052,4.4893,4.552,4.4513,4.3796,4.3412,4.2088,4.1718,4.2327,4.2346,4.3618,4.6351,4.7214,4.7295,4.6946,4.5496,4.4114,4.2886,4.2328,4.1488,4.0557,4.0023,3.9993,4.0412,4.1335,4.201,4.2828,4.0983,3.8074,3.4495,3.1167,2.8084,2.5928,2.414,2.3504,2.4551,2.6798,2.9168,3.1795,3.5279,3.8264,3.9516,4.0631,4.1713,4.2886,4.3957,4.4708,4.5316,4.6394,4.688,4.6965,4.7538,4.7456,4.8139,5.0439,5.27,5.2702,5.5404,5.7396,5.7766,5.6941,5.6648,5.6933,5.6762,5.6877,5.6267,5.5974,5.6328,5.7261,5.7722,5.8063,-1.4318,-1.6324,-2.0454,-2.3555,-2.5919,-3.0449,-3.4975,-3.936,-4.3119,-4.6666,-4.9546,-5.1443,-5.3518,-5.5608,-5.5355,-5.607,-5.7512,-5.8314,-5.8978,-5.9438,-5.9012,-5.8741,-5.8679,-5.7153,-5.6521,-5.6948,-5.6296,-5.0336,-3.9427,-3.8001,-3.803,-4.0825,-4.972,-4.8995,-3.7338,-3.4566,-2.6738,-1.2655,-1.1108,-0.8708,-0.4958,0.4065,1.9256,3.6579,4.1273,4.2802,4.4623,4.489,4.4566,4.4635,4.2494,4.2463,4.3276,4.3317,4.4382,4.6187,4.6493,4.6109,4.5317,4.4691,4.3571,4.1728,4.0491,3.9277,3.7839,3.7388,3.7107,3.6798,3.703,3.8172,4.0229,3.9683,3.8073,3.54,3.1498,2.8454,2.6478,2.4112,2.35,2.4272,2.5797,2.8456,3.2551,3.5482,3.7691,3.9346,4.0675,4.1713,4.2739,4.3394,4.4236,4.4827,4.52,4.5437,4.6913,4.7253,4.7439,4.8055,4.9573,5.2078,5.3417,5.473,5.6038,5.6774,5.6064,5.588,5.6251,5.6626,5.7022,5.7032,5.7324,5.781,5.7704,5.8434,5.8635,-1.5115,-1.8067,-2.2694,-2.5493,-2.719,-3.2342,-3.6602,-4.0262,-4.4629,-4.7266,-4.892,-5.1168,-5.371,-5.6317,-5.5668,-5.6394,-5.8145,-5.8672,-5.8968,-5.914,-5.9046,-5.8722,-5.8209,-5.7955,-5.8228,-5.8485,-5.7274,-5.4408,-5.0763,-5.0812,-5.1508,-5.2236,-5.6151,-5.1518,-4.1176,-4.4614,-4.0734,-2.8324,-3.1845,-3.1026,-2.1604,-1.2886,-0.1284,1.2815,3.2251,4.2604,4.3256,4.2977,3.862,2.9299,2.8346,2.8251,2.9434,3.8502,4.4071,4.4189,4.4484,4.4361,4.3603,4.2063,4.061,3.931,3.8454,3.7562,3.6439,3.5818,3.4949,3.3747,3.362,3.4202,3.4465,3.6211,3.6806,3.409,3.1083,2.8332,2.6187,2.3963,2.2836,2.3528,2.5253,2.8259,3.1164,3.4024,3.6451,3.8733,4.0562,4.2038,4.3412,4.4358,4.5095,4.5809,4.604,4.648,4.7655,4.7085,4.6871,4.7604,4.8968,5.0835,5.2376,5.4095,5.5509,5.5639,5.505,5.5132,5.5562,5.6199,5.6719,5.7547,5.7859,5.7785,5.7491,5.8032,5.8148,-1.739,-2.1188,-2.4797,-2.7668,-3.0036,-3.4623,-3.8789,-4.2221,-4.5885,-4.771,-4.8611,-5.1023,-5.3565,-5.5658,-5.5953,-5.7106,-5.8878,-5.921,-5.9176,-5.8949,-5.9196,-5.8995,-5.8644,-5.8836,-5.9533,-6.011,-5.8621,-5.7946,-5.8501,-5.9406,-5.9823,-5.97,-5.9283,-5.4243,-4.6987,-5.1378,-4.9415,-4.3373,-4.6579,-4.4523,-3.6184,-3.0111,-2.0941,-0.8944,0.7452,2.0642,2.8596,2.9039,2.4618,1.5543,1.3242,1.4592,1.9506,2.9619,3.7797,4.0949,4.2192,4.2329,4.1666,3.9706,3.8046,3.7368,3.6789,3.5992,3.4792,3.4529,3.3308,3.161,3.1064,3.083,3.1049,3.3299,3.4458,3.2718,3.0511,2.836,2.655,2.4462,2.3283,2.3414,2.5204,2.768,3.0078,3.2642,3.554,3.8425,4.0349,4.2009,4.3944,4.4812,4.5681,4.6534,4.6324,4.6919,4.7931,4.7943,4.7732,4.838,4.9908,5.1209,5.1734,5.3465,5.4573,5.4463,5.4452,5.4589,5.5025,5.567,5.6501,5.7442,5.7867,5.7804,5.7617,5.7504,5.7497,-2.1397,-2.5269,-2.6833,-3.019,-3.4384,-3.7513,-4.1386,-4.5264,-4.697,-4.8227,-4.9062,-5.1245,-5.3324,-5.4706,-5.6278,-5.7992,-5.9389,-5.9747,-5.9549,-5.9166,-5.9407,-5.9639,-5.965,-5.9413,-6.0001,-6.1291,-5.9879,-5.9523,-6.0238,-6.0705,-6.1027,-6.1052,-6.0164,-5.8338,-5.7637,-5.4851,-5.3997,-5.2454,-5.0548,-4.8675,-4.8682,-4.5353,-3.6878,-2.5081,-2.9948,-2.2783,0.1262,0.3224,0.3816,0.16,-0.0827,0.4045,1.3279,1.8665,2.4914,3.6583,3.9654,4.0048,3.955,3.7781,3.6497,3.5937,3.5555,3.4513,3.3268,3.3141,3.2376,3.012,2.9393,2.9471,3.0053,3.0874,3.1797,3.2051,3.0387,2.8603,2.7369,2.5504,2.4065,2.39,2.4965,2.6788,2.8815,3.1592,3.4751,3.7923,4.012,4.1942,4.4159,4.502,4.5447,4.6237,4.6576,4.7043,4.8056,4.8975,4.9149,4.961,5.1431,5.2868,5.2089,5.299,5.4458,5.4661,5.411,5.4232,5.4745,5.5387,5.5675,5.6483,5.7006,5.7321,5.6894,5.659,5.6786,-2.5354,-2.8246,-3.0833,-3.3734,-3.705,-4.0525,-4.3724,-4.6388,-4.8873,-4.9879,-5.0142,-5.2375,-5.4358,-5.5628,-5.6648,-5.7839,-5.9287,-5.9855,-6.0055,-5.992,-5.9982,-6.0086,-6.0176,-6.0401,-6.0643,-6.0934,-6.1483,-6.1442,-6.1186,-6.1385,-6.1144,-6.0198,-5.9195,-5.7847,-5.653,-5.5115,-5.4473,-5.3826,-5.1115,-4.9566,-4.9325,-4.6853,-4.2492,-3.8568,-4.0055,-3.6083,-2.7703,-1.028,-0.5808,-1.4627,-1.6835,-1.2562,-0.1393,1.0335,2.1957,3.2804,3.6685,3.7196,3.5935,3.5316,3.4458,3.3533,3.3211,3.2991,3.2136,3.1458,3.0236,2.8357,2.7319,2.6844,2.707,2.7613,2.9452,3.2297,3.0653,2.8446,2.6751,2.4192,2.2301,2.1934,2.3424,2.5041,2.6901,3.0015,3.4015,3.7456,4.0223,4.2951,4.4794,4.5961,4.6609,4.7085,4.7092,4.7494,4.871,4.8984,4.8433,4.9204,5.1152,5.2546,5.2085,5.2991,5.4357,5.4721,5.4183,5.4048,5.4578,5.4833,5.5027,5.5334,5.5767,5.5718,5.5455,5.5454,5.5634,-2.8792,-3.1819,-3.4547,-3.734,-4.014,-4.3821,-4.6164,-4.766,-5.0322,-5.1012,-5.0777,-5.2961,-5.5213,-5.6683,-5.7153,-5.7996,-5.9287,-5.9943,-6.0302,-6.0449,-6.0494,-6.0527,-6.0604,-6.1045,-6.1138,-6.1088,-6.2223,-6.2486,-6.1788,-6.2085,-6.1639,-6.0216,-5.8801,-5.751,-5.5988,-5.4796,-5.3983,-5.3277,-5.1205,-4.9871,-4.926,-4.6988,-4.5294,-4.4574,-4.285,-4.2002,-4.063,-2.5081,-2.0703,-2.8687,-3.2003,-2.6023,-1.1284,0.0924,1.3754,2.7748,3.2982,3.4137,3.2734,3.2509,3.2114,3.106,3.1377,3.1393,3.0982,3.01,2.9215,2.7292,2.6338,2.5843,2.6079,2.6588,2.8543,3.1589,3.0078,2.8067,2.5909,2.3727,2.207,2.1964,2.2862,2.4275,2.6281,2.9839,3.3761,3.7026,4.0672,4.3884,4.5611,4.6987,4.7638,4.8293,4.8638,4.9177,4.979,4.9117,4.7795,4.8754,5.0248,5.1048,5.1197,5.3488,5.5312,5.5006,5.4512,5.3973,5.4298,5.3934,5.3935,5.4287,5.4421,5.4153,5.3934,5.4128,5.4348,-3.2035,-3.6117,-3.8057,-4.071,-4.3784,-4.7081,-4.8669,-4.9393,-5.1353,-5.1546,-5.1116,-5.3314,-5.5715,-5.7546,-5.7941,-5.8694,-5.9571,-6.0125,-6.0663,-6.0935,-6.0911,-6.0834,-6.0982,-6.1447,-6.1631,-6.1729,-6.248,-6.2662,-6.2321,-6.2662,-6.2517,-6.0639,-5.9033,-5.7935,-5.6514,-5.4469,-5.3178,-5.282,-5.1064,-4.9953,-4.9877,-4.8211,-4.6535,-4.5538,-4.4211,-4.3272,-4.2215,-3.9652,-3.9813,-4.1903,-4.2186,-3.2806,-1.6316,-0.976,0.5124,2.5834,2.9987,3.08,3.022,3.0144,2.9618,2.9267,2.9928,3.0115,2.9617,2.9614,2.9023,2.6997,2.6314,2.6286,2.6722,2.734,2.8712,3.014,2.9177,2.7149,2.5101,2.3871,2.2387,2.1828,2.2846,2.4164,2.5619,2.9982,3.3861,3.7505,4.1155,4.4065,4.6437,4.7917,4.9052,4.9478,4.9607,4.9141,4.9195,4.7398,4.6358,4.7871,4.9214,4.9892,5.1017,5.3569,5.5484,5.5178,5.4592,5.4113,5.357,5.3186,5.2812,5.2783,5.2734,5.2467,5.2804,5.3335,5.3561,-3.6212,-3.9741,-4.1563,-4.36,-4.5962,-4.8711,-5.0169,-5.0781,-5.2486,-5.2663,-5.2398,-5.4547,-5.651,-5.7982,-5.8905,-5.9734,-6.0292,-6.0741,-6.1658,-6.229,-6.13,-6.0982,-6.1306,-6.2052,-6.248,-6.2585,-6.285,-6.2818,-6.2667,-6.2147,-6.1068,-5.9594,-5.8519,-5.7253,-5.5812,-5.397,-5.3025,-5.2661,-5.0463,-4.9864,-5.0507,-5.0322,-4.8919,-4.6808,-4.6356,-4.5268,-4.3764,-4.2908,-4.3183,-4.3712,-3.763,-2.8498,-1.4302,-0.4231,0.7701,2.1404,2.7227,2.8589,2.8111,2.8634,2.8798,2.8224,2.8847,2.9339,2.8931,2.8316,2.7855,2.7131,2.6541,2.6191,2.6826,2.7845,2.9074,3.0109,2.7845,2.5793,2.3628,2.2138,2.0301,1.9176,1.9025,2.084,2.3344,2.8435,3.3309,3.7553,4.1468,4.4876,4.7349,4.9154,5.0342,4.9817,4.9573,4.8684,4.7651,4.575,4.5319,4.6838,4.8038,4.893,5.0759,5.3336,5.4739,5.5364,5.4276,5.3584,5.2911,5.234,5.1971,5.172,5.2044,5.2319,5.2776,5.3206,5.3359,-3.9677,-4.2573,-4.4293,-4.6091,-4.7935,-5.0675,-5.2109,-5.2561,-5.3904,-5.4068,-5.3773,-5.5327,-5.6707,-5.7542,-5.8667,-5.9788,-6.0632,-6.06,-6.1392,-6.2469,-6.1858,-6.1389,-6.1502,-6.2288,-6.2877,-6.3103,-6.3664,-6.3396,-6.2705,-6.2062,-6.1062,-5.963,-5.8296,-5.7206,-5.6311,-5.4146,-5.2938,-5.2547,-5.0968,-5.051,-5.1162,-5.109,-5.0178,-4.8311,-4.7561,-4.5905,-4.3692,-4.338,-4.4108,-4.3991,-3.9594,-3.0057,-1.4577,-0.6337,0.5824,2.0662,2.5306,2.6217,2.5572,2.6489,2.7015,2.7091,2.7707,2.8339,2.8829,2.8447,2.8213,2.78,2.7097,2.7351,2.8192,2.9495,2.7232,2.196,2.1158,1.9729,1.6773,1.3243,0.8709,0.6267,0.868,1.4457,1.7277,2.6239,3.405,3.9098,4.3409,4.6222,4.8597,5.0092,5.0189,4.8641,4.7096,4.5609,4.4892,4.3433,4.6243,4.7823,4.974,5.0119,5.1444,5.3818,5.4592,5.521,5.4044,5.3019,5.2353,5.1831,5.1635,5.1637,5.1913,5.2171,5.2527,5.2528,5.2761,-4.2668,-4.4676,-4.6447,-4.8133,-4.9868,-5.2742,-5.3922,-5.4422,-5.5472,-5.5477,-5.5112,-5.607,-5.7226,-5.7173,-5.8841,-5.964,-6.1009,-6.0755,-6.1209,-6.2202,-6.2541,-6.2605,-6.2216,-6.3203,-6.3637,-6.3904,-6.4984,-6.4568,-6.374,-6.3552,-6.2305,-6.0654,-5.9065,-5.7845,-5.6614,-5.4616,-5.326,-5.2529,-5.1376,-5.1021,-5.1214,-5.0788,-4.9848,-4.8985,-4.6509,-4.4806,-4.3488,-4.3487,-4.4281,-4.4809,-4.508,-3.3264,-1.6301,-1.3837,-0.1327,1.5629,2.1775,2.3971,2.3544,2.4173,2.4959,2.6098,2.6635,2.726,2.8426,2.8668,2.8304,2.7481,2.7847,2.6701,2.4536,2.7031,1.9573,0.9912,0.859,0.7212,0.3721,0.0642,-0.5491,-1.5243,-0.3995,0.4856,1.2747,2.4193,3.8096,4.1227,4.5033,4.7605,4.8582,4.869,4.7359,4.4814,4.3242,4.1685,4.132,4.0983,4.5731,4.9545,5.218,5.3357,5.3587,5.4982,5.5252,5.5075,5.3812,5.277,5.197,5.1565,5.1475,5.1619,5.1934,5.1944,5.1913,5.1685,5.172,-4.5138,-4.6408,-4.7865,-4.9543,-5.1294,-5.2671,-5.4308,-5.5939,-5.6819,-5.6638,-5.6306,-5.8031,-5.9065,-5.9373,-6.0444,-6.1792,-6.2629,-6.2489,-6.2782,-6.3117,-6.46,-6.4734,-6.4512,-6.5197,-6.562,-6.5815,-6.658,-6.668,-6.6082,-6.4836,-6.3819,-6.1874,-6.0491,-5.9202,-5.65,-5.4349,-5.3108,-5.2416,-5.0711,-5.0435,-5.1165,-5.0093,-4.9091,-4.8142,-4.5003,-4.315,-4.2569,-4.2062,-4.1986,-4.0656,-3.6076,-3.0756,-2.3523,-0.9354,0.1612,0.7991,1.7598,2.2798,2.3754,2.3723,2.4431,2.6136,2.625,2.6593,2.714,2.745,2.6937,2.6177,2.572,2.0913,1.2744,0.2863,-0.0963,-0.3829,-0.6065,-0.9791,-1.5738,-1.4642,-1.5407,-1.4944,-0.6737,0.4598,0.8221,2.4753,3.6062,4.2328,4.6374,4.9061,4.8927,4.8051,4.5515,4.2988,3.9823,3.9001,4.1741,4.2947,4.8302,5.1467,5.3687,5.4783,5.5072,5.5062,5.4916,5.4375,5.3526,5.2537,5.137,5.1901,5.1918,5.1955,5.2074,5.2506,5.2529,5.1743,5.0944,-4.783,-4.8417,-4.9621,-5.1002,-5.2397,-5.3757,-5.5255,-5.6707,-5.7838,-5.7798,-5.7632,-5.924,-6.0012,-6.0269,-6.1726,-6.2989,-6.396,-6.4463,-6.4372,-6.4297,-6.5037,-6.5633,-6.6339,-6.6677,-6.694,-6.6737,-6.7305,-6.7333,-6.6494,-6.5597,-6.4296,-6.2824,-6.1125,-5.8927,-5.6436,-5.369,-5.217,-5.1731,-5.0391,-5.005,-5.0921,-5.0037,-4.8457,-4.7355,-4.48,-4.3293,-4.2714,-4.1814,-4.159,-4.0279,-3.6292,-3.143,-2.7167,-1.2813,-0.2583,0.4243,1.4404,2.1176,2.2289,2.2485,2.3168,2.4858,2.5058,2.5789,2.6362,2.6658,2.6025,2.3747,1.8774,1.0732,-0.098,-0.4996,-1.105,-1.7963,-1.8024,-2.3037,-3.1526,-2.9561,-2.4255,-2.1687,-1.205,0.1192,1.2921,2.6669,3.7334,4.5106,4.7416,4.9824,4.9906,4.8646,4.5162,4.1965,3.7748,3.7214,4.1354,4.5677,5.1746,5.3902,5.4762,5.4875,5.4488,5.4327,5.4097,5.3318,5.2486,5.1581,5.077,5.1476,5.2059,5.2111,5.2392,5.3193,5.3173,5.2018,5.1262,-4.9968,-5.022,-5.1149,-5.2134,-5.3371,-5.4826,-5.6229,-5.7512,-5.8665,-5.9148,-5.9273,-6.021,-6.112,-6.1161,-6.2561,-6.4011,-6.5128,-6.5751,-6.5678,-6.5408,-6.5457,-6.6254,-6.7172,-6.7589,-6.7396,-6.6862,-6.7486,-6.721,-6.634,-6.5258,-6.4389,-6.3028,-6.0468,-5.792,-5.59,-5.2977,-5.0857,-5.079,-5.0014,-4.9692,-5.0285,-4.9582,-4.8198,-4.5654,-4.4369,-4.3127,-4.2181,-4.1582,-4.1454,-4.1803,-4.1227,-3.7035,-2.9856,-2.0377,-1.1918,-0.2941,0.5882,1.0816,1.1988,1.5216,1.8269,2.0809,2.352,2.4593,2.5789,2.5359,2.287,1.5019,0.6714,-0.7568,-1.4968,-2.0037,-2.3915,-2.9467,-2.9513,-3.407,-4.1864,-4.0858,-3.5962,-2.8342,-1.6097,-0.2025,1.3459,2.7927,3.8165,4.6536,4.8382,4.9735,4.9585,4.8895,4.5428,4.3036,3.9462,4.1198,4.5362,4.7998,5.4102,5.4632,5.5338,5.442,5.3543,5.2713,5.2283,5.2066,5.1287,5.0559,5.0379,5.0928,5.1458,5.1935,5.264,5.3312,5.2963,5.2131,5.1176,-4.9704,-5.0771,-5.0922,-5.2219,-5.401,-5.4503,-5.6513,-5.9008,-5.9856,-6.0644,-6.1571,-6.2793,-6.3302,-6.3587,-6.4302,-6.557,-6.6654,-6.6988,-6.6821,-6.6632,-6.6675,-6.7205,-6.7611,-6.7863,-6.766,-6.7151,-6.7282,-6.7311,-6.6946,-6.6503,-6.3954,-6.1501,-5.9781,-5.7399,-5.3866,-5.114,-5.0117,-5.0003,-4.941,-4.9286,-4.9209,-4.8503,-4.6718,-4.3631,-4.2499,-4.1736,-4.1266,-4.0641,-4.0418,-4.1401,-4.3769,-4.286,-3.8839,-3.0604,-2.5966,-2.1537,-1.2426,-0.4622,-0.4149,0.1798,0.6362,1.0799,1.6079,2.21,2.3082,2.1759,1.3753,0.0934,-1.6061,-3.2215,-3.2962,-3.722,-4.3166,-4.5548,-4.3104,-4.1853,-4.2524,-4.3455,-4.1259,-3.2402,-1.8502,-0.4017,1.1624,2.4437,3.2244,3.9746,4.3899,4.5596,4.6294,4.6501,4.5667,4.3785,4.2117,4.5963,5.0688,5.2519,5.5497,5.4463,5.431,5.3211,5.2223,5.0895,5.0261,5.0199,5.0469,5.0412,5.0407,5.0445,5.1047,5.1683,5.2501,5.3261,5.2412,5.1332,4.9261,-5.0873,-5.159,-5.2765,-5.4063,-5.5312,-5.5969,-5.7814,-6.0373,-6.1305,-6.2403,-6.3601,-6.453,-6.4837,-6.5076,-6.5894,-6.7142,-6.8095,-6.8359,-6.7943,-6.7509,-6.7268,-6.7442,-6.748,-6.7449,-6.7042,-6.6395,-6.6085,-6.5635,-6.5318,-6.3834,-6.2358,-6.0768,-5.8403,-5.5279,-5.2798,-5.0741,-4.9564,-4.9122,-4.9164,-4.9218,-4.9088,-4.8125,-4.597,-4.4303,-4.2612,-4.2205,-4.2962,-4.2922,-4.2964,-4.3592,-4.5263,-4.5849,-4.4338,-4.1829,-3.6886,-3.1449,-2.2117,-1.5451,-1.5076,-0.8816,-0.6562,-0.5131,0.1149,0.2665,0.2706,-0.0284,-0.4206,-1.8196,-2.7455,-4.3138,-4.7143,-5.1371,-5.1336,-4.9772,-4.7985,-4.5317,-4.3446,-4.5801,-4.1031,-3.379,-2.3635,-0.9135,0.8872,1.9366,2.594,3.2262,3.8498,4.151,4.3368,4.5638,4.708,4.7915,4.7216,4.8905,5.2694,5.4004,5.5039,5.4139,5.305,5.1975,5.0922,4.9635,4.8888,4.8505,4.8981,4.978,4.9612,4.9443,5.0437,5.1255,5.1633,5.1794,5.1433,5.0342,4.7734,-5.163,-5.213,-5.4292,-5.5624,-5.6376,-5.7499,-5.9322,-6.1439,-6.2462,-6.3603,-6.4981,-6.5392,-6.5589,-6.6071,-6.7165,-6.8449,-6.9538,-6.927,-6.8289,-6.7502,-6.7019,-6.7071,-6.6633,-6.6217,-6.5625,-6.5245,-6.3473,-6.2579,-6.2579,-6.1193,-6.0007,-5.7977,-5.492,-5.2904,-5.1468,-4.9557,-4.8628,-4.8882,-4.9325,-4.9711,-4.9221,-4.8061,-4.6751,-4.6073,-4.4678,-4.4787,-4.5883,-4.6004,-4.602,-4.6319,-4.7143,-4.7886,-4.8494,-4.9444,-4.5151,-3.5168,-2.5784,-2.2797,-2.233,-1.9853,-1.9313,-1.9535,-1.7478,-1.6849,-1.8228,-1.8209,-2.6498,-3.7832,-4.4434,-4.7991,-5.3967,-5.4338,-5.2236,-5.0253,-4.8072,-4.5844,-4.4478,-4.3708,-4.1005,-3.4293,-2.755,-1.4583,0.3245,1.3226,1.9563,2.8317,3.4641,4.1017,4.3399,4.841,5.0662,5.2783,5.3252,5.2849,5.3952,5.3949,5.4071,5.2935,5.1651,5.0356,4.9459,4.8469,4.77,4.6851,4.8073,4.8762,4.8551,4.8596,4.9477,5.0159,5.0401,4.9953,4.8828,4.6961,4.4412,-5.036,-5.2112,-5.3323,-5.4632,-5.627,-5.7928,-5.9896,-6.2152,-6.3095,-6.3653,-6.4434,-6.5189,-6.5961,-6.6683,-6.8256,-6.9188,-6.9113,-6.847,-6.7815,-6.7268,-6.6702,-6.5976,-6.52,-6.5397,-6.4638,-6.3862,-6.1312,-6.0455,-6.0302,-5.9197,-5.6761,-5.4195,-5.2859,-5.0676,-4.9663,-4.8998,-4.7979,-4.8847,-4.9555,-4.9767,-4.929,-4.8072,-4.6885,-4.6239,-4.6561,-4.7567,-4.8339,-4.8683,-4.8821,-4.9095,-5.0273,-4.9997,-4.8812,-4.9961,-5.0628,-4.9506,-4.8466,-4.8046,-4.3823,-3.662,-3.2148,-3.141,-2.6025,-1.9678,-2.3397,-3.192,-3.9106,-4.1074,-5.041,-5.5712,-5.6755,-5.5222,-5.3088,-5.1139,-4.9219,-4.7202,-4.5638,-4.4772,-4.1531,-3.9193,-3.3953,-1.9396,-0.2807,0.5275,1.3397,2.2408,3.0945,3.773,4.3668,4.8673,5.1953,5.3509,5.3706,5.3301,5.2946,5.3256,5.2644,5.1499,5.0245,4.8829,4.7927,4.6975,4.5698,4.5423,4.6772,4.7308,4.6617,4.7027,4.8329,4.8685,4.8546,4.7193,4.5602,4.3331,4.0581,-4.9551,-5.1986,-5.4125,-5.5788,-5.7223,-5.8974,-6.0803,-6.2486,-6.3633,-6.4585,-6.5404,-6.6069,-6.6555,-6.6977,-6.8148,-6.8624,-6.8591,-6.8029,-6.756,-6.7119,-6.6484,-6.5728,-6.4909,-6.4203,-6.3427,-6.2762,-6.0548,-5.9016,-5.8391,-5.6341,-5.3647,-5.3083,-5.143,-5.0658,-4.958,-4.9881,-5.015,-5.0542,-5.0671,-5.0454,-4.9999,-4.9452,-4.9149,-4.9163,-4.9673,-5.0654,-5.1726,-5.2562,-5.203,-5.2026,-5.3162,-5.3479,-5.2201,-5.2968,-5.422,-5.3346,-5.3927,-5.3201,-5.1134,-4.6729,-4.5246,-4.5766,-4.1309,-3.931,-3.7883,-4.2987,-4.7745,-4.4056,-5.3572,-5.8242,-5.766,-5.6187,-5.4269,-5.2386,-5.0768,-4.8655,-4.7036,-4.624,-4.4547,-4.2643,-3.9255,-2.5415,-1.1305,0.0052,0.7926,1.5233,2.7496,3.9169,4.4429,4.8915,5.1355,5.2812,5.2427,5.1744,5.1284,5.1152,5.0625,4.9647,4.8761,4.7472,4.6547,4.5487,4.4327,4.4629,4.6209,4.6094,4.4934,4.5974,4.7736,4.7306,4.647,4.426,4.1916,3.8206,3.5514,-4.9005,-5.1871,-5.4197,-5.601,-5.7521,-5.9429,-6.1145,-6.2604,-6.3892,-6.487,-6.5561,-6.5938,-6.6257,-6.6748,-6.7193,-6.7659,-6.7924,-6.7735,-6.7323,-6.6795,-6.6225,-6.5451,-6.4496,-6.3426,-6.2979,-6.2882,-5.9458,-5.7989,-5.6518,-5.4401,-5.2558,-5.2872,-5.1338,-5.0736,-5.1322,-5.1762,-5.2084,-5.2499,-5.2655,-5.2215,-5.1662,-5.1836,-5.202,-5.2381,-5.3004,-5.3848,-5.5148,-5.5737,-5.4901,-5.4346,-5.4956,-5.5009,-5.388,-5.4675,-5.5656,-5.4916,-5.4863,-5.3815,-5.3009,-5.1697,-5.3567,-5.4636,-5.5374,-5.0281,-4.4631,-5.2247,-5.1792,-3.9544,-4.8083,-5.3213,-5.5498,-5.4568,-5.5705,-5.425,-5.2731,-5.0474,-4.8434,-4.7142,-4.6672,-4.5834,-4.2014,-3.5313,-2.1119,-0.6368,0.2911,0.8868,2.1825,3.8632,4.5404,4.9675,5.0657,5.1896,5.0568,4.9964,4.9893,4.9328,4.865,4.7474,4.6536,4.552,4.4262,4.3828,4.3318,4.4234,4.5737,4.5436,4.4582,4.5874,4.6873,4.4824,4.2709,4.0531,3.7759,3.3527,2.9335,-4.8343,-5.1741,-5.2353,-5.4123,-5.6423,-5.8642,-6.0508,-6.2004,-6.3649,-6.3965,-6.3929,-6.4052,-6.5264,-6.5803,-6.6506,-6.6929,-6.7265,-6.6893,-6.6504,-6.5985,-6.5386,-6.475,-6.4,-6.3424,-6.266,-6.1231,-5.8866,-5.735,-5.5934,-5.4062,-5.2234,-5.1437,-5.1536,-5.1117,-5.16,-5.2751,-5.3699,-5.4213,-5.4504,-5.4293,-5.4056,-5.4196,-5.4344,-5.3682,-5.5319,-5.6846,-5.6322,-5.6826,-5.6578,-5.5671,-5.5762,-5.553,-5.4685,-5.5291,-5.5751,-5.559,-5.3776,-5.2772,-5.2252,-5.2402,-5.3054,-5.4174,-5.3687,-5.061,-4.0943,-4.1154,-3.7871,-3.2483,-4.0888,-4.6341,-4.8973,-5.1257,-5.6387,-5.6277,-5.5035,-5.35,-5.0829,-4.7452,-4.7193,-4.8006,-4.2228,-3.2177,-2.2956,-0.6399,0.3973,1.0324,2.5143,4.1823,4.6625,5.0402,5.0298,5.0369,4.866,4.8135,4.8508,4.7557,4.5426,4.4112,4.322,4.2246,4.1279,4.1244,4.2123,4.3689,4.495,4.4585,4.4538,4.5498,4.5048,4.1601,3.8851,3.6511,3.0959,2.489,2.1017,-4.724,-4.9204,-5.0548,-5.3264,-5.6718,-5.8513,-5.9724,-6.075,-6.2601,-6.4193,-6.4874,-6.5666,-6.5999,-6.6197,-6.6621,-6.6786,-6.6698,-6.6478,-6.6153,-6.5835,-6.5346,-6.4814,-6.4168,-6.3482,-6.2768,-6.1734,-5.9651,-5.8307,-5.7904,-5.5163,-5.4044,-5.3425,-5.2693,-5.2775,-5.3264,-5.4028,-5.4905,-5.5224,-5.5436,-5.5101,-5.5335,-5.5764,-5.5995,-5.5507,-5.7364,-5.7959,-5.7101,-5.751,-5.6873,-5.6026,-5.558,-5.5086,-5.4618,-5.5033,-5.5408,-5.5301,-5.294,-5.1396,-5.0384,-5.0693,-5.1515,-5.1494,-4.8116,-4.112,-3.2727,-3.0086,-2.8788,-2.8969,-3.5408,-4.3416,-5.416,-5.737,-5.9329,-5.8397,-5.7315,-5.61,-5.3073,-4.9243,-4.774,-4.8607,-3.585,-2.2546,-1.3715,-0.4193,0.4462,1.3011,2.9044,4.2394,4.6616,4.9414,4.8809,4.7945,4.6303,4.5033,4.5212,4.3621,4.173,4.0803,3.9929,3.9384,3.8957,4.0238,4.1265,4.2921,4.4404,4.4818,4.5033,4.508,4.3344,4.0021,3.6048,3.2335,2.5441,1.6913,1.2292,-4.5573,-4.7684,-4.9805,-5.2725,-5.6087,-5.7976,-5.9112,-6.0007,-6.2113,-6.4036,-6.5808,-6.6173,-6.628,-6.6211,-6.6361,-6.6555,-6.6317,-6.6288,-6.619,-6.5891,-6.5527,-6.5148,-6.4529,-6.3747,-6.2825,-6.2377,-6.092,-5.9443,-5.9042,-5.7239,-5.6162,-5.5275,-5.4485,-5.4573,-5.4628,-5.5797,-5.6239,-5.6039,-5.6325,-5.6064,-5.628,-5.7088,-5.7171,-5.6896,-5.8121,-5.7869,-5.687,-5.6609,-5.5933,-5.5062,-5.452,-5.4419,-5.4233,-5.4122,-5.4383,-5.3511,-5.1844,-4.9613,-4.8794,-4.8158,-4.9851,-5.1333,-4.8163,-3.664,-2.5351,-2.3369,-2.8414,-1.9103,-3.1288,-4.6191,-5.6732,-5.768,-6.0022,-5.9744,-5.9645,-5.8275,-5.4127,-5.0395,-4.9503,-4.8642,-3.2279,-1.6475,-2.076,-1.2496,0.6522,1.597,3.013,4.0602,4.3943,4.5813,4.5719,4.4758,4.3632,4.2466,4.1363,3.9524,3.7829,3.763,3.6961,3.7027,3.7222,3.8328,3.9311,4.0315,4.2077,4.4488,4.4665,4.3589,4.1313,3.8505,3.2428,2.4821,1.7707,0.9377,0.3474,-4.3231,-4.7967,-5.0201,-5.2353,-5.4518,-5.6653,-5.8552,-6.0164,-6.2157,-6.373,-6.4801,-6.4519,-6.4851,-6.5474,-6.5583,-6.5679,-6.607,-6.6279,-6.6225,-6.5839,-6.5432,-6.5231,-6.4611,-6.3755,-6.3069,-6.1908,-6.1201,-6.0567,-5.9733,-5.9213,-5.8314,-5.7144,-5.63,-5.5772,-5.5379,-5.6701,-5.715,-5.6921,-5.786,-5.7495,-5.7494,-5.8233,-5.8042,-5.7167,-5.7554,-5.7261,-5.5866,-5.5294,-5.4525,-5.3649,-5.3393,-5.2951,-5.2001,-5.22,-5.2196,-5.1662,-4.8877,-4.7845,-4.8666,-4.6563,-4.8162,-5.0637,-4.7208,-3.9168,-2.7243,-2.7053,-3.0599,-2.0382,-3.0495,-4.1143,-4.8402,-5.3793,-5.7464,-5.6544,-5.542,-5.727,-5.2762,-5.0015,-4.8645,-4.3034,-2.6071,-1.3141,-2.3293,-2.2387,0.2849,1.9189,3.2105,3.9067,4.1815,4.3148,4.3365,4.2413,4.1363,3.9411,3.7977,3.5588,3.4142,3.3978,3.3645,3.3269,3.3775,3.4686,3.5874,3.7271,3.8925,4.0632,4.1313,4.155,3.6418,3.0263,2.2418,1.497,0.832,0.235,-0.3455,-4.1425,-4.3679,-4.8698,-5.1577,-5.308,-5.6679,-5.8732,-5.9816,-6.1665,-6.3406,-6.4516,-6.437,-6.4615,-6.5135,-6.5141,-6.5213,-6.5745,-6.5883,-6.583,-6.5308,-6.498,-6.448,-6.402,-6.3866,-6.3562,-6.327,-6.28,-6.2197,-6.1427,-6.113,-5.9986,-5.8693,-5.7096,-5.6242,-5.5761,-5.6198,-5.6356,-5.6565,-5.6855,-5.6852,-5.7273,-5.8026,-5.7795,-5.6064,-5.6826,-5.6124,-5.4295,-5.3774,-5.3043,-5.232,-5.2168,-5.1276,-5.0887,-5.1189,-5.0643,-4.9533,-4.6959,-4.5146,-4.5581,-4.5136,-4.6965,-4.7685,-4.4726,-3.9248,-3.1065,-2.5896,-2.5259,-2.8155,-3.5449,-4.3037,-4.4205,-4.7988,-4.919,-4.1241,-4.1014,-4.8613,-4.8677,-4.7287,-4.4725,-3.5384,-2.142,-1.9045,-2.4667,-2.7017,-0.7161,0.962,2.1309,3.4242,3.9603,4.1273,4.196,4.0644,3.9265,3.6896,3.4578,3.2311,2.9537,2.8173,2.8343,2.8487,2.9387,3.0203,3.1251,3.2115,3.4367,3.6407,3.571,3.3876,2.7253,2.0559,1.3568,0.75,0.1836,-0.3984,-0.9987,-3.8135,-4.0024,-4.5735,-4.8875,-5.0712,-5.5896,-5.8747,-5.9626,-6.1039,-6.2264,-6.2966,-6.3216,-6.352,-6.3911,-6.4256,-6.4489,-6.4938,-6.4869,-6.4896,-6.4399,-6.4239,-6.3896,-6.3709,-6.3585,-6.3602,-6.3817,-6.3943,-6.3559,-6.3331,-6.294,-6.1331,-5.9109,-5.7216,-5.5954,-5.5508,-5.565,-5.5988,-5.608,-5.6069,-5.6146,-5.65,-5.6695,-5.6305,-5.5772,-5.5473,-5.4652,-5.3316,-5.2259,-5.1512,-5.1092,-5.0473,-4.9705,-4.9894,-4.9868,-4.9259,-4.7794,-4.681,-4.5007,-4.4724,-4.6827,-4.8855,-5.0314,-4.2787,-3.8225,-3.6977,-3.527,-3.5131,-3.8218,-4.3702,-4.2785,-4.1905,-4.4968,-3.9338,-3.1632,-3.6056,-4.3949,-4.2944,-4.1343,-4.1796,-3.1951,-2.337,-2.3114,-2.5677,-2.3291,-1.7198,-0.361,0.9384,2.2728,3.5658,3.7875,3.9251,3.8584,3.6808,3.4373,3.1768,2.9212,2.6294,2.2909,2.2894,2.351,2.3602,2.4302,2.5738,2.6769,2.7922,2.8623,2.8535,2.5661,1.9977,1.3375,0.6235,0.0572,-0.4536,-0.9884,-1.5504,-3.3187,-3.6573,-4.1314,-4.4259,-4.6956,-5.3236,-5.7547,-5.9445,-6.0016,-6.0041,-5.9971,-6.0914,-6.1419,-6.1738,-6.2454,-6.2918,-6.3156,-6.3053,-6.3176,-6.3313,-6.3169,-6.3142,-6.2999,-6.275,-6.3168,-6.3681,-6.392,-6.397,-6.4851,-6.3604,-6.1651,-5.929,-5.7036,-5.5847,-5.5409,-5.5227,-5.5472,-5.5325,-5.5111,-5.5317,-5.5731,-5.5062,-5.5008,-5.4656,-5.3895,-5.2775,-5.1464,-5.0467,-4.9611,-4.9114,-4.8654,-4.809,-4.7965,-4.8225,-4.7812,-4.7386,-4.7419,-4.6629,-4.6293,-4.8879,-5.0936,-5.2207,-5.1292,-4.4438,-4.2331,-4.5153,-4.6078,-4.5043,-4.7132,-4.3853,-4.1872,-3.7593,-3.3184,-3.3561,-3.6679,-3.7818,-3.5416,-3.5536,-3.7609,-3.1608,-2.184,-2.1309,-3.0526,-3.028,-2.5006,-1.3979,-0.0614,1.2146,2.4184,3.268,3.421,3.6228,3.4274,3.1799,2.9085,2.5583,2.2647,1.9164,1.8409,1.8669,1.8615,1.8121,1.8405,1.9063,2.0224,2.0907,2.1313,1.8544,1.3534,0.6776,0.0,-0.4653,-0.9205,-1.4564,-1.9021,-2.7131,-2.9478,-3.5184,-3.7935,-3.9252,-4.5187,-4.9846,-5.3423,-5.5536,-5.664,-5.7233,-5.8414,-5.8905,-5.9655,-5.9456,-6.0194,-6.0719,-6.1162,-6.1363,-6.1569,-6.1919,-6.1999,-6.205,-6.2148,-6.2572,-6.298,-6.3321,-6.3442,-6.3514,-6.2878,-6.1221,-5.8847,-5.7118,-5.6007,-5.5153,-5.4641,-5.4557,-5.4399,-5.4099,-5.4412,-5.4871,-5.4634,-5.4267,-5.3219,-5.2085,-5.0843,-4.9457,-4.8444,-4.7651,-4.7637,-4.7827,-4.7978,-4.9093,-4.9739,-4.9772,-4.8328,-4.8567,-4.8827,-4.8644,-5.0784,-5.2952,-5.4155,-5.4344,-5.4957,-5.3362,-5.3533,-5.5331,-5.2777,-4.8311,-4.4416,-3.678,-3.0797,-2.5183,-2.3831,-2.9515,-3.5813,-3.5222,-4.0778,-4.2022,-3.472,-2.4767,-2.7636,-3.6512,-3.6036,-3.0113,-2.1078,-1.0333,0.246,1.3156,2.1936,2.7739,2.9681,2.831,2.4972,2.3679,2.0852,1.8202,1.5773,1.5059,1.3937,1.3154,1.2421,1.1374,1.1688,1.315,1.413,1.4686,1.0932,0.6483,0.1277,-0.5039,-0.9469,-1.3997,-1.9256,-2.0916,-2.1968,-2.3664,-2.9355,-3.259,-3.4456,-3.8454,-4.1981,-4.4885,-4.9377,-5.2219,-5.3511,-5.4407,-5.523,-5.5878,-5.6361,-5.7199,-5.8149,-5.8888,-5.9368,-5.985,-6.0654,-6.0939,-6.121,-6.155,-6.2027,-6.2341,-6.2459,-6.2478,-6.2271,-6.0968,-5.9299,-5.8124,-5.7003,-5.584,-5.4821,-5.4048,-5.3621,-5.3371,-5.3218,-5.336,-5.3757,-5.4098,-5.2921,-5.1888,-5.0626,-4.8643,-4.8137,-4.7243,-4.7194,-4.779,-4.8465,-4.9001,-5.0027,-5.0742,-5.1369,-5.0406,-5.0993,-5.1788,-5.2284,-5.3567,-5.5185,-5.6287,-5.7078,-5.7772,-5.7964,-5.7555,-5.7522,-5.5889,-4.9792,-4.321,-3.3177,-2.3717,-1.6658,-1.005,-2.2048,-3.4229,-4.1133,-4.8136,-4.4711,-3.812,-3.63,-3.7922,-3.9572,-3.8631,-3.5165,-2.5835,-1.6276,-0.5303,0.4289,1.2161,1.7828,2.1043,1.928,1.6898,1.6029,1.5742,1.4262,1.2445,1.1456,1.026,0.8447,0.6352,0.4819,0.5216,0.6354,0.7495,0.8628,0.3925,-0.0696,-0.6353,-1.2951,-1.9455,-2.2635,-2.372,-2.3207,-1.8007,-1.901,-2.4387,-2.8621,-3.1421,-3.4043,-3.5079,-3.5117,-4.2725,-4.7021,-4.8814,-4.9833,-5.0911,-5.2062,-5.3456,-5.4673,-5.5884,-5.6929,-5.8036,-5.8183,-5.9716,-6.038,-6.073,-6.0896,-6.1247,-6.1514,-6.1431,-6.1078,-6.0806,-5.9571,-5.8019,-5.6953,-5.5705,-5.4705,-5.4201,-5.346,-5.301,-5.2781,-5.2618,-5.2646,-5.2782,-5.2477,-5.1646,-5.1031,-4.8887,-4.661,-4.8047,-4.8461,-4.8309,-4.9379,-5.0314,-5.051,-5.171,-5.2698,-5.3241,-5.3364,-5.3954,-5.4666,-5.54,-5.6222,-5.7871,-5.9112,-6.0217,-5.9937,-5.9578,-5.906,-5.841,-5.6466,-5.0798,-4.2144,-3.244,-2.7094,-2.086,-1.8754,-2.5749,-3.2348,-3.5993,-4.0843,-3.981,-3.4315,-3.2545,-3.4677,-3.6829,-3.5355,-3.2857,-2.6684,-2.0059,-1.0175,-0.3931,0.3507,0.7767,1.167,0.8875,0.7394,0.8991,0.9023,0.9972,0.9126,0.8176,0.5937,0.3856,0.1088,-0.1837,-0.0367,0.1466,0.1965,0.1958,-0.338,-0.9298,-1.5732,-2.265,-3.028,-3.2513,-3.1043,-2.5977,-1.7843,-1.9233,-2.3247,-2.6516,-2.9028,-3.1424,-3.3597,-3.5189,-3.7916,-4.1485,-4.45,-4.7459,-4.9074,-4.9435,-5.1157,-5.254,-5.4104,-5.572,-5.703,-5.8113,-5.9269,-5.9998,-6.0396,-6.0272,-6.0487,-6.0503,-6.0243,-5.9376,-5.8374,-5.7406,-5.643,-5.504,-5.4254,-5.4002,-5.3714,-5.2974,-5.2559,-5.249,-5.2394,-5.2161,-5.2068,-5.1809,-5.128,-5.0195,-4.8214,-4.7571,-4.8318,-4.8152,-4.9022,-5.0391,-5.1919,-5.367,-5.5917,-5.7045,-5.7357,-5.7196,-5.7094,-5.7667,-5.7995,-5.8196,-5.8896,-5.9733,-6.026,-6.0284,-6.0003,-5.9361,-5.7987,-5.5623,-5.0896,-4.1877,-3.5274,-3.1384,-2.8566,-2.9401,-2.9803,-3.0957,-3.1919,-3.252,-3.3828,-3.1251,-2.8496,-2.968,-3.2227,-3.1505,-2.8894,-2.4976,-2.031,-1.4127,-1.0525,-0.4738,-0.1339,0.1167,-0.2322,-0.3111,0.013,0.3218,0.4717,0.5549,0.4878,0.2336,-0.0845,-0.4125,-0.6848,-0.4774,-0.3183,-0.3527,-0.6111,-1.2112,-1.8173,-2.4486,-3.0869,-3.7874,-3.8757,-3.7444,-3.0676,-1.8082,-1.98,-2.3747,-2.6898,-2.9536,-3.2529,-3.4516,-3.5761,-3.7903,-3.9322,-4.0675,-4.4054,-4.6561,-4.7623,-4.9291,-5.0663,-5.2422,-5.4746,-5.5875,-5.7062,-5.8614,-5.9361,-5.9597,-5.9677,-5.9935,-5.9912,-5.8807,-5.7634,-5.611,-5.5353,-5.4544,-5.3768,-5.3571,-5.3414,-5.3176,-5.2693,-5.2425,-5.2518,-5.2415,-5.2066,-5.1619,-5.1174,-5.0798,-4.9735,-4.9125,-4.871,-4.9293,-4.9552,-5.1178,-5.3175,-5.5202,-5.6485,-5.8386,-5.9675,-6.0379,-6.021,-6.0079,-6.0177,-6.0105,-5.9827,-5.9478,-6.0236,-6.0811,-6.1048,-6.0055,-5.946,-5.9347,-5.7271,-5.5942,-4.8188,-4.7819,-4.4847,-4.3465,-4.3507,-4.1668,-4.0957,-3.7288,-3.4008,-3.2319,-2.8521,-2.7082,-2.7814,-2.9225,-2.8017,-2.525,-2.1892,-1.7581,-1.4661,-1.1895,-1.0502,-0.7945,-0.6943,-0.8747,-0.7621,-0.2867,-0.0646,0.0255,0.0884,0.1247,-0.2209,-0.5702,-0.9379,-1.1514,-0.9389,-0.8935,-1.0567,-1.4166,-1.9861,-2.6003,-3.2235,-3.8502,-4.4985,-4.4215,-4.2296,-3.5663,-2.0337,-2.1873,-2.6065,-2.9196,-3.16,-3.5315,-3.6566,-3.6719,-3.9567,-3.9867,-3.8819,-4.1598,-4.4329,-4.6298,-4.8095,-4.9019,-5.079,-5.3932,-5.5102,-5.6206,-5.7877,-5.8732,-5.9025,-5.9044,-5.8928,-5.8266,-5.7175,-5.588,-5.4509,-5.4015,-5.365,-5.3135,-5.2924,-5.285,-5.2729,-5.2536,-5.2313,-5.2563,-5.2508,-5.2216,-5.1518,-5.0769,-5.0602,-5.0109,-4.9718,-4.9735,-5.0873,-5.2175,-5.38,-5.5466,-5.7283,-5.8172,-5.927,-6.0457,-6.1099,-6.1176,-6.1173,-6.1246,-6.1325,-6.0756,-6.0839,-6.1183,-6.1543,-6.1065,-5.9935,-5.9348,-5.9228,-5.8726,-5.7439,-5.5988,-5.5498,-5.5539,-5.437,-5.0089,-4.754,-4.4398,-3.8341,-3.2585,-2.8455,-2.4377,-2.4178,-2.4626,-2.3918,-2.287,-2.0961,-1.7725,-1.5271,-1.2614,-1.0604,-1.0434,-0.9146,-0.9105,-1.0412,-0.8333,-0.5501,-0.4802,-0.4104,-0.3417,-0.3623,-0.7153,-1.0155,-1.2346,-1.367,-1.3722,-1.3918,-1.5654,-2.0892,-2.6804,-3.3173,-3.9373,-4.4382,-4.8769,-4.6439,-4.4069,-3.9609,-2.8632,-2.9268,-3.2252,-3.3589,-3.4138,-3.7215,-3.853,-3.8654,-4.0187,-4.0778,-4.1368,-4.2366,-4.415,-4.5092,-4.7583,-4.9122,-5.051,-5.3409,-5.5084,-5.6241,-5.7302,-5.8146,-5.8345,-5.78,-5.7211,-5.6292,-5.525,-5.4175,-5.3481,-5.3236,-5.2767,-5.205,-5.1806,-5.2038,-5.2641,-5.2418,-5.221,-5.2669,-5.2806,-5.2536,-5.2379,-5.175,-5.1228,-5.0873,-5.0544,-5.1475,-5.2501,-5.3119,-5.4501,-5.5959,-5.7321,-5.8168,-5.9104,-6.0197,-6.0801,-6.084,-6.0958,-6.0788,-6.0554,-6.0307,-6.0229,-5.971,-5.9827,-5.9821,-5.8743,-5.7794,-5.786,-5.8164,-5.6573,-5.3931,-5.3455,-5.5054,-5.4033,-4.3853,-3.8084,-3.3631,-2.8334,-2.3673,-1.9364,-1.7083,-1.5856,-1.5832,-1.5484,-1.5128,-1.5481,-1.312,-1.2527,-1.0277,-1.0545,-1.0372,-1.0336,-1.1262,-1.206,-1.1148,-0.9305,-0.9139,-0.8654,-0.7899,-0.8027,-1.0505,-1.2479,-1.3655,-1.4703,-1.5759,-1.8043,-2.0155,-2.6083,-3.2425,-3.9251,-4.5032,-4.931,-5.1914,-4.9026,-4.4784,-3.9527]}]]